<?xml version="1.0" encoding="UTF-8" standalone="no" ?>
<gpx xmlns="http://www.topografix.com/GPX/1/1" xmlns:xsi="http://www.w3.org/2001/XMLSchema-instance" xsi:schemaLocation="http://www.topografix.com/GPX/1/1 http://www.topografix.com/GPX/1/1/gpx.xsd" version="1.1" creator="VisuGPX - https://www.visugpx.com">
  <metadata>
    <name>drumett-&gt;st-off</name>
    <desc><![CDATA[de belles montées, à refaire par temps sec]]></desc>
  </metadata>
  <trk>
    <name><![CDATA[26-JUIL-14 12:12:32]]></name>
    <trkseg>
      <trkpt lat="45.67356" lon="5.94103">
        <ele>406.29</ele>
        <time>2014-07-26T07:42:38Z</time>
      </trkpt>
      <trkpt lat="45.6735" lon="5.94103">
        <ele>405.81</ele>
        <time>2014-07-26T07:42:43Z</time>
      </trkpt>
      <trkpt lat="45.67346" lon="5.94105">
        <ele>407.74</ele>
        <time>2014-07-26T07:42:48Z</time>
      </trkpt>
      <trkpt lat="45.67343" lon="5.94105">
        <ele>407.26</ele>
        <time>2014-07-26T07:42:53Z</time>
      </trkpt>
      <trkpt lat="45.6734" lon="5.94101">
        <ele>408.7</ele>
        <time>2014-07-26T07:42:58Z</time>
      </trkpt>
      <trkpt lat="45.67336" lon="5.94103">
        <ele>408.7</ele>
        <time>2014-07-26T07:43:03Z</time>
      </trkpt>
      <trkpt lat="45.67331" lon="5.94111">
        <ele>409.66</ele>
        <time>2014-07-26T07:43:08Z</time>
      </trkpt>
      <trkpt lat="45.6733" lon="5.94113">
        <ele>410.14</ele>
        <time>2014-07-26T07:43:13Z</time>
      </trkpt>
      <trkpt lat="45.67323" lon="5.94113">
        <ele>410.14</ele>
        <time>2014-07-26T07:43:18Z</time>
      </trkpt>
      <trkpt lat="45.67323" lon="5.94103">
        <ele>410.14</ele>
        <time>2014-07-26T07:43:23Z</time>
      </trkpt>
      <trkpt lat="45.67324" lon="5.9408">
        <ele>409.66</ele>
        <time>2014-07-26T07:43:28Z</time>
      </trkpt>
      <trkpt lat="45.67328" lon="5.94047">
        <ele>408.22</ele>
        <time>2014-07-26T07:43:32Z</time>
      </trkpt>
      <trkpt lat="45.67336" lon="5.94008">
        <ele>407.26</ele>
        <time>2014-07-26T07:43:37Z</time>
      </trkpt>
      <trkpt lat="45.67344" lon="5.93969">
        <ele>405.81</ele>
        <time>2014-07-26T07:43:42Z</time>
      </trkpt>
      <trkpt lat="45.67355" lon="5.93939">
        <ele>404.37</ele>
        <time>2014-07-26T07:43:47Z</time>
      </trkpt>
      <trkpt lat="45.67372" lon="5.93931">
        <ele>404.37</ele>
        <time>2014-07-26T07:43:52Z</time>
      </trkpt>
      <trkpt lat="45.67399" lon="5.93918">
        <ele>405.81</ele>
        <time>2014-07-26T07:43:57Z</time>
      </trkpt>
      <trkpt lat="45.67425" lon="5.93908">
        <ele>405.81</ele>
        <time>2014-07-26T07:44:02Z</time>
      </trkpt>
      <trkpt lat="45.67447" lon="5.93898">
        <ele>406.29</ele>
        <time>2014-07-26T07:44:07Z</time>
      </trkpt>
      <trkpt lat="45.67472" lon="5.93889">
        <ele>407.26</ele>
        <time>2014-07-26T07:44:12Z</time>
      </trkpt>
      <trkpt lat="45.67495" lon="5.9388">
        <ele>408.22</ele>
        <time>2014-07-26T07:44:17Z</time>
      </trkpt>
      <trkpt lat="45.6752" lon="5.93871">
        <ele>408.22</ele>
        <time>2014-07-26T07:44:22Z</time>
      </trkpt>
      <trkpt lat="45.67543" lon="5.93861">
        <ele>408.7</ele>
        <time>2014-07-26T07:44:27Z</time>
      </trkpt>
      <trkpt lat="45.67564" lon="5.93848">
        <ele>408.7</ele>
        <time>2014-07-26T07:44:32Z</time>
      </trkpt>
      <trkpt lat="45.67565" lon="5.93818">
        <ele>406.29</ele>
        <time>2014-07-26T07:44:37Z</time>
      </trkpt>
      <trkpt lat="45.67552" lon="5.93764">
        <ele>402.45</ele>
        <time>2014-07-26T07:44:42Z</time>
      </trkpt>
      <trkpt lat="45.67535" lon="5.93706">
        <ele>398.6</ele>
        <time>2014-07-26T07:44:47Z</time>
      </trkpt>
      <trkpt lat="45.67512" lon="5.93644">
        <ele>392.84</ele>
        <time>2014-07-26T07:44:52Z</time>
      </trkpt>
      <trkpt lat="45.67492" lon="5.93572">
        <ele>388.51</ele>
        <time>2014-07-26T07:44:57Z</time>
      </trkpt>
      <trkpt lat="45.67479" lon="5.93497">
        <ele>384.18</ele>
        <time>2014-07-26T07:45:02Z</time>
      </trkpt>
      <trkpt lat="45.67467" lon="5.9343">
        <ele>377.45</ele>
        <time>2014-07-26T07:45:07Z</time>
      </trkpt>
      <trkpt lat="45.67469" lon="5.93381">
        <ele>374.09</ele>
        <time>2014-07-26T07:45:12Z</time>
      </trkpt>
      <trkpt lat="45.67494" lon="5.93358">
        <ele>373.61</ele>
        <time>2014-07-26T07:45:17Z</time>
      </trkpt>
      <trkpt lat="45.67519" lon="5.93362">
        <ele>372.17</ele>
        <time>2014-07-26T07:45:22Z</time>
      </trkpt>
      <trkpt lat="45.67527" lon="5.93366">
        <ele>371.21</ele>
        <time>2014-07-26T07:45:27Z</time>
      </trkpt>
      <trkpt lat="45.67527" lon="5.93366">
        <ele>371.21</ele>
        <time>2014-07-26T07:45:32Z</time>
      </trkpt>
      <trkpt lat="45.67531" lon="5.93368">
        <ele>372.17</ele>
        <time>2014-07-26T07:45:37Z</time>
      </trkpt>
      <trkpt lat="45.67544" lon="5.93372">
        <ele>372.17</ele>
        <time>2014-07-26T07:45:42Z</time>
      </trkpt>
      <trkpt lat="45.67567" lon="5.93378">
        <ele>371.69</ele>
        <time>2014-07-26T07:45:47Z</time>
      </trkpt>
      <trkpt lat="45.67591" lon="5.93383">
        <ele>371.21</ele>
        <time>2014-07-26T07:45:52Z</time>
      </trkpt>
      <trkpt lat="45.67611" lon="5.93385">
        <ele>371.21</ele>
        <time>2014-07-26T07:45:57Z</time>
      </trkpt>
      <trkpt lat="45.67629" lon="5.93384">
        <ele>370.73</ele>
        <time>2014-07-26T07:46:02Z</time>
      </trkpt>
      <trkpt lat="45.6765" lon="5.93387">
        <ele>371.69</ele>
        <time>2014-07-26T07:46:07Z</time>
      </trkpt>
      <trkpt lat="45.6767" lon="5.93387">
        <ele>371.21</ele>
        <time>2014-07-26T07:46:12Z</time>
      </trkpt>
      <trkpt lat="45.67688" lon="5.93386">
        <ele>371.69</ele>
        <time>2014-07-26T07:46:17Z</time>
      </trkpt>
      <trkpt lat="45.67706" lon="5.93385">
        <ele>372.17</ele>
        <time>2014-07-26T07:46:22Z</time>
      </trkpt>
      <trkpt lat="45.67725" lon="5.93384">
        <ele>372.65</ele>
        <time>2014-07-26T07:46:27Z</time>
      </trkpt>
      <trkpt lat="45.67742" lon="5.93383">
        <ele>372.65</ele>
        <time>2014-07-26T07:46:32Z</time>
      </trkpt>
      <trkpt lat="45.67763" lon="5.93379">
        <ele>373.13</ele>
        <time>2014-07-26T07:46:37Z</time>
      </trkpt>
      <trkpt lat="45.67784" lon="5.93375">
        <ele>373.13</ele>
        <time>2014-07-26T07:46:42Z</time>
      </trkpt>
      <trkpt lat="45.67804" lon="5.93374">
        <ele>373.61</ele>
        <time>2014-07-26T07:46:47Z</time>
      </trkpt>
      <trkpt lat="45.67824" lon="5.93373">
        <ele>374.57</ele>
        <time>2014-07-26T07:46:52Z</time>
      </trkpt>
      <trkpt lat="45.67846" lon="5.93372">
        <ele>374.09</ele>
        <time>2014-07-26T07:46:57Z</time>
      </trkpt>
      <trkpt lat="45.67867" lon="5.93373">
        <ele>373.61</ele>
        <time>2014-07-26T07:47:02Z</time>
      </trkpt>
      <trkpt lat="45.67888" lon="5.9337">
        <ele>374.09</ele>
        <time>2014-07-26T07:47:07Z</time>
      </trkpt>
      <trkpt lat="45.67909" lon="5.93371">
        <ele>374.09</ele>
        <time>2014-07-26T07:47:12Z</time>
      </trkpt>
      <trkpt lat="45.67929" lon="5.9337">
        <ele>374.09</ele>
        <time>2014-07-26T07:47:17Z</time>
      </trkpt>
      <trkpt lat="45.67943" lon="5.93371">
        <ele>376.01</ele>
        <time>2014-07-26T07:47:22Z</time>
      </trkpt>
      <trkpt lat="45.67945" lon="5.9338">
        <ele>376.97</ele>
        <time>2014-07-26T07:47:27Z</time>
      </trkpt>
      <trkpt lat="45.67946" lon="5.93392">
        <ele>377.94</ele>
        <time>2014-07-26T07:47:32Z</time>
      </trkpt>
      <trkpt lat="45.67949" lon="5.934">
        <ele>379.38</ele>
        <time>2014-07-26T07:47:37Z</time>
      </trkpt>
      <trkpt lat="45.67955" lon="5.93405">
        <ele>380.34</ele>
        <time>2014-07-26T07:47:42Z</time>
      </trkpt>
      <trkpt lat="45.67963" lon="5.93414">
        <ele>381.3</ele>
        <time>2014-07-26T07:47:47Z</time>
      </trkpt>
      <trkpt lat="45.67977" lon="5.93421">
        <ele>382.26</ele>
        <time>2014-07-26T07:47:52Z</time>
      </trkpt>
      <trkpt lat="45.67989" lon="5.93431">
        <ele>382.74</ele>
        <time>2014-07-26T07:47:56Z</time>
      </trkpt>
      <trkpt lat="45.68" lon="5.93436">
        <ele>384.18</ele>
        <time>2014-07-26T07:48:01Z</time>
      </trkpt>
      <trkpt lat="45.68013" lon="5.9344">
        <ele>385.15</ele>
        <time>2014-07-26T07:48:06Z</time>
      </trkpt>
      <trkpt lat="45.68024" lon="5.93442">
        <ele>386.11</ele>
        <time>2014-07-26T07:48:11Z</time>
      </trkpt>
      <trkpt lat="45.68035" lon="5.93441">
        <ele>387.55</ele>
        <time>2014-07-26T07:48:16Z</time>
      </trkpt>
      <trkpt lat="45.68048" lon="5.93445">
        <ele>388.99</ele>
        <time>2014-07-26T07:48:21Z</time>
      </trkpt>
      <trkpt lat="45.68062" lon="5.93455">
        <ele>388.99</ele>
        <time>2014-07-26T07:48:26Z</time>
      </trkpt>
      <trkpt lat="45.68075" lon="5.93457">
        <ele>390.43</ele>
        <time>2014-07-26T07:48:31Z</time>
      </trkpt>
      <trkpt lat="45.68088" lon="5.93463">
        <ele>392.36</ele>
        <time>2014-07-26T07:48:36Z</time>
      </trkpt>
      <trkpt lat="45.68101" lon="5.93466">
        <ele>393.32</ele>
        <time>2014-07-26T07:48:41Z</time>
      </trkpt>
      <trkpt lat="45.68113" lon="5.9347">
        <ele>394.28</ele>
        <time>2014-07-26T07:48:46Z</time>
      </trkpt>
      <trkpt lat="45.68128" lon="5.93475">
        <ele>395.24</ele>
        <time>2014-07-26T07:48:51Z</time>
      </trkpt>
      <trkpt lat="45.68141" lon="5.93478">
        <ele>396.2</ele>
        <time>2014-07-26T07:48:56Z</time>
      </trkpt>
      <trkpt lat="45.68156" lon="5.93483">
        <ele>397.16</ele>
        <time>2014-07-26T07:49:01Z</time>
      </trkpt>
      <trkpt lat="45.68169" lon="5.93488">
        <ele>398.12</ele>
        <time>2014-07-26T07:49:06Z</time>
      </trkpt>
      <trkpt lat="45.68183" lon="5.93491">
        <ele>398.12</ele>
        <time>2014-07-26T07:49:11Z</time>
      </trkpt>
      <trkpt lat="45.68199" lon="5.93491">
        <ele>398.12</ele>
        <time>2014-07-26T07:49:16Z</time>
      </trkpt>
      <trkpt lat="45.68217" lon="5.93493">
        <ele>397.64</ele>
        <time>2014-07-26T07:49:21Z</time>
      </trkpt>
      <trkpt lat="45.6824" lon="5.93501">
        <ele>397.16</ele>
        <time>2014-07-26T07:49:26Z</time>
      </trkpt>
      <trkpt lat="45.68256" lon="5.93535">
        <ele>394.76</ele>
        <time>2014-07-26T07:49:31Z</time>
      </trkpt>
      <trkpt lat="45.68266" lon="5.93563">
        <ele>392.84</ele>
        <time>2014-07-26T07:49:36Z</time>
      </trkpt>
      <trkpt lat="45.68285" lon="5.93542">
        <ele>390.91</ele>
        <time>2014-07-26T07:49:41Z</time>
      </trkpt>
      <trkpt lat="45.68307" lon="5.93516">
        <ele>389.47</ele>
        <time>2014-07-26T07:49:46Z</time>
      </trkpt>
      <trkpt lat="45.68334" lon="5.93533">
        <ele>386.11</ele>
        <time>2014-07-26T07:49:51Z</time>
      </trkpt>
      <trkpt lat="45.68346" lon="5.93562">
        <ele>387.07</ele>
        <time>2014-07-26T07:49:56Z</time>
      </trkpt>
      <trkpt lat="45.68367" lon="5.93562">
        <ele>387.55</ele>
        <time>2014-07-26T07:50:01Z</time>
      </trkpt>
      <trkpt lat="45.68384" lon="5.9356">
        <ele>389.47</ele>
        <time>2014-07-26T07:50:06Z</time>
      </trkpt>
      <trkpt lat="45.68398" lon="5.93561">
        <ele>391.87</ele>
        <time>2014-07-26T07:50:11Z</time>
      </trkpt>
      <trkpt lat="45.68411" lon="5.93566">
        <ele>392.84</ele>
        <time>2014-07-26T07:50:16Z</time>
      </trkpt>
      <trkpt lat="45.68415" lon="5.93579">
        <ele>394.76</ele>
        <time>2014-07-26T07:50:21Z</time>
      </trkpt>
      <trkpt lat="45.68407" lon="5.93593">
        <ele>396.2</ele>
        <time>2014-07-26T07:50:26Z</time>
      </trkpt>
      <trkpt lat="45.68403" lon="5.93612">
        <ele>397.64</ele>
        <time>2014-07-26T07:50:31Z</time>
      </trkpt>
      <trkpt lat="45.68414" lon="5.93625">
        <ele>398.12</ele>
        <time>2014-07-26T07:50:36Z</time>
      </trkpt>
      <trkpt lat="45.68428" lon="5.93631">
        <ele>398.12</ele>
        <time>2014-07-26T07:50:41Z</time>
      </trkpt>
      <trkpt lat="45.68444" lon="5.93635">
        <ele>399.57</ele>
        <time>2014-07-26T07:50:46Z</time>
      </trkpt>
      <trkpt lat="45.68463" lon="5.93635">
        <ele>399.57</ele>
        <time>2014-07-26T07:50:51Z</time>
      </trkpt>
      <trkpt lat="45.68481" lon="5.9363">
        <ele>399.57</ele>
        <time>2014-07-26T07:50:56Z</time>
      </trkpt>
      <trkpt lat="45.68499" lon="5.93623">
        <ele>399.57</ele>
        <time>2014-07-26T07:51:01Z</time>
      </trkpt>
      <trkpt lat="45.68518" lon="5.93619">
        <ele>399.57</ele>
        <time>2014-07-26T07:51:06Z</time>
      </trkpt>
      <trkpt lat="45.68541" lon="5.93619">
        <ele>399.08</ele>
        <time>2014-07-26T07:51:11Z</time>
      </trkpt>
      <trkpt lat="45.68565" lon="5.93613">
        <ele>398.6</ele>
        <time>2014-07-26T07:51:16Z</time>
      </trkpt>
      <trkpt lat="45.68591" lon="5.93595">
        <ele>397.16</ele>
        <time>2014-07-26T07:51:21Z</time>
      </trkpt>
      <trkpt lat="45.68619" lon="5.93565">
        <ele>394.76</ele>
        <time>2014-07-26T07:51:26Z</time>
      </trkpt>
      <trkpt lat="45.68648" lon="5.93527">
        <ele>390.91</ele>
        <time>2014-07-26T07:51:31Z</time>
      </trkpt>
      <trkpt lat="45.68673" lon="5.93513">
        <ele>389.95</ele>
        <time>2014-07-26T07:51:36Z</time>
      </trkpt>
      <trkpt lat="45.68688" lon="5.9352">
        <ele>391.39</ele>
        <time>2014-07-26T07:51:41Z</time>
      </trkpt>
      <trkpt lat="45.68695" lon="5.9353">
        <ele>392.36</ele>
        <time>2014-07-26T07:51:46Z</time>
      </trkpt>
      <trkpt lat="45.687" lon="5.93539">
        <ele>394.28</ele>
        <time>2014-07-26T07:51:51Z</time>
      </trkpt>
      <trkpt lat="45.68706" lon="5.93545">
        <ele>396.2</ele>
        <time>2014-07-26T07:51:56Z</time>
      </trkpt>
      <trkpt lat="45.68712" lon="5.93549">
        <ele>397.16</ele>
        <time>2014-07-26T07:52:01Z</time>
      </trkpt>
      <trkpt lat="45.6872" lon="5.93548">
        <ele>398.6</ele>
        <time>2014-07-26T07:52:06Z</time>
      </trkpt>
      <trkpt lat="45.68729" lon="5.93547">
        <ele>399.57</ele>
        <time>2014-07-26T07:52:11Z</time>
      </trkpt>
      <trkpt lat="45.68737" lon="5.9355">
        <ele>401.01</ele>
        <time>2014-07-26T07:52:16Z</time>
      </trkpt>
      <trkpt lat="45.68746" lon="5.93549">
        <ele>401.49</ele>
        <time>2014-07-26T07:52:21Z</time>
      </trkpt>
      <trkpt lat="45.68757" lon="5.93549">
        <ele>402.45</ele>
        <time>2014-07-26T07:52:26Z</time>
      </trkpt>
      <trkpt lat="45.68767" lon="5.93548">
        <ele>402.93</ele>
        <time>2014-07-26T07:52:31Z</time>
      </trkpt>
      <trkpt lat="45.68777" lon="5.93551">
        <ele>404.37</ele>
        <time>2014-07-26T07:52:36Z</time>
      </trkpt>
      <trkpt lat="45.68787" lon="5.93553">
        <ele>404.37</ele>
        <time>2014-07-26T07:52:41Z</time>
      </trkpt>
      <trkpt lat="45.68796" lon="5.93552">
        <ele>404.85</ele>
        <time>2014-07-26T07:52:46Z</time>
      </trkpt>
      <trkpt lat="45.68807" lon="5.93554">
        <ele>404.85</ele>
        <time>2014-07-26T07:52:51Z</time>
      </trkpt>
      <trkpt lat="45.6882" lon="5.93563">
        <ele>404.37</ele>
        <time>2014-07-26T07:52:56Z</time>
      </trkpt>
      <trkpt lat="45.68834" lon="5.93564">
        <ele>404.85</ele>
        <time>2014-07-26T07:53:01Z</time>
      </trkpt>
      <trkpt lat="45.68847" lon="5.93565">
        <ele>403.89</ele>
        <time>2014-07-26T07:53:06Z</time>
      </trkpt>
      <trkpt lat="45.68863" lon="5.93572">
        <ele>404.85</ele>
        <time>2014-07-26T07:53:11Z</time>
      </trkpt>
      <trkpt lat="45.68884" lon="5.93582">
        <ele>405.81</ele>
        <time>2014-07-26T07:53:16Z</time>
      </trkpt>
      <trkpt lat="45.689" lon="5.93589">
        <ele>405.33</ele>
        <time>2014-07-26T07:53:21Z</time>
      </trkpt>
      <trkpt lat="45.68914" lon="5.93595">
        <ele>406.29</ele>
        <time>2014-07-26T07:53:26Z</time>
      </trkpt>
      <trkpt lat="45.68929" lon="5.93599">
        <ele>407.26</ele>
        <time>2014-07-26T07:53:31Z</time>
      </trkpt>
      <trkpt lat="45.68942" lon="5.93602">
        <ele>408.22</ele>
        <time>2014-07-26T07:53:36Z</time>
      </trkpt>
      <trkpt lat="45.68954" lon="5.93603">
        <ele>408.7</ele>
        <time>2014-07-26T07:53:41Z</time>
      </trkpt>
      <trkpt lat="45.68965" lon="5.93604">
        <ele>410.14</ele>
        <time>2014-07-26T07:53:46Z</time>
      </trkpt>
      <trkpt lat="45.68979" lon="5.93606">
        <ele>410.14</ele>
        <time>2014-07-26T07:53:51Z</time>
      </trkpt>
      <trkpt lat="45.6899" lon="5.93611">
        <ele>411.1</ele>
        <time>2014-07-26T07:53:56Z</time>
      </trkpt>
      <trkpt lat="45.69" lon="5.93621">
        <ele>411.1</ele>
        <time>2014-07-26T07:54:01Z</time>
      </trkpt>
      <trkpt lat="45.69009" lon="5.93627">
        <ele>411.1</ele>
        <time>2014-07-26T07:54:06Z</time>
      </trkpt>
      <trkpt lat="45.6902" lon="5.93629">
        <ele>411.58</ele>
        <time>2014-07-26T07:54:11Z</time>
      </trkpt>
      <trkpt lat="45.69031" lon="5.93632">
        <ele>411.1</ele>
        <time>2014-07-26T07:54:16Z</time>
      </trkpt>
      <trkpt lat="45.69043" lon="5.93634">
        <ele>411.58</ele>
        <time>2014-07-26T07:54:21Z</time>
      </trkpt>
      <trkpt lat="45.69056" lon="5.93635">
        <ele>411.58</ele>
        <time>2014-07-26T07:54:26Z</time>
      </trkpt>
      <trkpt lat="45.69068" lon="5.93639">
        <ele>411.58</ele>
        <time>2014-07-26T07:54:31Z</time>
      </trkpt>
      <trkpt lat="45.6908" lon="5.93645">
        <ele>411.58</ele>
        <time>2014-07-26T07:54:36Z</time>
      </trkpt>
      <trkpt lat="45.6909" lon="5.93653">
        <ele>411.1</ele>
        <time>2014-07-26T07:54:41Z</time>
      </trkpt>
      <trkpt lat="45.69098" lon="5.93663">
        <ele>412.06</ele>
        <time>2014-07-26T07:54:46Z</time>
      </trkpt>
      <trkpt lat="45.69107" lon="5.93675">
        <ele>411.58</ele>
        <time>2014-07-26T07:54:51Z</time>
      </trkpt>
      <trkpt lat="45.69116" lon="5.93685">
        <ele>412.06</ele>
        <time>2014-07-26T07:54:56Z</time>
      </trkpt>
      <trkpt lat="45.69128" lon="5.93692">
        <ele>412.06</ele>
        <time>2014-07-26T07:55:01Z</time>
      </trkpt>
      <trkpt lat="45.6914" lon="5.93695">
        <ele>412.06</ele>
        <time>2014-07-26T07:55:06Z</time>
      </trkpt>
      <trkpt lat="45.69152" lon="5.93698">
        <ele>411.58</ele>
        <time>2014-07-26T07:55:11Z</time>
      </trkpt>
      <trkpt lat="45.69163" lon="5.93701">
        <ele>411.58</ele>
        <time>2014-07-26T07:55:16Z</time>
      </trkpt>
      <trkpt lat="45.69171" lon="5.93706">
        <ele>412.54</ele>
        <time>2014-07-26T07:55:21Z</time>
      </trkpt>
      <trkpt lat="45.6918" lon="5.93706">
        <ele>412.06</ele>
        <time>2014-07-26T07:55:26Z</time>
      </trkpt>
      <trkpt lat="45.6919" lon="5.93705">
        <ele>412.54</ele>
        <time>2014-07-26T07:55:31Z</time>
      </trkpt>
      <trkpt lat="45.69199" lon="5.93706">
        <ele>412.54</ele>
        <time>2014-07-26T07:55:36Z</time>
      </trkpt>
      <trkpt lat="45.69208" lon="5.93707">
        <ele>412.54</ele>
        <time>2014-07-26T07:55:41Z</time>
      </trkpt>
      <trkpt lat="45.69215" lon="5.93707">
        <ele>412.06</ele>
        <time>2014-07-26T07:55:46Z</time>
      </trkpt>
      <trkpt lat="45.69223" lon="5.93708">
        <ele>412.06</ele>
        <time>2014-07-26T07:55:51Z</time>
      </trkpt>
      <trkpt lat="45.69234" lon="5.93706">
        <ele>412.06</ele>
        <time>2014-07-26T07:55:56Z</time>
      </trkpt>
      <trkpt lat="45.69246" lon="5.93704">
        <ele>411.58</ele>
        <time>2014-07-26T07:56:01Z</time>
      </trkpt>
      <trkpt lat="45.69258" lon="5.93704">
        <ele>411.58</ele>
        <time>2014-07-26T07:56:06Z</time>
      </trkpt>
      <trkpt lat="45.6927" lon="5.93703">
        <ele>410.62</ele>
        <time>2014-07-26T07:56:11Z</time>
      </trkpt>
      <trkpt lat="45.69281" lon="5.93705">
        <ele>411.1</ele>
        <time>2014-07-26T07:56:16Z</time>
      </trkpt>
      <trkpt lat="45.69291" lon="5.93708">
        <ele>411.1</ele>
        <time>2014-07-26T07:56:21Z</time>
      </trkpt>
      <trkpt lat="45.69302" lon="5.93708">
        <ele>411.58</ele>
        <time>2014-07-26T07:56:26Z</time>
      </trkpt>
      <trkpt lat="45.69311" lon="5.93711">
        <ele>412.06</ele>
        <time>2014-07-26T07:56:31Z</time>
      </trkpt>
      <trkpt lat="45.69321" lon="5.93715">
        <ele>412.06</ele>
        <time>2014-07-26T07:56:36Z</time>
      </trkpt>
      <trkpt lat="45.69331" lon="5.93718">
        <ele>412.06</ele>
        <time>2014-07-26T07:56:41Z</time>
      </trkpt>
      <trkpt lat="45.69342" lon="5.9372">
        <ele>413.02</ele>
        <time>2014-07-26T07:56:46Z</time>
      </trkpt>
      <trkpt lat="45.69354" lon="5.93722">
        <ele>413.02</ele>
        <time>2014-07-26T07:56:51Z</time>
      </trkpt>
      <trkpt lat="45.69367" lon="5.93725">
        <ele>413.02</ele>
        <time>2014-07-26T07:56:56Z</time>
      </trkpt>
      <trkpt lat="45.69381" lon="5.93721">
        <ele>413.5</ele>
        <time>2014-07-26T07:57:01Z</time>
      </trkpt>
      <trkpt lat="45.69395" lon="5.93716">
        <ele>413.5</ele>
        <time>2014-07-26T07:57:06Z</time>
      </trkpt>
      <trkpt lat="45.6941" lon="5.93708">
        <ele>412.06</ele>
        <time>2014-07-26T07:57:11Z</time>
      </trkpt>
      <trkpt lat="45.6942" lon="5.93695">
        <ele>411.1</ele>
        <time>2014-07-26T07:57:16Z</time>
      </trkpt>
      <trkpt lat="45.6942" lon="5.93678">
        <ele>410.62</ele>
        <time>2014-07-26T07:57:21Z</time>
      </trkpt>
      <trkpt lat="45.69424" lon="5.93654">
        <ele>410.62</ele>
        <time>2014-07-26T07:57:26Z</time>
      </trkpt>
      <trkpt lat="45.69425" lon="5.93636">
        <ele>409.66</ele>
        <time>2014-07-26T07:57:31Z</time>
      </trkpt>
      <trkpt lat="45.69424" lon="5.93615">
        <ele>409.66</ele>
        <time>2014-07-26T07:57:36Z</time>
      </trkpt>
      <trkpt lat="45.69423" lon="5.93596">
        <ele>409.66</ele>
        <time>2014-07-26T07:57:41Z</time>
      </trkpt>
      <trkpt lat="45.69421" lon="5.93576">
        <ele>409.18</ele>
        <time>2014-07-26T07:57:46Z</time>
      </trkpt>
      <trkpt lat="45.69432" lon="5.93556">
        <ele>410.14</ele>
        <time>2014-07-26T07:57:51Z</time>
      </trkpt>
      <trkpt lat="45.6945" lon="5.93544">
        <ele>410.62</ele>
        <time>2014-07-26T07:57:56Z</time>
      </trkpt>
      <trkpt lat="45.69464" lon="5.93538">
        <ele>411.1</ele>
        <time>2014-07-26T07:58:01Z</time>
      </trkpt>
      <trkpt lat="45.69481" lon="5.93533">
        <ele>412.06</ele>
        <time>2014-07-26T07:58:06Z</time>
      </trkpt>
      <trkpt lat="45.69497" lon="5.93531">
        <ele>412.06</ele>
        <time>2014-07-26T07:58:11Z</time>
      </trkpt>
      <trkpt lat="45.69515" lon="5.9353">
        <ele>412.54</ele>
        <time>2014-07-26T07:58:16Z</time>
      </trkpt>
      <trkpt lat="45.69527" lon="5.93528">
        <ele>412.54</ele>
        <time>2014-07-26T07:58:21Z</time>
      </trkpt>
      <trkpt lat="45.69542" lon="5.93527">
        <ele>412.06</ele>
        <time>2014-07-26T07:58:26Z</time>
      </trkpt>
      <trkpt lat="45.69561" lon="5.93526">
        <ele>411.1</ele>
        <time>2014-07-26T07:58:31Z</time>
      </trkpt>
      <trkpt lat="45.69583" lon="5.93525">
        <ele>411.1</ele>
        <time>2014-07-26T07:58:36Z</time>
      </trkpt>
      <trkpt lat="45.69602" lon="5.93526">
        <ele>410.14</ele>
        <time>2014-07-26T07:58:41Z</time>
      </trkpt>
      <trkpt lat="45.69619" lon="5.93526">
        <ele>409.18</ele>
        <time>2014-07-26T07:58:46Z</time>
      </trkpt>
      <trkpt lat="45.69631" lon="5.93521">
        <ele>408.7</ele>
        <time>2014-07-26T07:58:51Z</time>
      </trkpt>
      <trkpt lat="45.69639" lon="5.93517">
        <ele>408.22</ele>
        <time>2014-07-26T07:58:56Z</time>
      </trkpt>
      <trkpt lat="45.69644" lon="5.93515">
        <ele>407.74</ele>
        <time>2014-07-26T07:59:01Z</time>
      </trkpt>
      <trkpt lat="45.69659" lon="5.93507">
        <ele>406.77</ele>
        <time>2014-07-26T07:59:06Z</time>
      </trkpt>
      <trkpt lat="45.69684" lon="5.93505">
        <ele>405.33</ele>
        <time>2014-07-26T07:59:11Z</time>
      </trkpt>
      <trkpt lat="45.69707" lon="5.93494">
        <ele>403.89</ele>
        <time>2014-07-26T07:59:16Z</time>
      </trkpt>
      <trkpt lat="45.69714" lon="5.93503">
        <ele>404.37</ele>
        <time>2014-07-26T07:59:21Z</time>
      </trkpt>
      <trkpt lat="45.69718" lon="5.93517">
        <ele>405.81</ele>
        <time>2014-07-26T07:59:26Z</time>
      </trkpt>
      <trkpt lat="45.69717" lon="5.93519">
        <ele>405.81</ele>
        <time>2014-07-26T07:59:31Z</time>
      </trkpt>
      <trkpt lat="45.69718" lon="5.93519">
        <ele>406.29</ele>
        <time>2014-07-26T07:59:36Z</time>
      </trkpt>
      <trkpt lat="45.69719" lon="5.93521">
        <ele>406.29</ele>
        <time>2014-07-26T07:59:41Z</time>
      </trkpt>
      <trkpt lat="45.69719" lon="5.93521">
        <ele>406.77</ele>
        <time>2014-07-26T07:59:46Z</time>
      </trkpt>
      <trkpt lat="45.69721" lon="5.93526">
        <ele>406.77</ele>
        <time>2014-07-26T07:59:51Z</time>
      </trkpt>
      <trkpt lat="45.69722" lon="5.93528">
        <ele>406.77</ele>
        <time>2014-07-26T07:59:56Z</time>
      </trkpt>
      <trkpt lat="45.69725" lon="5.93536">
        <ele>408.22</ele>
        <time>2014-07-26T08:00:01Z</time>
      </trkpt>
      <trkpt lat="45.69729" lon="5.93549">
        <ele>408.7</ele>
        <time>2014-07-26T08:00:06Z</time>
      </trkpt>
      <trkpt lat="45.69732" lon="5.93564">
        <ele>409.66</ele>
        <time>2014-07-26T08:00:11Z</time>
      </trkpt>
      <trkpt lat="45.6973" lon="5.93581">
        <ele>409.66</ele>
        <time>2014-07-26T08:00:16Z</time>
      </trkpt>
      <trkpt lat="45.69727" lon="5.936">
        <ele>411.58</ele>
        <time>2014-07-26T08:00:21Z</time>
      </trkpt>
      <trkpt lat="45.69725" lon="5.93617">
        <ele>412.54</ele>
        <time>2014-07-26T08:00:26Z</time>
      </trkpt>
      <trkpt lat="45.69724" lon="5.93629">
        <ele>413.98</ele>
        <time>2014-07-26T08:00:31Z</time>
      </trkpt>
      <trkpt lat="45.69724" lon="5.93644">
        <ele>414.95</ele>
        <time>2014-07-26T08:00:36Z</time>
      </trkpt>
      <trkpt lat="45.69725" lon="5.93657">
        <ele>415.43</ele>
        <time>2014-07-26T08:00:41Z</time>
      </trkpt>
      <trkpt lat="45.69723" lon="5.93672">
        <ele>415.91</ele>
        <time>2014-07-26T08:00:46Z</time>
      </trkpt>
      <trkpt lat="45.6972" lon="5.93686">
        <ele>416.39</ele>
        <time>2014-07-26T08:00:51Z</time>
      </trkpt>
      <trkpt lat="45.69719" lon="5.93698">
        <ele>417.35</ele>
        <time>2014-07-26T08:00:56Z</time>
      </trkpt>
      <trkpt lat="45.69718" lon="5.93709">
        <ele>417.35</ele>
        <time>2014-07-26T08:01:01Z</time>
      </trkpt>
      <trkpt lat="45.69719" lon="5.93723">
        <ele>417.35</ele>
        <time>2014-07-26T08:01:06Z</time>
      </trkpt>
      <trkpt lat="45.69722" lon="5.93735">
        <ele>417.35</ele>
        <time>2014-07-26T08:01:11Z</time>
      </trkpt>
      <trkpt lat="45.69724" lon="5.93747">
        <ele>417.83</ele>
        <time>2014-07-26T08:01:16Z</time>
      </trkpt>
      <trkpt lat="45.69729" lon="5.93761">
        <ele>417.83</ele>
        <time>2014-07-26T08:01:21Z</time>
      </trkpt>
      <trkpt lat="45.69735" lon="5.9377">
        <ele>417.35</ele>
        <time>2014-07-26T08:01:26Z</time>
      </trkpt>
      <trkpt lat="45.69746" lon="5.93774">
        <ele>418.31</ele>
        <time>2014-07-26T08:01:31Z</time>
      </trkpt>
      <trkpt lat="45.69755" lon="5.93769">
        <ele>418.79</ele>
        <time>2014-07-26T08:01:36Z</time>
      </trkpt>
      <trkpt lat="45.69764" lon="5.93764">
        <ele>418.79</ele>
        <time>2014-07-26T08:01:41Z</time>
      </trkpt>
      <trkpt lat="45.69774" lon="5.93763">
        <ele>420.23</ele>
        <time>2014-07-26T08:01:46Z</time>
      </trkpt>
      <trkpt lat="45.6978" lon="5.93761">
        <ele>421.19</ele>
        <time>2014-07-26T08:01:51Z</time>
      </trkpt>
      <trkpt lat="45.69791" lon="5.9376">
        <ele>421.68</ele>
        <time>2014-07-26T08:01:56Z</time>
      </trkpt>
      <trkpt lat="45.69807" lon="5.9376">
        <ele>422.64</ele>
        <time>2014-07-26T08:02:01Z</time>
      </trkpt>
      <trkpt lat="45.69818" lon="5.93764">
        <ele>422.64</ele>
        <time>2014-07-26T08:02:06Z</time>
      </trkpt>
      <trkpt lat="45.69818" lon="5.93764">
        <ele>423.12</ele>
        <time>2014-07-26T08:02:11Z</time>
      </trkpt>
      <trkpt lat="45.69822" lon="5.93764">
        <ele>423.6</ele>
        <time>2014-07-26T08:02:16Z</time>
      </trkpt>
      <trkpt lat="45.69831" lon="5.93764">
        <ele>424.08</ele>
        <time>2014-07-26T08:02:21Z</time>
      </trkpt>
      <trkpt lat="45.69839" lon="5.93767">
        <ele>424.56</ele>
        <time>2014-07-26T08:02:26Z</time>
      </trkpt>
      <trkpt lat="45.69848" lon="5.9377">
        <ele>425.52</ele>
        <time>2014-07-26T08:02:31Z</time>
      </trkpt>
      <trkpt lat="45.69853" lon="5.93773">
        <ele>426</ele>
        <time>2014-07-26T08:02:36Z</time>
      </trkpt>
      <trkpt lat="45.69862" lon="5.93778">
        <ele>426.96</ele>
        <time>2014-07-26T08:02:41Z</time>
      </trkpt>
      <trkpt lat="45.69871" lon="5.9378">
        <ele>428.89</ele>
        <time>2014-07-26T08:02:46Z</time>
      </trkpt>
      <trkpt lat="45.69878" lon="5.93784">
        <ele>429.37</ele>
        <time>2014-07-26T08:02:51Z</time>
      </trkpt>
      <trkpt lat="45.69885" lon="5.93788">
        <ele>429.85</ele>
        <time>2014-07-26T08:02:56Z</time>
      </trkpt>
      <trkpt lat="45.69889" lon="5.93792">
        <ele>431.29</ele>
        <time>2014-07-26T08:03:01Z</time>
      </trkpt>
      <trkpt lat="45.69896" lon="5.93801">
        <ele>432.25</ele>
        <time>2014-07-26T08:03:06Z</time>
      </trkpt>
      <trkpt lat="45.69902" lon="5.93808">
        <ele>432.73</ele>
        <time>2014-07-26T08:03:11Z</time>
      </trkpt>
      <trkpt lat="45.69907" lon="5.93819">
        <ele>433.69</ele>
        <time>2014-07-26T08:03:16Z</time>
      </trkpt>
      <trkpt lat="45.69909" lon="5.93829">
        <ele>434.65</ele>
        <time>2014-07-26T08:03:21Z</time>
      </trkpt>
      <trkpt lat="45.6991" lon="5.93839">
        <ele>435.61</ele>
        <time>2014-07-26T08:03:26Z</time>
      </trkpt>
      <trkpt lat="45.69912" lon="5.93851">
        <ele>436.1</ele>
        <time>2014-07-26T08:03:31Z</time>
      </trkpt>
      <trkpt lat="45.69912" lon="5.93861">
        <ele>436.58</ele>
        <time>2014-07-26T08:03:36Z</time>
      </trkpt>
      <trkpt lat="45.6991" lon="5.93869">
        <ele>438.02</ele>
        <time>2014-07-26T08:03:41Z</time>
      </trkpt>
      <trkpt lat="45.69911" lon="5.93877">
        <ele>438.5</ele>
        <time>2014-07-26T08:03:46Z</time>
      </trkpt>
      <trkpt lat="45.69914" lon="5.93888">
        <ele>439.46</ele>
        <time>2014-07-26T08:03:51Z</time>
      </trkpt>
      <trkpt lat="45.69915" lon="5.939">
        <ele>439.94</ele>
        <time>2014-07-26T08:03:56Z</time>
      </trkpt>
      <trkpt lat="45.69913" lon="5.93909">
        <ele>440.9</ele>
        <time>2014-07-26T08:04:01Z</time>
      </trkpt>
      <trkpt lat="45.69912" lon="5.93922">
        <ele>441.86</ele>
        <time>2014-07-26T08:04:06Z</time>
      </trkpt>
      <trkpt lat="45.6991" lon="5.93931">
        <ele>442.82</ele>
        <time>2014-07-26T08:04:11Z</time>
      </trkpt>
      <trkpt lat="45.69908" lon="5.93941">
        <ele>443.31</ele>
        <time>2014-07-26T08:04:16Z</time>
      </trkpt>
      <trkpt lat="45.69908" lon="5.93952">
        <ele>444.27</ele>
        <time>2014-07-26T08:04:21Z</time>
      </trkpt>
      <trkpt lat="45.69908" lon="5.93962">
        <ele>445.23</ele>
        <time>2014-07-26T08:04:26Z</time>
      </trkpt>
      <trkpt lat="45.69907" lon="5.93973">
        <ele>445.71</ele>
        <time>2014-07-26T08:04:31Z</time>
      </trkpt>
      <trkpt lat="45.69905" lon="5.93983">
        <ele>446.67</ele>
        <time>2014-07-26T08:04:36Z</time>
      </trkpt>
      <trkpt lat="45.69904" lon="5.93991">
        <ele>447.63</ele>
        <time>2014-07-26T08:04:41Z</time>
      </trkpt>
      <trkpt lat="45.69903" lon="5.93999">
        <ele>448.11</ele>
        <time>2014-07-26T08:04:46Z</time>
      </trkpt>
      <trkpt lat="45.69907" lon="5.94008">
        <ele>449.07</ele>
        <time>2014-07-26T08:04:51Z</time>
      </trkpt>
      <trkpt lat="45.6991" lon="5.94017">
        <ele>449.55</ele>
        <time>2014-07-26T08:04:56Z</time>
      </trkpt>
      <trkpt lat="45.69912" lon="5.94027">
        <ele>451</ele>
        <time>2014-07-26T08:05:01Z</time>
      </trkpt>
      <trkpt lat="45.69914" lon="5.94037">
        <ele>451.96</ele>
        <time>2014-07-26T08:05:06Z</time>
      </trkpt>
      <trkpt lat="45.69916" lon="5.94047">
        <ele>452.92</ele>
        <time>2014-07-26T08:05:11Z</time>
      </trkpt>
      <trkpt lat="45.69917" lon="5.94059">
        <ele>454.36</ele>
        <time>2014-07-26T08:05:16Z</time>
      </trkpt>
      <trkpt lat="45.69918" lon="5.94071">
        <ele>455.32</ele>
        <time>2014-07-26T08:05:21Z</time>
      </trkpt>
      <trkpt lat="45.69919" lon="5.94082">
        <ele>456.28</ele>
        <time>2014-07-26T08:05:26Z</time>
      </trkpt>
      <trkpt lat="45.69919" lon="5.94091">
        <ele>457.72</ele>
        <time>2014-07-26T08:05:31Z</time>
      </trkpt>
      <trkpt lat="45.69917" lon="5.94101">
        <ele>457.72</ele>
        <time>2014-07-26T08:05:36Z</time>
      </trkpt>
      <trkpt lat="45.69917" lon="5.9411">
        <ele>459.17</ele>
        <time>2014-07-26T08:05:41Z</time>
      </trkpt>
      <trkpt lat="45.69924" lon="5.94112">
        <ele>459.65</ele>
        <time>2014-07-26T08:05:46Z</time>
      </trkpt>
      <trkpt lat="45.69932" lon="5.94114">
        <ele>460.13</ele>
        <time>2014-07-26T08:05:51Z</time>
      </trkpt>
      <trkpt lat="45.69941" lon="5.94119">
        <ele>460.13</ele>
        <time>2014-07-26T08:05:56Z</time>
      </trkpt>
      <trkpt lat="45.69949" lon="5.94126">
        <ele>460.13</ele>
        <time>2014-07-26T08:06:01Z</time>
      </trkpt>
      <trkpt lat="45.69958" lon="5.94134">
        <ele>460.13</ele>
        <time>2014-07-26T08:06:06Z</time>
      </trkpt>
      <trkpt lat="45.69973" lon="5.94141">
        <ele>460.61</ele>
        <time>2014-07-26T08:06:11Z</time>
      </trkpt>
      <trkpt lat="45.69989" lon="5.94143">
        <ele>460.61</ele>
        <time>2014-07-26T08:06:16Z</time>
      </trkpt>
      <trkpt lat="45.70008" lon="5.94145">
        <ele>459.65</ele>
        <time>2014-07-26T08:06:21Z</time>
      </trkpt>
      <trkpt lat="45.70028" lon="5.94149">
        <ele>460.13</ele>
        <time>2014-07-26T08:06:26Z</time>
      </trkpt>
      <trkpt lat="45.70048" lon="5.94152">
        <ele>458.69</ele>
        <time>2014-07-26T08:06:31Z</time>
      </trkpt>
      <trkpt lat="45.70069" lon="5.94156">
        <ele>458.69</ele>
        <time>2014-07-26T08:06:36Z</time>
      </trkpt>
      <trkpt lat="45.7009" lon="5.94161">
        <ele>457.24</ele>
        <time>2014-07-26T08:06:41Z</time>
      </trkpt>
      <trkpt lat="45.7011" lon="5.94168">
        <ele>457.24</ele>
        <time>2014-07-26T08:06:46Z</time>
      </trkpt>
      <trkpt lat="45.7013" lon="5.94172">
        <ele>456.28</ele>
        <time>2014-07-26T08:06:51Z</time>
      </trkpt>
      <trkpt lat="45.70152" lon="5.94177">
        <ele>456.28</ele>
        <time>2014-07-26T08:06:56Z</time>
      </trkpt>
      <trkpt lat="45.70174" lon="5.94185">
        <ele>456.28</ele>
        <time>2014-07-26T08:07:01Z</time>
      </trkpt>
      <trkpt lat="45.70195" lon="5.94191">
        <ele>455.8</ele>
        <time>2014-07-26T08:07:06Z</time>
      </trkpt>
      <trkpt lat="45.70215" lon="5.94196">
        <ele>455.8</ele>
        <time>2014-07-26T08:07:11Z</time>
      </trkpt>
      <trkpt lat="45.70233" lon="5.94198">
        <ele>455.32</ele>
        <time>2014-07-26T08:07:16Z</time>
      </trkpt>
      <trkpt lat="45.70253" lon="5.94202">
        <ele>454.36</ele>
        <time>2014-07-26T08:07:21Z</time>
      </trkpt>
      <trkpt lat="45.70265" lon="5.94224">
        <ele>451.96</ele>
        <time>2014-07-26T08:07:26Z</time>
      </trkpt>
      <trkpt lat="45.70266" lon="5.94249">
        <ele>449.07</ele>
        <time>2014-07-26T08:07:31Z</time>
      </trkpt>
      <trkpt lat="45.70267" lon="5.94265">
        <ele>447.63</ele>
        <time>2014-07-26T08:07:36Z</time>
      </trkpt>
      <trkpt lat="45.7027" lon="5.94274">
        <ele>446.67</ele>
        <time>2014-07-26T08:07:41Z</time>
      </trkpt>
      <trkpt lat="45.7027" lon="5.94274">
        <ele>446.67</ele>
        <time>2014-07-26T08:07:46Z</time>
      </trkpt>
      <trkpt lat="45.7027" lon="5.94274">
        <ele>447.15</ele>
        <time>2014-07-26T08:07:51Z</time>
      </trkpt>
      <trkpt lat="45.7027" lon="5.94274">
        <ele>447.15</ele>
        <time>2014-07-26T08:07:56Z</time>
      </trkpt>
      <trkpt lat="45.7027" lon="5.94274">
        <ele>447.63</ele>
        <time>2014-07-26T08:08:01Z</time>
      </trkpt>
      <trkpt lat="45.7027" lon="5.94274">
        <ele>447.15</ele>
        <time>2014-07-26T08:08:06Z</time>
      </trkpt>
      <trkpt lat="45.7027" lon="5.94274">
        <ele>447.15</ele>
        <time>2014-07-26T08:08:11Z</time>
      </trkpt>
      <trkpt lat="45.7027" lon="5.94274">
        <ele>447.63</ele>
        <time>2014-07-26T08:08:16Z</time>
      </trkpt>
      <trkpt lat="45.70269" lon="5.94275">
        <ele>448.11</ele>
        <time>2014-07-26T08:08:21Z</time>
      </trkpt>
      <trkpt lat="45.70269" lon="5.9427">
        <ele>448.59</ele>
        <time>2014-07-26T08:08:26Z</time>
      </trkpt>
      <trkpt lat="45.70274" lon="5.94262">
        <ele>448.11</ele>
        <time>2014-07-26T08:08:31Z</time>
      </trkpt>
      <trkpt lat="45.70281" lon="5.94252">
        <ele>449.07</ele>
        <time>2014-07-26T08:08:36Z</time>
      </trkpt>
      <trkpt lat="45.70289" lon="5.94236">
        <ele>448.59</ele>
        <time>2014-07-26T08:08:41Z</time>
      </trkpt>
      <trkpt lat="45.70291" lon="5.94226">
        <ele>450.03</ele>
        <time>2014-07-26T08:08:46Z</time>
      </trkpt>
      <trkpt lat="45.70293" lon="5.94211">
        <ele>451</ele>
        <time>2014-07-26T08:08:51Z</time>
      </trkpt>
      <trkpt lat="45.70302" lon="5.94198">
        <ele>451.96</ele>
        <time>2014-07-26T08:08:56Z</time>
      </trkpt>
      <trkpt lat="45.70312" lon="5.94189">
        <ele>452.44</ele>
        <time>2014-07-26T08:09:01Z</time>
      </trkpt>
      <trkpt lat="45.70326" lon="5.94185">
        <ele>451.96</ele>
        <time>2014-07-26T08:09:06Z</time>
      </trkpt>
      <trkpt lat="45.70342" lon="5.94186">
        <ele>452.92</ele>
        <time>2014-07-26T08:09:11Z</time>
      </trkpt>
      <trkpt lat="45.7036" lon="5.94188">
        <ele>453.88</ele>
        <time>2014-07-26T08:09:16Z</time>
      </trkpt>
      <trkpt lat="45.70377" lon="5.94192">
        <ele>454.84</ele>
        <time>2014-07-26T08:09:21Z</time>
      </trkpt>
      <trkpt lat="45.70397" lon="5.94189">
        <ele>455.32</ele>
        <time>2014-07-26T08:09:26Z</time>
      </trkpt>
      <trkpt lat="45.70419" lon="5.94178">
        <ele>455.8</ele>
        <time>2014-07-26T08:09:31Z</time>
      </trkpt>
      <trkpt lat="45.70436" lon="5.94177">
        <ele>456.76</ele>
        <time>2014-07-26T08:09:36Z</time>
      </trkpt>
      <trkpt lat="45.70452" lon="5.94177">
        <ele>456.76</ele>
        <time>2014-07-26T08:09:41Z</time>
      </trkpt>
      <trkpt lat="45.7047" lon="5.94172">
        <ele>457.24</ele>
        <time>2014-07-26T08:09:46Z</time>
      </trkpt>
      <trkpt lat="45.70494" lon="5.94166">
        <ele>457.72</ele>
        <time>2014-07-26T08:09:51Z</time>
      </trkpt>
      <trkpt lat="45.70515" lon="5.94161">
        <ele>457.72</ele>
        <time>2014-07-26T08:09:56Z</time>
      </trkpt>
      <trkpt lat="45.70536" lon="5.94157">
        <ele>458.21</ele>
        <time>2014-07-26T08:10:01Z</time>
      </trkpt>
      <trkpt lat="45.70557" lon="5.9415">
        <ele>458.21</ele>
        <time>2014-07-26T08:10:06Z</time>
      </trkpt>
      <trkpt lat="45.70576" lon="5.94143">
        <ele>459.17</ele>
        <time>2014-07-26T08:10:11Z</time>
      </trkpt>
      <trkpt lat="45.70596" lon="5.94139">
        <ele>460.61</ele>
        <time>2014-07-26T08:10:16Z</time>
      </trkpt>
      <trkpt lat="45.70614" lon="5.94138">
        <ele>460.61</ele>
        <time>2014-07-26T08:10:21Z</time>
      </trkpt>
      <trkpt lat="45.70633" lon="5.94137">
        <ele>461.09</ele>
        <time>2014-07-26T08:10:26Z</time>
      </trkpt>
      <trkpt lat="45.70651" lon="5.94137">
        <ele>460.61</ele>
        <time>2014-07-26T08:10:31Z</time>
      </trkpt>
      <trkpt lat="45.70668" lon="5.94137">
        <ele>461.09</ele>
        <time>2014-07-26T08:10:36Z</time>
      </trkpt>
      <trkpt lat="45.70686" lon="5.94135">
        <ele>461.57</ele>
        <time>2014-07-26T08:10:41Z</time>
      </trkpt>
      <trkpt lat="45.70703" lon="5.94134">
        <ele>462.05</ele>
        <time>2014-07-26T08:10:46Z</time>
      </trkpt>
      <trkpt lat="45.7072" lon="5.94131">
        <ele>462.53</ele>
        <time>2014-07-26T08:10:51Z</time>
      </trkpt>
      <trkpt lat="45.70739" lon="5.94129">
        <ele>462.53</ele>
        <time>2014-07-26T08:10:56Z</time>
      </trkpt>
      <trkpt lat="45.70756" lon="5.9412">
        <ele>462.05</ele>
        <time>2014-07-26T08:11:01Z</time>
      </trkpt>
      <trkpt lat="45.70772" lon="5.94109">
        <ele>461.57</ele>
        <time>2014-07-26T08:11:06Z</time>
      </trkpt>
      <trkpt lat="45.70789" lon="5.941">
        <ele>461.57</ele>
        <time>2014-07-26T08:11:11Z</time>
      </trkpt>
      <trkpt lat="45.70807" lon="5.94098">
        <ele>460.13</ele>
        <time>2014-07-26T08:11:16Z</time>
      </trkpt>
      <trkpt lat="45.70815" lon="5.94087">
        <ele>459.17</ele>
        <time>2014-07-26T08:11:21Z</time>
      </trkpt>
      <trkpt lat="45.70818" lon="5.94062">
        <ele>458.21</ele>
        <time>2014-07-26T08:11:26Z</time>
      </trkpt>
      <trkpt lat="45.70833" lon="5.94049">
        <ele>458.69</ele>
        <time>2014-07-26T08:11:31Z</time>
      </trkpt>
      <trkpt lat="45.70855" lon="5.94044">
        <ele>457.72</ele>
        <time>2014-07-26T08:11:36Z</time>
      </trkpt>
      <trkpt lat="45.70878" lon="5.94041">
        <ele>457.24</ele>
        <time>2014-07-26T08:11:41Z</time>
      </trkpt>
      <trkpt lat="45.70899" lon="5.94038">
        <ele>457.72</ele>
        <time>2014-07-26T08:11:46Z</time>
      </trkpt>
      <trkpt lat="45.70919" lon="5.94036">
        <ele>458.21</ele>
        <time>2014-07-26T08:11:51Z</time>
      </trkpt>
      <trkpt lat="45.70936" lon="5.94031">
        <ele>458.21</ele>
        <time>2014-07-26T08:11:56Z</time>
      </trkpt>
      <trkpt lat="45.70951" lon="5.94026">
        <ele>460.13</ele>
        <time>2014-07-26T08:12:01Z</time>
      </trkpt>
      <trkpt lat="45.70961" lon="5.94009">
        <ele>460.61</ele>
        <time>2014-07-26T08:12:06Z</time>
      </trkpt>
      <trkpt lat="45.70972" lon="5.93989">
        <ele>461.09</ele>
        <time>2014-07-26T08:12:11Z</time>
      </trkpt>
      <trkpt lat="45.70987" lon="5.93972">
        <ele>459.65</ele>
        <time>2014-07-26T08:12:16Z</time>
      </trkpt>
      <trkpt lat="45.71005" lon="5.93958">
        <ele>459.65</ele>
        <time>2014-07-26T08:12:21Z</time>
      </trkpt>
      <trkpt lat="45.71023" lon="5.93965">
        <ele>459.65</ele>
        <time>2014-07-26T08:12:26Z</time>
      </trkpt>
      <trkpt lat="45.71031" lon="5.93978">
        <ele>461.09</ele>
        <time>2014-07-26T08:12:31Z</time>
      </trkpt>
      <trkpt lat="45.71032" lon="5.93993">
        <ele>461.57</ele>
        <time>2014-07-26T08:12:36Z</time>
      </trkpt>
      <trkpt lat="45.71034" lon="5.94009">
        <ele>463.01</ele>
        <time>2014-07-26T08:12:41Z</time>
      </trkpt>
      <trkpt lat="45.71034" lon="5.94027">
        <ele>463.49</ele>
        <time>2014-07-26T08:12:46Z</time>
      </trkpt>
      <trkpt lat="45.71032" lon="5.94044">
        <ele>463.97</ele>
        <time>2014-07-26T08:12:51Z</time>
      </trkpt>
      <trkpt lat="45.71031" lon="5.94062">
        <ele>464.93</ele>
        <time>2014-07-26T08:12:56Z</time>
      </trkpt>
      <trkpt lat="45.71029" lon="5.94079">
        <ele>465.42</ele>
        <time>2014-07-26T08:13:01Z</time>
      </trkpt>
      <trkpt lat="45.71026" lon="5.94094">
        <ele>466.38</ele>
        <time>2014-07-26T08:13:06Z</time>
      </trkpt>
      <trkpt lat="45.71025" lon="5.9411">
        <ele>467.34</ele>
        <time>2014-07-26T08:13:11Z</time>
      </trkpt>
      <trkpt lat="45.71024" lon="5.94124">
        <ele>467.82</ele>
        <time>2014-07-26T08:13:16Z</time>
      </trkpt>
      <trkpt lat="45.71023" lon="5.94141">
        <ele>468.3</ele>
        <time>2014-07-26T08:13:21Z</time>
      </trkpt>
      <trkpt lat="45.71022" lon="5.94158">
        <ele>468.78</ele>
        <time>2014-07-26T08:13:26Z</time>
      </trkpt>
      <trkpt lat="45.71022" lon="5.94175">
        <ele>469.26</ele>
        <time>2014-07-26T08:13:31Z</time>
      </trkpt>
      <trkpt lat="45.7102" lon="5.9419">
        <ele>470.22</ele>
        <time>2014-07-26T08:13:36Z</time>
      </trkpt>
      <trkpt lat="45.7102" lon="5.94206">
        <ele>471.66</ele>
        <time>2014-07-26T08:13:41Z</time>
      </trkpt>
      <trkpt lat="45.71019" lon="5.94222">
        <ele>472.14</ele>
        <time>2014-07-26T08:13:46Z</time>
      </trkpt>
      <trkpt lat="45.71018" lon="5.94237">
        <ele>472.63</ele>
        <time>2014-07-26T08:13:51Z</time>
      </trkpt>
      <trkpt lat="45.71017" lon="5.94252">
        <ele>473.59</ele>
        <time>2014-07-26T08:13:56Z</time>
      </trkpt>
      <trkpt lat="45.71017" lon="5.94266">
        <ele>474.55</ele>
        <time>2014-07-26T08:14:01Z</time>
      </trkpt>
      <trkpt lat="45.71016" lon="5.94277">
        <ele>475.51</ele>
        <time>2014-07-26T08:14:06Z</time>
      </trkpt>
      <trkpt lat="45.71012" lon="5.94286">
        <ele>476.95</ele>
        <time>2014-07-26T08:14:11Z</time>
      </trkpt>
      <trkpt lat="45.71005" lon="5.94288">
        <ele>478.39</ele>
        <time>2014-07-26T08:14:16Z</time>
      </trkpt>
      <trkpt lat="45.70999" lon="5.94289">
        <ele>479.35</ele>
        <time>2014-07-26T08:14:21Z</time>
      </trkpt>
      <trkpt lat="45.70992" lon="5.94289">
        <ele>480.32</ele>
        <time>2014-07-26T08:14:26Z</time>
      </trkpt>
      <trkpt lat="45.70986" lon="5.9429">
        <ele>480.8</ele>
        <time>2014-07-26T08:14:31Z</time>
      </trkpt>
      <trkpt lat="45.70979" lon="5.94295">
        <ele>482.24</ele>
        <time>2014-07-26T08:14:36Z</time>
      </trkpt>
      <trkpt lat="45.70972" lon="5.94301">
        <ele>483.2</ele>
        <time>2014-07-26T08:14:41Z</time>
      </trkpt>
      <trkpt lat="45.70966" lon="5.94309">
        <ele>484.16</ele>
        <time>2014-07-26T08:14:46Z</time>
      </trkpt>
      <trkpt lat="45.70967" lon="5.94316">
        <ele>485.6</ele>
        <time>2014-07-26T08:14:51Z</time>
      </trkpt>
      <trkpt lat="45.7097" lon="5.94318">
        <ele>486.08</ele>
        <time>2014-07-26T08:14:56Z</time>
      </trkpt>
      <trkpt lat="45.70973" lon="5.94317">
        <ele>486.56</ele>
        <time>2014-07-26T08:15:01Z</time>
      </trkpt>
      <trkpt lat="45.70977" lon="5.94316">
        <ele>487.05</ele>
        <time>2014-07-26T08:15:06Z</time>
      </trkpt>
      <trkpt lat="45.7098" lon="5.94316">
        <ele>487.53</ele>
        <time>2014-07-26T08:15:11Z</time>
      </trkpt>
      <trkpt lat="45.70985" lon="5.94315">
        <ele>488.01</ele>
        <time>2014-07-26T08:15:16Z</time>
      </trkpt>
      <trkpt lat="45.70988" lon="5.94315">
        <ele>487.53</ele>
        <time>2014-07-26T08:15:21Z</time>
      </trkpt>
      <trkpt lat="45.70995" lon="5.94315">
        <ele>488.49</ele>
        <time>2014-07-26T08:15:26Z</time>
      </trkpt>
      <trkpt lat="45.71003" lon="5.94316">
        <ele>488.97</ele>
        <time>2014-07-26T08:15:31Z</time>
      </trkpt>
      <trkpt lat="45.71013" lon="5.94318">
        <ele>489.45</ele>
        <time>2014-07-26T08:15:36Z</time>
      </trkpt>
      <trkpt lat="45.71021" lon="5.9432">
        <ele>490.41</ele>
        <time>2014-07-26T08:15:41Z</time>
      </trkpt>
      <trkpt lat="45.71029" lon="5.94325">
        <ele>490.41</ele>
        <time>2014-07-26T08:15:46Z</time>
      </trkpt>
      <trkpt lat="45.71033" lon="5.94329">
        <ele>490.89</ele>
        <time>2014-07-26T08:15:51Z</time>
      </trkpt>
      <trkpt lat="45.71034" lon="5.94332">
        <ele>491.85</ele>
        <time>2014-07-26T08:15:56Z</time>
      </trkpt>
      <trkpt lat="45.71035" lon="5.94332">
        <ele>490.89</ele>
        <time>2014-07-26T08:16:01Z</time>
      </trkpt>
      <trkpt lat="45.71035" lon="5.94332">
        <ele>490.89</ele>
        <time>2014-07-26T08:16:06Z</time>
      </trkpt>
      <trkpt lat="45.71036" lon="5.94334">
        <ele>491.85</ele>
        <time>2014-07-26T08:16:11Z</time>
      </trkpt>
      <trkpt lat="45.7104" lon="5.94337">
        <ele>492.33</ele>
        <time>2014-07-26T08:16:16Z</time>
      </trkpt>
      <trkpt lat="45.71043" lon="5.94338">
        <ele>491.85</ele>
        <time>2014-07-26T08:16:21Z</time>
      </trkpt>
      <trkpt lat="45.71044" lon="5.94339">
        <ele>492.33</ele>
        <time>2014-07-26T08:16:26Z</time>
      </trkpt>
      <trkpt lat="45.71044" lon="5.94339">
        <ele>492.81</ele>
        <time>2014-07-26T08:16:31Z</time>
      </trkpt>
      <trkpt lat="45.71044" lon="5.94339">
        <ele>492.81</ele>
        <time>2014-07-26T08:16:36Z</time>
      </trkpt>
      <trkpt lat="45.71044" lon="5.94339">
        <ele>492.81</ele>
        <time>2014-07-26T08:16:41Z</time>
      </trkpt>
      <trkpt lat="45.71044" lon="5.94339">
        <ele>492.81</ele>
        <time>2014-07-26T08:16:46Z</time>
      </trkpt>
      <trkpt lat="45.71043" lon="5.94342">
        <ele>494.26</ele>
        <time>2014-07-26T08:16:51Z</time>
      </trkpt>
      <trkpt lat="45.71043" lon="5.94349">
        <ele>495.22</ele>
        <time>2014-07-26T08:16:56Z</time>
      </trkpt>
      <trkpt lat="45.71041" lon="5.94354">
        <ele>496.66</ele>
        <time>2014-07-26T08:17:01Z</time>
      </trkpt>
      <trkpt lat="45.71041" lon="5.94357">
        <ele>498.1</ele>
        <time>2014-07-26T08:17:06Z</time>
      </trkpt>
      <trkpt lat="45.7104" lon="5.94359">
        <ele>499.06</ele>
        <time>2014-07-26T08:17:11Z</time>
      </trkpt>
      <trkpt lat="45.7104" lon="5.94359">
        <ele>500.5</ele>
        <time>2014-07-26T08:17:16Z</time>
      </trkpt>
      <trkpt lat="45.7104" lon="5.94363">
        <ele>500.5</ele>
        <time>2014-07-26T08:17:21Z</time>
      </trkpt>
      <trkpt lat="45.71036" lon="5.94366">
        <ele>500.98</ele>
        <time>2014-07-26T08:17:26Z</time>
      </trkpt>
      <trkpt lat="45.71036" lon="5.94366">
        <ele>500.98</ele>
        <time>2014-07-26T08:17:31Z</time>
      </trkpt>
      <trkpt lat="45.71033" lon="5.9437">
        <ele>502.43</ele>
        <time>2014-07-26T08:17:36Z</time>
      </trkpt>
      <trkpt lat="45.71032" lon="5.94374">
        <ele>502.91</ele>
        <time>2014-07-26T08:17:41Z</time>
      </trkpt>
      <trkpt lat="45.71032" lon="5.94375">
        <ele>504.35</ele>
        <time>2014-07-26T08:17:46Z</time>
      </trkpt>
      <trkpt lat="45.71031" lon="5.94384">
        <ele>505.31</ele>
        <time>2014-07-26T08:17:51Z</time>
      </trkpt>
      <trkpt lat="45.71032" lon="5.9439">
        <ele>505.79</ele>
        <time>2014-07-26T08:17:56Z</time>
      </trkpt>
      <trkpt lat="45.71033" lon="5.94392">
        <ele>505.79</ele>
        <time>2014-07-26T08:18:01Z</time>
      </trkpt>
      <trkpt lat="45.71033" lon="5.94397">
        <ele>506.27</ele>
        <time>2014-07-26T08:18:06Z</time>
      </trkpt>
      <trkpt lat="45.71031" lon="5.94406">
        <ele>507.23</ele>
        <time>2014-07-26T08:18:11Z</time>
      </trkpt>
      <trkpt lat="45.71031" lon="5.94407">
        <ele>507.23</ele>
        <time>2014-07-26T08:18:16Z</time>
      </trkpt>
      <trkpt lat="45.71031" lon="5.94409">
        <ele>508.19</ele>
        <time>2014-07-26T08:18:21Z</time>
      </trkpt>
      <trkpt lat="45.71031" lon="5.94409">
        <ele>508.19</ele>
        <time>2014-07-26T08:18:26Z</time>
      </trkpt>
      <trkpt lat="45.71031" lon="5.94409">
        <ele>508.67</ele>
        <time>2014-07-26T08:18:31Z</time>
      </trkpt>
      <trkpt lat="45.71031" lon="5.9441">
        <ele>508.67</ele>
        <time>2014-07-26T08:18:36Z</time>
      </trkpt>
      <trkpt lat="45.71027" lon="5.94418">
        <ele>510.6</ele>
        <time>2014-07-26T08:18:41Z</time>
      </trkpt>
      <trkpt lat="45.71021" lon="5.94428">
        <ele>511.08</ele>
        <time>2014-07-26T08:18:46Z</time>
      </trkpt>
      <trkpt lat="45.71016" lon="5.94432">
        <ele>511.56</ele>
        <time>2014-07-26T08:18:51Z</time>
      </trkpt>
      <trkpt lat="45.71014" lon="5.94439">
        <ele>512.52</ele>
        <time>2014-07-26T08:18:56Z</time>
      </trkpt>
      <trkpt lat="45.71013" lon="5.94441">
        <ele>513.48</ele>
        <time>2014-07-26T08:19:01Z</time>
      </trkpt>
      <trkpt lat="45.71013" lon="5.94441">
        <ele>513.48</ele>
        <time>2014-07-26T08:19:06Z</time>
      </trkpt>
      <trkpt lat="45.71013" lon="5.94441">
        <ele>513.48</ele>
        <time>2014-07-26T08:19:11Z</time>
      </trkpt>
      <trkpt lat="45.71013" lon="5.94441">
        <ele>513.48</ele>
        <time>2014-07-26T08:19:16Z</time>
      </trkpt>
      <trkpt lat="45.71013" lon="5.94441">
        <ele>513.48</ele>
        <time>2014-07-26T08:19:21Z</time>
      </trkpt>
      <trkpt lat="45.71011" lon="5.94444">
        <ele>513.96</ele>
        <time>2014-07-26T08:19:26Z</time>
      </trkpt>
      <trkpt lat="45.71006" lon="5.9445">
        <ele>515.4</ele>
        <time>2014-07-26T08:19:31Z</time>
      </trkpt>
      <trkpt lat="45.71004" lon="5.94454">
        <ele>516.37</ele>
        <time>2014-07-26T08:19:36Z</time>
      </trkpt>
      <trkpt lat="45.71004" lon="5.9446">
        <ele>517.81</ele>
        <time>2014-07-26T08:19:41Z</time>
      </trkpt>
      <trkpt lat="45.71002" lon="5.94465">
        <ele>519.73</ele>
        <time>2014-07-26T08:19:46Z</time>
      </trkpt>
      <trkpt lat="45.71001" lon="5.9447">
        <ele>520.21</ele>
        <time>2014-07-26T08:19:51Z</time>
      </trkpt>
      <trkpt lat="45.71" lon="5.94475">
        <ele>521.65</ele>
        <time>2014-07-26T08:19:56Z</time>
      </trkpt>
      <trkpt lat="45.70998" lon="5.94483">
        <ele>522.61</ele>
        <time>2014-07-26T08:20:01Z</time>
      </trkpt>
      <trkpt lat="45.70997" lon="5.94488">
        <ele>524.06</ele>
        <time>2014-07-26T08:20:06Z</time>
      </trkpt>
      <trkpt lat="45.70995" lon="5.94494">
        <ele>525.02</ele>
        <time>2014-07-26T08:20:11Z</time>
      </trkpt>
      <trkpt lat="45.70995" lon="5.94494">
        <ele>525.02</ele>
        <time>2014-07-26T08:20:16Z</time>
      </trkpt>
      <trkpt lat="45.70996" lon="5.94496">
        <ele>525.5</ele>
        <time>2014-07-26T08:20:21Z</time>
      </trkpt>
      <trkpt lat="45.71001" lon="5.94503">
        <ele>524.54</ele>
        <time>2014-07-26T08:20:26Z</time>
      </trkpt>
      <trkpt lat="45.71004" lon="5.94512">
        <ele>526.46</ele>
        <time>2014-07-26T08:20:31Z</time>
      </trkpt>
      <trkpt lat="45.71004" lon="5.94523">
        <ele>527.9</ele>
        <time>2014-07-26T08:20:36Z</time>
      </trkpt>
      <trkpt lat="45.71002" lon="5.94535">
        <ele>528.86</ele>
        <time>2014-07-26T08:20:41Z</time>
      </trkpt>
      <trkpt lat="45.71002" lon="5.94544">
        <ele>529.82</ele>
        <time>2014-07-26T08:20:46Z</time>
      </trkpt>
      <trkpt lat="45.71001" lon="5.94554">
        <ele>531.27</ele>
        <time>2014-07-26T08:20:51Z</time>
      </trkpt>
      <trkpt lat="45.71001" lon="5.94563">
        <ele>532.23</ele>
        <time>2014-07-26T08:20:56Z</time>
      </trkpt>
      <trkpt lat="45.71" lon="5.94573">
        <ele>533.19</ele>
        <time>2014-07-26T08:21:01Z</time>
      </trkpt>
      <trkpt lat="45.70998" lon="5.94581">
        <ele>534.63</ele>
        <time>2014-07-26T08:21:06Z</time>
      </trkpt>
      <trkpt lat="45.70998" lon="5.94589">
        <ele>534.63</ele>
        <time>2014-07-26T08:21:11Z</time>
      </trkpt>
      <trkpt lat="45.70997" lon="5.94596">
        <ele>536.07</ele>
        <time>2014-07-26T08:21:16Z</time>
      </trkpt>
      <trkpt lat="45.70996" lon="5.94606">
        <ele>536.55</ele>
        <time>2014-07-26T08:21:21Z</time>
      </trkpt>
      <trkpt lat="45.70994" lon="5.94616">
        <ele>537.99</ele>
        <time>2014-07-26T08:21:26Z</time>
      </trkpt>
      <trkpt lat="45.70994" lon="5.94626">
        <ele>538.96</ele>
        <time>2014-07-26T08:21:31Z</time>
      </trkpt>
      <trkpt lat="45.70993" lon="5.94636">
        <ele>539.92</ele>
        <time>2014-07-26T08:21:36Z</time>
      </trkpt>
      <trkpt lat="45.70992" lon="5.94644">
        <ele>541.36</ele>
        <time>2014-07-26T08:21:41Z</time>
      </trkpt>
      <trkpt lat="45.70992" lon="5.94652">
        <ele>541.84</ele>
        <time>2014-07-26T08:21:46Z</time>
      </trkpt>
      <trkpt lat="45.70992" lon="5.9466">
        <ele>542.32</ele>
        <time>2014-07-26T08:21:51Z</time>
      </trkpt>
      <trkpt lat="45.70992" lon="5.94669">
        <ele>542.8</ele>
        <time>2014-07-26T08:21:56Z</time>
      </trkpt>
      <trkpt lat="45.70991" lon="5.94678">
        <ele>544.24</ele>
        <time>2014-07-26T08:22:01Z</time>
      </trkpt>
      <trkpt lat="45.70991" lon="5.94687">
        <ele>545.2</ele>
        <time>2014-07-26T08:22:06Z</time>
      </trkpt>
      <trkpt lat="45.70991" lon="5.94696">
        <ele>546.17</ele>
        <time>2014-07-26T08:22:11Z</time>
      </trkpt>
      <trkpt lat="45.70991" lon="5.94705">
        <ele>547.13</ele>
        <time>2014-07-26T08:22:16Z</time>
      </trkpt>
      <trkpt lat="45.70991" lon="5.94714">
        <ele>547.61</ele>
        <time>2014-07-26T08:22:21Z</time>
      </trkpt>
      <trkpt lat="45.70991" lon="5.94723">
        <ele>549.05</ele>
        <time>2014-07-26T08:22:26Z</time>
      </trkpt>
      <trkpt lat="45.7099" lon="5.94733">
        <ele>550.01</ele>
        <time>2014-07-26T08:22:31Z</time>
      </trkpt>
      <trkpt lat="45.7099" lon="5.94742">
        <ele>550.49</ele>
        <time>2014-07-26T08:22:36Z</time>
      </trkpt>
      <trkpt lat="45.70989" lon="5.94751">
        <ele>551.93</ele>
        <time>2014-07-26T08:22:41Z</time>
      </trkpt>
      <trkpt lat="45.70988" lon="5.94761">
        <ele>552.41</ele>
        <time>2014-07-26T08:22:46Z</time>
      </trkpt>
      <trkpt lat="45.70987" lon="5.94769">
        <ele>553.38</ele>
        <time>2014-07-26T08:22:51Z</time>
      </trkpt>
      <trkpt lat="45.70987" lon="5.94777">
        <ele>554.34</ele>
        <time>2014-07-26T08:22:56Z</time>
      </trkpt>
      <trkpt lat="45.70987" lon="5.94785">
        <ele>555.3</ele>
        <time>2014-07-26T08:23:01Z</time>
      </trkpt>
      <trkpt lat="45.70986" lon="5.94793">
        <ele>556.26</ele>
        <time>2014-07-26T08:23:06Z</time>
      </trkpt>
      <trkpt lat="45.70985" lon="5.94801">
        <ele>556.74</ele>
        <time>2014-07-26T08:23:11Z</time>
      </trkpt>
      <trkpt lat="45.70984" lon="5.9481">
        <ele>557.7</ele>
        <time>2014-07-26T08:23:16Z</time>
      </trkpt>
      <trkpt lat="45.70983" lon="5.94818">
        <ele>558.66</ele>
        <time>2014-07-26T08:23:21Z</time>
      </trkpt>
      <trkpt lat="45.70982" lon="5.94826">
        <ele>559.14</ele>
        <time>2014-07-26T08:23:26Z</time>
      </trkpt>
      <trkpt lat="45.70981" lon="5.94835">
        <ele>560.59</ele>
        <time>2014-07-26T08:23:31Z</time>
      </trkpt>
      <trkpt lat="45.7098" lon="5.94844">
        <ele>561.55</ele>
        <time>2014-07-26T08:23:36Z</time>
      </trkpt>
      <trkpt lat="45.70978" lon="5.94853">
        <ele>562.51</ele>
        <time>2014-07-26T08:23:41Z</time>
      </trkpt>
      <trkpt lat="45.70977" lon="5.94863">
        <ele>563.47</ele>
        <time>2014-07-26T08:23:46Z</time>
      </trkpt>
      <trkpt lat="45.70976" lon="5.9487">
        <ele>563.95</ele>
        <time>2014-07-26T08:23:51Z</time>
      </trkpt>
      <trkpt lat="45.70974" lon="5.94879">
        <ele>564.91</ele>
        <time>2014-07-26T08:23:56Z</time>
      </trkpt>
      <trkpt lat="45.70973" lon="5.94887">
        <ele>565.87</ele>
        <time>2014-07-26T08:24:01Z</time>
      </trkpt>
      <trkpt lat="45.70971" lon="5.94896">
        <ele>566.83</ele>
        <time>2014-07-26T08:24:06Z</time>
      </trkpt>
      <trkpt lat="45.7097" lon="5.94906">
        <ele>567.32</ele>
        <time>2014-07-26T08:24:11Z</time>
      </trkpt>
      <trkpt lat="45.70969" lon="5.94915">
        <ele>568.28</ele>
        <time>2014-07-26T08:24:16Z</time>
      </trkpt>
      <trkpt lat="45.70968" lon="5.94924">
        <ele>569.72</ele>
        <time>2014-07-26T08:24:21Z</time>
      </trkpt>
      <trkpt lat="45.70967" lon="5.94933">
        <ele>570.2</ele>
        <time>2014-07-26T08:24:26Z</time>
      </trkpt>
      <trkpt lat="45.70966" lon="5.94943">
        <ele>571.64</ele>
        <time>2014-07-26T08:24:31Z</time>
      </trkpt>
      <trkpt lat="45.70965" lon="5.94952">
        <ele>572.6</ele>
        <time>2014-07-26T08:24:36Z</time>
      </trkpt>
      <trkpt lat="45.70963" lon="5.94962">
        <ele>573.08</ele>
        <time>2014-07-26T08:24:41Z</time>
      </trkpt>
      <trkpt lat="45.70962" lon="5.94971">
        <ele>574.53</ele>
        <time>2014-07-26T08:24:46Z</time>
      </trkpt>
      <trkpt lat="45.70961" lon="5.9498">
        <ele>575.49</ele>
        <time>2014-07-26T08:24:51Z</time>
      </trkpt>
      <trkpt lat="45.70961" lon="5.9499">
        <ele>576.45</ele>
        <time>2014-07-26T08:24:56Z</time>
      </trkpt>
      <trkpt lat="45.70958" lon="5.94999">
        <ele>578.37</ele>
        <time>2014-07-26T08:25:01Z</time>
      </trkpt>
      <trkpt lat="45.70955" lon="5.95009">
        <ele>578.85</ele>
        <time>2014-07-26T08:25:06Z</time>
      </trkpt>
      <trkpt lat="45.70952" lon="5.95018">
        <ele>579.33</ele>
        <time>2014-07-26T08:25:11Z</time>
      </trkpt>
      <trkpt lat="45.70949" lon="5.95027">
        <ele>580.77</ele>
        <time>2014-07-26T08:25:16Z</time>
      </trkpt>
      <trkpt lat="45.70945" lon="5.95036">
        <ele>581.25</ele>
        <time>2014-07-26T08:25:21Z</time>
      </trkpt>
      <trkpt lat="45.70941" lon="5.95045">
        <ele>582.7</ele>
        <time>2014-07-26T08:25:26Z</time>
      </trkpt>
      <trkpt lat="45.70936" lon="5.95054">
        <ele>583.18</ele>
        <time>2014-07-26T08:25:31Z</time>
      </trkpt>
      <trkpt lat="45.70931" lon="5.95064">
        <ele>584.14</ele>
        <time>2014-07-26T08:25:36Z</time>
      </trkpt>
      <trkpt lat="45.70927" lon="5.95074">
        <ele>585.1</ele>
        <time>2014-07-26T08:25:41Z</time>
      </trkpt>
      <trkpt lat="45.70922" lon="5.95084">
        <ele>585.58</ele>
        <time>2014-07-26T08:25:46Z</time>
      </trkpt>
      <trkpt lat="45.70918" lon="5.95094">
        <ele>586.06</ele>
        <time>2014-07-26T08:25:51Z</time>
      </trkpt>
      <trkpt lat="45.70914" lon="5.95105">
        <ele>587.5</ele>
        <time>2014-07-26T08:25:56Z</time>
      </trkpt>
      <trkpt lat="45.7091" lon="5.95116">
        <ele>587.5</ele>
        <time>2014-07-26T08:26:01Z</time>
      </trkpt>
      <trkpt lat="45.70906" lon="5.95126">
        <ele>587.98</ele>
        <time>2014-07-26T08:26:06Z</time>
      </trkpt>
      <trkpt lat="45.70903" lon="5.95137">
        <ele>589.43</ele>
        <time>2014-07-26T08:26:11Z</time>
      </trkpt>
      <trkpt lat="45.70904" lon="5.95147">
        <ele>588.95</ele>
        <time>2014-07-26T08:26:16Z</time>
      </trkpt>
      <trkpt lat="45.70916" lon="5.95168">
        <ele>587.5</ele>
        <time>2014-07-26T08:26:21Z</time>
      </trkpt>
      <trkpt lat="45.7094" lon="5.95198">
        <ele>586.06</ele>
        <time>2014-07-26T08:26:26Z</time>
      </trkpt>
      <trkpt lat="45.70972" lon="5.95224">
        <ele>584.62</ele>
        <time>2014-07-26T08:26:31Z</time>
      </trkpt>
      <trkpt lat="45.71016" lon="5.95249">
        <ele>580.77</ele>
        <time>2014-07-26T08:26:36Z</time>
      </trkpt>
      <trkpt lat="45.71069" lon="5.95274">
        <ele>577.89</ele>
        <time>2014-07-26T08:26:41Z</time>
      </trkpt>
      <trkpt lat="45.71116" lon="5.9531">
        <ele>573.08</ele>
        <time>2014-07-26T08:26:46Z</time>
      </trkpt>
      <trkpt lat="45.71162" lon="5.95346">
        <ele>568.28</ele>
        <time>2014-07-26T08:26:51Z</time>
      </trkpt>
      <trkpt lat="45.71185" lon="5.95372">
        <ele>565.87</ele>
        <time>2014-07-26T08:26:56Z</time>
      </trkpt>
      <trkpt lat="45.71187" lon="5.95392">
        <ele>566.35</ele>
        <time>2014-07-26T08:27:01Z</time>
      </trkpt>
      <trkpt lat="45.71187" lon="5.95403">
        <ele>568.28</ele>
        <time>2014-07-26T08:27:06Z</time>
      </trkpt>
      <trkpt lat="45.71185" lon="5.95414">
        <ele>568.28</ele>
        <time>2014-07-26T08:27:11Z</time>
      </trkpt>
      <trkpt lat="45.7118" lon="5.95424">
        <ele>570.2</ele>
        <time>2014-07-26T08:27:16Z</time>
      </trkpt>
      <trkpt lat="45.71175" lon="5.9543">
        <ele>570.68</ele>
        <time>2014-07-26T08:27:21Z</time>
      </trkpt>
      <trkpt lat="45.71168" lon="5.95436">
        <ele>572.6</ele>
        <time>2014-07-26T08:27:26Z</time>
      </trkpt>
      <trkpt lat="45.71161" lon="5.95443">
        <ele>573.56</ele>
        <time>2014-07-26T08:27:31Z</time>
      </trkpt>
      <trkpt lat="45.71157" lon="5.95455">
        <ele>575.01</ele>
        <time>2014-07-26T08:27:36Z</time>
      </trkpt>
      <trkpt lat="45.71156" lon="5.95466">
        <ele>576.93</ele>
        <time>2014-07-26T08:27:41Z</time>
      </trkpt>
      <trkpt lat="45.71156" lon="5.95475">
        <ele>576.45</ele>
        <time>2014-07-26T08:27:46Z</time>
      </trkpt>
      <trkpt lat="45.71158" lon="5.95486">
        <ele>577.89</ele>
        <time>2014-07-26T08:27:51Z</time>
      </trkpt>
      <trkpt lat="45.7116" lon="5.95498">
        <ele>578.37</ele>
        <time>2014-07-26T08:27:56Z</time>
      </trkpt>
      <trkpt lat="45.7116" lon="5.95501">
        <ele>577.41</ele>
        <time>2014-07-26T08:28:01Z</time>
      </trkpt>
      <trkpt lat="45.7116" lon="5.95501">
        <ele>577.89</ele>
        <time>2014-07-26T08:28:06Z</time>
      </trkpt>
      <trkpt lat="45.7116" lon="5.95501">
        <ele>577.89</ele>
        <time>2014-07-26T08:28:11Z</time>
      </trkpt>
      <trkpt lat="45.71162" lon="5.95503">
        <ele>578.37</ele>
        <time>2014-07-26T08:28:16Z</time>
      </trkpt>
      <trkpt lat="45.71163" lon="5.95511">
        <ele>578.85</ele>
        <time>2014-07-26T08:28:21Z</time>
      </trkpt>
      <trkpt lat="45.71164" lon="5.95521">
        <ele>579.81</ele>
        <time>2014-07-26T08:28:26Z</time>
      </trkpt>
      <trkpt lat="45.71164" lon="5.95533">
        <ele>580.77</ele>
        <time>2014-07-26T08:28:31Z</time>
      </trkpt>
      <trkpt lat="45.71161" lon="5.95545">
        <ele>581.73</ele>
        <time>2014-07-26T08:28:36Z</time>
      </trkpt>
      <trkpt lat="45.71156" lon="5.95555">
        <ele>583.18</ele>
        <time>2014-07-26T08:28:41Z</time>
      </trkpt>
      <trkpt lat="45.71153" lon="5.95566">
        <ele>585.1</ele>
        <time>2014-07-26T08:28:46Z</time>
      </trkpt>
      <trkpt lat="45.71152" lon="5.95577">
        <ele>586.06</ele>
        <time>2014-07-26T08:28:51Z</time>
      </trkpt>
      <trkpt lat="45.71154" lon="5.95588">
        <ele>587.02</ele>
        <time>2014-07-26T08:28:56Z</time>
      </trkpt>
      <trkpt lat="45.71154" lon="5.956">
        <ele>587.98</ele>
        <time>2014-07-26T08:29:01Z</time>
      </trkpt>
      <trkpt lat="45.71152" lon="5.95609">
        <ele>588.46</ele>
        <time>2014-07-26T08:29:06Z</time>
      </trkpt>
      <trkpt lat="45.71147" lon="5.95616">
        <ele>589.91</ele>
        <time>2014-07-26T08:29:11Z</time>
      </trkpt>
      <trkpt lat="45.7114" lon="5.9562">
        <ele>591.83</ele>
        <time>2014-07-26T08:29:16Z</time>
      </trkpt>
      <trkpt lat="45.71134" lon="5.95624">
        <ele>593.27</ele>
        <time>2014-07-26T08:29:21Z</time>
      </trkpt>
      <trkpt lat="45.71127" lon="5.95626">
        <ele>594.23</ele>
        <time>2014-07-26T08:29:26Z</time>
      </trkpt>
      <trkpt lat="45.71121" lon="5.95631">
        <ele>596.15</ele>
        <time>2014-07-26T08:29:31Z</time>
      </trkpt>
      <trkpt lat="45.71115" lon="5.95637">
        <ele>596.15</ele>
        <time>2014-07-26T08:29:36Z</time>
      </trkpt>
      <trkpt lat="45.71109" lon="5.95642">
        <ele>597.6</ele>
        <time>2014-07-26T08:29:41Z</time>
      </trkpt>
      <trkpt lat="45.71103" lon="5.95647">
        <ele>599.04</ele>
        <time>2014-07-26T08:29:46Z</time>
      </trkpt>
      <trkpt lat="45.71097" lon="5.9565">
        <ele>600.48</ele>
        <time>2014-07-26T08:29:51Z</time>
      </trkpt>
      <trkpt lat="45.71091" lon="5.9565">
        <ele>601.44</ele>
        <time>2014-07-26T08:29:56Z</time>
      </trkpt>
      <trkpt lat="45.71086" lon="5.95652">
        <ele>601.92</ele>
        <time>2014-07-26T08:30:01Z</time>
      </trkpt>
      <trkpt lat="45.71079" lon="5.95652">
        <ele>603.85</ele>
        <time>2014-07-26T08:30:06Z</time>
      </trkpt>
      <trkpt lat="45.71071" lon="5.9565">
        <ele>604.81</ele>
        <time>2014-07-26T08:30:11Z</time>
      </trkpt>
      <trkpt lat="45.71063" lon="5.95648">
        <ele>606.25</ele>
        <time>2014-07-26T08:30:16Z</time>
      </trkpt>
      <trkpt lat="45.71057" lon="5.95644">
        <ele>607.21</ele>
        <time>2014-07-26T08:30:21Z</time>
      </trkpt>
      <trkpt lat="45.71052" lon="5.95638">
        <ele>607.69</ele>
        <time>2014-07-26T08:30:26Z</time>
      </trkpt>
      <trkpt lat="45.71048" lon="5.9563">
        <ele>608.17</ele>
        <time>2014-07-26T08:30:31Z</time>
      </trkpt>
      <trkpt lat="45.71046" lon="5.95618">
        <ele>608.65</ele>
        <time>2014-07-26T08:30:36Z</time>
      </trkpt>
      <trkpt lat="45.7104" lon="5.95611">
        <ele>609.61</ele>
        <time>2014-07-26T08:30:41Z</time>
      </trkpt>
      <trkpt lat="45.71032" lon="5.9561">
        <ele>610.57</ele>
        <time>2014-07-26T08:30:46Z</time>
      </trkpt>
      <trkpt lat="45.71024" lon="5.95617">
        <ele>611.54</ele>
        <time>2014-07-26T08:30:51Z</time>
      </trkpt>
      <trkpt lat="45.71018" lon="5.95625">
        <ele>613.46</ele>
        <time>2014-07-26T08:30:56Z</time>
      </trkpt>
      <trkpt lat="45.71012" lon="5.95632">
        <ele>614.42</ele>
        <time>2014-07-26T08:31:01Z</time>
      </trkpt>
      <trkpt lat="45.71007" lon="5.95643">
        <ele>615.38</ele>
        <time>2014-07-26T08:31:06Z</time>
      </trkpt>
      <trkpt lat="45.71002" lon="5.95651">
        <ele>616.34</ele>
        <time>2014-07-26T08:31:11Z</time>
      </trkpt>
      <trkpt lat="45.70996" lon="5.95659">
        <ele>616.82</ele>
        <time>2014-07-26T08:31:16Z</time>
      </trkpt>
      <trkpt lat="45.70992" lon="5.95668">
        <ele>616.82</ele>
        <time>2014-07-26T08:31:21Z</time>
      </trkpt>
      <trkpt lat="45.70986" lon="5.95676">
        <ele>617.3</ele>
        <time>2014-07-26T08:31:26Z</time>
      </trkpt>
      <trkpt lat="45.70982" lon="5.95684">
        <ele>617.3</ele>
        <time>2014-07-26T08:31:31Z</time>
      </trkpt>
      <trkpt lat="45.70976" lon="5.9569">
        <ele>617.3</ele>
        <time>2014-07-26T08:31:36Z</time>
      </trkpt>
      <trkpt lat="45.70974" lon="5.95695">
        <ele>617.78</ele>
        <time>2014-07-26T08:31:41Z</time>
      </trkpt>
      <trkpt lat="45.70982" lon="5.95713">
        <ele>616.82</ele>
        <time>2014-07-26T08:31:46Z</time>
      </trkpt>
      <trkpt lat="45.71001" lon="5.95745">
        <ele>614.9</ele>
        <time>2014-07-26T08:31:51Z</time>
      </trkpt>
      <trkpt lat="45.71027" lon="5.95788">
        <ele>612.5</ele>
        <time>2014-07-26T08:31:56Z</time>
      </trkpt>
      <trkpt lat="45.71059" lon="5.9583">
        <ele>608.17</ele>
        <time>2014-07-26T08:32:01Z</time>
      </trkpt>
      <trkpt lat="45.71074" lon="5.95862">
        <ele>604.81</ele>
        <time>2014-07-26T08:32:06Z</time>
      </trkpt>
      <trkpt lat="45.71063" lon="5.95885">
        <ele>604.81</ele>
        <time>2014-07-26T08:32:11Z</time>
      </trkpt>
      <trkpt lat="45.7105" lon="5.959">
        <ele>605.29</ele>
        <time>2014-07-26T08:32:16Z</time>
      </trkpt>
      <trkpt lat="45.71035" lon="5.95912">
        <ele>605.77</ele>
        <time>2014-07-26T08:32:21Z</time>
      </trkpt>
      <trkpt lat="45.71021" lon="5.95923">
        <ele>606.25</ele>
        <time>2014-07-26T08:32:26Z</time>
      </trkpt>
      <trkpt lat="45.71008" lon="5.95933">
        <ele>606.25</ele>
        <time>2014-07-26T08:32:31Z</time>
      </trkpt>
      <trkpt lat="45.70994" lon="5.95946">
        <ele>606.25</ele>
        <time>2014-07-26T08:32:36Z</time>
      </trkpt>
      <trkpt lat="45.70981" lon="5.95961">
        <ele>606.25</ele>
        <time>2014-07-26T08:32:41Z</time>
      </trkpt>
      <trkpt lat="45.70969" lon="5.95983">
        <ele>606.25</ele>
        <time>2014-07-26T08:32:46Z</time>
      </trkpt>
      <trkpt lat="45.70962" lon="5.96005">
        <ele>606.25</ele>
        <time>2014-07-26T08:32:51Z</time>
      </trkpt>
      <trkpt lat="45.70955" lon="5.9603">
        <ele>606.73</ele>
        <time>2014-07-26T08:32:56Z</time>
      </trkpt>
      <trkpt lat="45.70951" lon="5.9605">
        <ele>606.73</ele>
        <time>2014-07-26T08:33:01Z</time>
      </trkpt>
      <trkpt lat="45.70947" lon="5.96067">
        <ele>607.69</ele>
        <time>2014-07-26T08:33:06Z</time>
      </trkpt>
      <trkpt lat="45.70942" lon="5.96082">
        <ele>609.61</ele>
        <time>2014-07-26T08:33:11Z</time>
      </trkpt>
      <trkpt lat="45.70937" lon="5.96096">
        <ele>610.57</ele>
        <time>2014-07-26T08:33:16Z</time>
      </trkpt>
      <trkpt lat="45.70934" lon="5.9611">
        <ele>611.54</ele>
        <time>2014-07-26T08:33:21Z</time>
      </trkpt>
      <trkpt lat="45.70929" lon="5.96124">
        <ele>612.5</ele>
        <time>2014-07-26T08:33:26Z</time>
      </trkpt>
      <trkpt lat="45.70924" lon="5.96136">
        <ele>613.46</ele>
        <time>2014-07-26T08:33:31Z</time>
      </trkpt>
      <trkpt lat="45.70919" lon="5.96149">
        <ele>614.42</ele>
        <time>2014-07-26T08:33:36Z</time>
      </trkpt>
      <trkpt lat="45.70912" lon="5.96163">
        <ele>615.38</ele>
        <time>2014-07-26T08:33:41Z</time>
      </trkpt>
      <trkpt lat="45.70904" lon="5.96173">
        <ele>615.86</ele>
        <time>2014-07-26T08:33:46Z</time>
      </trkpt>
      <trkpt lat="45.70896" lon="5.96184">
        <ele>617.3</ele>
        <time>2014-07-26T08:33:51Z</time>
      </trkpt>
      <trkpt lat="45.70887" lon="5.96196">
        <ele>617.78</ele>
        <time>2014-07-26T08:33:56Z</time>
      </trkpt>
      <trkpt lat="45.70883" lon="5.96209">
        <ele>618.75</ele>
        <time>2014-07-26T08:34:01Z</time>
      </trkpt>
      <trkpt lat="45.70879" lon="5.96225">
        <ele>620.19</ele>
        <time>2014-07-26T08:34:06Z</time>
      </trkpt>
      <trkpt lat="45.70877" lon="5.96239">
        <ele>621.15</ele>
        <time>2014-07-26T08:34:11Z</time>
      </trkpt>
      <trkpt lat="45.70878" lon="5.96252">
        <ele>622.11</ele>
        <time>2014-07-26T08:34:16Z</time>
      </trkpt>
      <trkpt lat="45.70877" lon="5.96266">
        <ele>623.55</ele>
        <time>2014-07-26T08:34:21Z</time>
      </trkpt>
      <trkpt lat="45.70875" lon="5.96281">
        <ele>624.51</ele>
        <time>2014-07-26T08:34:26Z</time>
      </trkpt>
      <trkpt lat="45.70868" lon="5.96292">
        <ele>625.96</ele>
        <time>2014-07-26T08:34:31Z</time>
      </trkpt>
      <trkpt lat="45.70859" lon="5.96297">
        <ele>626.92</ele>
        <time>2014-07-26T08:34:36Z</time>
      </trkpt>
      <trkpt lat="45.7085" lon="5.96304">
        <ele>627.88</ele>
        <time>2014-07-26T08:34:41Z</time>
      </trkpt>
      <trkpt lat="45.70845" lon="5.96317">
        <ele>628.84</ele>
        <time>2014-07-26T08:34:46Z</time>
      </trkpt>
      <trkpt lat="45.70841" lon="5.9633">
        <ele>630.28</ele>
        <time>2014-07-26T08:34:51Z</time>
      </trkpt>
      <trkpt lat="45.70839" lon="5.96344">
        <ele>630.76</ele>
        <time>2014-07-26T08:34:56Z</time>
      </trkpt>
      <trkpt lat="45.70838" lon="5.96355">
        <ele>631.72</ele>
        <time>2014-07-26T08:35:01Z</time>
      </trkpt>
      <trkpt lat="45.70835" lon="5.96367">
        <ele>633.17</ele>
        <time>2014-07-26T08:35:06Z</time>
      </trkpt>
      <trkpt lat="45.70831" lon="5.96378">
        <ele>634.13</ele>
        <time>2014-07-26T08:35:11Z</time>
      </trkpt>
      <trkpt lat="45.70825" lon="5.96389">
        <ele>635.09</ele>
        <time>2014-07-26T08:35:16Z</time>
      </trkpt>
      <trkpt lat="45.70819" lon="5.96399">
        <ele>636.05</ele>
        <time>2014-07-26T08:35:21Z</time>
      </trkpt>
      <trkpt lat="45.70813" lon="5.96408">
        <ele>637.01</ele>
        <time>2014-07-26T08:35:26Z</time>
      </trkpt>
      <trkpt lat="45.70806" lon="5.96417">
        <ele>637.97</ele>
        <time>2014-07-26T08:35:31Z</time>
      </trkpt>
      <trkpt lat="45.70799" lon="5.96426">
        <ele>638.45</ele>
        <time>2014-07-26T08:35:36Z</time>
      </trkpt>
      <trkpt lat="45.70793" lon="5.96436">
        <ele>639.41</ele>
        <time>2014-07-26T08:35:41Z</time>
      </trkpt>
      <trkpt lat="45.70788" lon="5.96446">
        <ele>640.38</ele>
        <time>2014-07-26T08:35:46Z</time>
      </trkpt>
      <trkpt lat="45.70783" lon="5.96456">
        <ele>640.86</ele>
        <time>2014-07-26T08:35:51Z</time>
      </trkpt>
      <trkpt lat="45.70778" lon="5.96467">
        <ele>641.82</ele>
        <time>2014-07-26T08:35:56Z</time>
      </trkpt>
      <trkpt lat="45.70772" lon="5.96477">
        <ele>642.78</ele>
        <time>2014-07-26T08:36:01Z</time>
      </trkpt>
      <trkpt lat="45.70766" lon="5.96485">
        <ele>643.74</ele>
        <time>2014-07-26T08:36:06Z</time>
      </trkpt>
      <trkpt lat="45.70761" lon="5.96496">
        <ele>645.18</ele>
        <time>2014-07-26T08:36:11Z</time>
      </trkpt>
      <trkpt lat="45.70753" lon="5.96501">
        <ele>646.14</ele>
        <time>2014-07-26T08:36:16Z</time>
      </trkpt>
      <trkpt lat="45.70746" lon="5.96495">
        <ele>646.62</ele>
        <time>2014-07-26T08:36:21Z</time>
      </trkpt>
      <trkpt lat="45.70739" lon="5.96482">
        <ele>646.62</ele>
        <time>2014-07-26T08:36:26Z</time>
      </trkpt>
      <trkpt lat="45.70732" lon="5.96465">
        <ele>646.62</ele>
        <time>2014-07-26T08:36:31Z</time>
      </trkpt>
      <trkpt lat="45.70723" lon="5.96447">
        <ele>647.1</ele>
        <time>2014-07-26T08:36:36Z</time>
      </trkpt>
      <trkpt lat="45.70714" lon="5.96427">
        <ele>647.1</ele>
        <time>2014-07-26T08:36:41Z</time>
      </trkpt>
      <trkpt lat="45.70705" lon="5.96406">
        <ele>647.1</ele>
        <time>2014-07-26T08:36:46Z</time>
      </trkpt>
      <trkpt lat="45.70695" lon="5.96385">
        <ele>646.62</ele>
        <time>2014-07-26T08:36:51Z</time>
      </trkpt>
      <trkpt lat="45.70685" lon="5.96364">
        <ele>647.1</ele>
        <time>2014-07-26T08:36:56Z</time>
      </trkpt>
      <trkpt lat="45.70674" lon="5.96343">
        <ele>646.62</ele>
        <time>2014-07-26T08:37:01Z</time>
      </trkpt>
      <trkpt lat="45.70662" lon="5.96321">
        <ele>646.14</ele>
        <time>2014-07-26T08:37:06Z</time>
      </trkpt>
      <trkpt lat="45.7065" lon="5.96297">
        <ele>645.66</ele>
        <time>2014-07-26T08:37:11Z</time>
      </trkpt>
      <trkpt lat="45.70642" lon="5.96268">
        <ele>645.18</ele>
        <time>2014-07-26T08:37:16Z</time>
      </trkpt>
      <trkpt lat="45.70631" lon="5.96242">
        <ele>644.7</ele>
        <time>2014-07-26T08:37:21Z</time>
      </trkpt>
      <trkpt lat="45.70629" lon="5.96221">
        <ele>643.74</ele>
        <time>2014-07-26T08:37:26Z</time>
      </trkpt>
      <trkpt lat="45.70645" lon="5.96233">
        <ele>642.78</ele>
        <time>2014-07-26T08:37:31Z</time>
      </trkpt>
      <trkpt lat="45.70658" lon="5.96251">
        <ele>640.86</ele>
        <time>2014-07-26T08:37:36Z</time>
      </trkpt>
      <trkpt lat="45.70666" lon="5.96254">
        <ele>641.34</ele>
        <time>2014-07-26T08:37:41Z</time>
      </trkpt>
      <trkpt lat="45.70668" lon="5.96254">
        <ele>641.34</ele>
        <time>2014-07-26T08:37:46Z</time>
      </trkpt>
      <trkpt lat="45.70668" lon="5.96254">
        <ele>640.86</ele>
        <time>2014-07-26T08:37:51Z</time>
      </trkpt>
      <trkpt lat="45.70668" lon="5.96254">
        <ele>640.86</ele>
        <time>2014-07-26T08:37:56Z</time>
      </trkpt>
      <trkpt lat="45.70668" lon="5.96254">
        <ele>640.86</ele>
        <time>2014-07-26T08:38:01Z</time>
      </trkpt>
      <trkpt lat="45.70668" lon="5.96254">
        <ele>640.86</ele>
        <time>2014-07-26T08:38:06Z</time>
      </trkpt>
      <trkpt lat="45.70668" lon="5.96254">
        <ele>640.86</ele>
        <time>2014-07-26T08:38:11Z</time>
      </trkpt>
      <trkpt lat="45.70668" lon="5.96254">
        <ele>641.34</ele>
        <time>2014-07-26T08:38:16Z</time>
      </trkpt>
      <trkpt lat="45.70668" lon="5.96254">
        <ele>641.34</ele>
        <time>2014-07-26T08:38:21Z</time>
      </trkpt>
      <trkpt lat="45.70668" lon="5.96254">
        <ele>641.82</ele>
        <time>2014-07-26T08:38:26Z</time>
      </trkpt>
      <trkpt lat="45.70668" lon="5.96254">
        <ele>640.86</ele>
        <time>2014-07-26T08:38:31Z</time>
      </trkpt>
      <trkpt lat="45.70668" lon="5.96254">
        <ele>641.34</ele>
        <time>2014-07-26T08:38:36Z</time>
      </trkpt>
      <trkpt lat="45.70668" lon="5.96254">
        <ele>641.34</ele>
        <time>2014-07-26T08:38:41Z</time>
      </trkpt>
      <trkpt lat="45.70668" lon="5.96254">
        <ele>640.86</ele>
        <time>2014-07-26T08:38:46Z</time>
      </trkpt>
      <trkpt lat="45.70668" lon="5.96254">
        <ele>640.86</ele>
        <time>2014-07-26T08:38:51Z</time>
      </trkpt>
      <trkpt lat="45.70668" lon="5.96254">
        <ele>641.34</ele>
        <time>2014-07-26T08:38:56Z</time>
      </trkpt>
      <trkpt lat="45.70668" lon="5.96254">
        <ele>641.34</ele>
        <time>2014-07-26T08:39:01Z</time>
      </trkpt>
      <trkpt lat="45.70668" lon="5.96254">
        <ele>641.82</ele>
        <time>2014-07-26T08:39:06Z</time>
      </trkpt>
      <trkpt lat="45.70668" lon="5.96254">
        <ele>641.34</ele>
        <time>2014-07-26T08:39:11Z</time>
      </trkpt>
      <trkpt lat="45.70668" lon="5.96254">
        <ele>641.34</ele>
        <time>2014-07-26T08:39:16Z</time>
      </trkpt>
      <trkpt lat="45.70668" lon="5.96254">
        <ele>641.34</ele>
        <time>2014-07-26T08:39:21Z</time>
      </trkpt>
      <trkpt lat="45.70668" lon="5.96254">
        <ele>641.34</ele>
        <time>2014-07-26T08:39:26Z</time>
      </trkpt>
      <trkpt lat="45.70668" lon="5.96254">
        <ele>641.34</ele>
        <time>2014-07-26T08:39:31Z</time>
      </trkpt>
      <trkpt lat="45.70668" lon="5.96254">
        <ele>641.34</ele>
        <time>2014-07-26T08:39:36Z</time>
      </trkpt>
      <trkpt lat="45.70668" lon="5.96254">
        <ele>640.86</ele>
        <time>2014-07-26T08:39:41Z</time>
      </trkpt>
      <trkpt lat="45.70668" lon="5.96254">
        <ele>641.82</ele>
        <time>2014-07-26T08:39:46Z</time>
      </trkpt>
      <trkpt lat="45.70668" lon="5.96254">
        <ele>641.34</ele>
        <time>2014-07-26T08:39:51Z</time>
      </trkpt>
      <trkpt lat="45.70668" lon="5.96254">
        <ele>641.34</ele>
        <time>2014-07-26T08:39:56Z</time>
      </trkpt>
      <trkpt lat="45.70668" lon="5.96254">
        <ele>637.97</ele>
        <time>2014-07-26T08:40:01Z</time>
      </trkpt>
      <trkpt lat="45.70668" lon="5.96254">
        <ele>642.3</ele>
        <time>2014-07-26T08:40:06Z</time>
      </trkpt>
      <trkpt lat="45.70668" lon="5.96254">
        <ele>641.34</ele>
        <time>2014-07-26T08:40:11Z</time>
      </trkpt>
      <trkpt lat="45.70668" lon="5.96254">
        <ele>640.86</ele>
        <time>2014-07-26T08:40:16Z</time>
      </trkpt>
      <trkpt lat="45.70668" lon="5.96254">
        <ele>637.49</ele>
        <time>2014-07-26T08:40:21Z</time>
      </trkpt>
      <trkpt lat="45.70668" lon="5.96254">
        <ele>638.93</ele>
        <time>2014-07-26T08:40:26Z</time>
      </trkpt>
      <trkpt lat="45.70668" lon="5.96254">
        <ele>641.82</ele>
        <time>2014-07-26T08:40:31Z</time>
      </trkpt>
      <trkpt lat="45.70668" lon="5.96254">
        <ele>641.34</ele>
        <time>2014-07-26T08:40:36Z</time>
      </trkpt>
      <trkpt lat="45.70668" lon="5.96254">
        <ele>641.34</ele>
        <time>2014-07-26T08:40:41Z</time>
      </trkpt>
      <trkpt lat="45.70668" lon="5.96254">
        <ele>642.3</ele>
        <time>2014-07-26T08:40:46Z</time>
      </trkpt>
      <trkpt lat="45.70668" lon="5.96254">
        <ele>641.34</ele>
        <time>2014-07-26T08:40:51Z</time>
      </trkpt>
      <trkpt lat="45.70668" lon="5.96254">
        <ele>641.34</ele>
        <time>2014-07-26T08:40:56Z</time>
      </trkpt>
      <trkpt lat="45.70668" lon="5.96254">
        <ele>642.78</ele>
        <time>2014-07-26T08:41:01Z</time>
      </trkpt>
      <trkpt lat="45.70668" lon="5.96255">
        <ele>639.41</ele>
        <time>2014-07-26T08:41:06Z</time>
      </trkpt>
      <trkpt lat="45.70668" lon="5.96255">
        <ele>641.34</ele>
        <time>2014-07-26T08:41:11Z</time>
      </trkpt>
      <trkpt lat="45.70668" lon="5.96255">
        <ele>641.34</ele>
        <time>2014-07-26T08:41:16Z</time>
      </trkpt>
      <trkpt lat="45.70668" lon="5.96255">
        <ele>641.34</ele>
        <time>2014-07-26T08:41:21Z</time>
      </trkpt>
      <trkpt lat="45.70668" lon="5.96255">
        <ele>641.82</ele>
        <time>2014-07-26T08:41:26Z</time>
      </trkpt>
      <trkpt lat="45.70668" lon="5.96255">
        <ele>641.34</ele>
        <time>2014-07-26T08:41:31Z</time>
      </trkpt>
      <trkpt lat="45.70668" lon="5.96255">
        <ele>641.82</ele>
        <time>2014-07-26T08:41:36Z</time>
      </trkpt>
      <trkpt lat="45.70668" lon="5.96255">
        <ele>641.34</ele>
        <time>2014-07-26T08:41:41Z</time>
      </trkpt>
      <trkpt lat="45.70668" lon="5.96255">
        <ele>641.82</ele>
        <time>2014-07-26T08:41:46Z</time>
      </trkpt>
      <trkpt lat="45.70668" lon="5.96255">
        <ele>641.82</ele>
        <time>2014-07-26T08:41:51Z</time>
      </trkpt>
      <trkpt lat="45.70668" lon="5.96255">
        <ele>642.3</ele>
        <time>2014-07-26T08:41:56Z</time>
      </trkpt>
      <trkpt lat="45.70668" lon="5.96255">
        <ele>641.34</ele>
        <time>2014-07-26T08:42:01Z</time>
      </trkpt>
      <trkpt lat="45.70668" lon="5.96255">
        <ele>641.34</ele>
        <time>2014-07-26T08:42:06Z</time>
      </trkpt>
      <trkpt lat="45.70668" lon="5.96255">
        <ele>641.82</ele>
        <time>2014-07-26T08:42:11Z</time>
      </trkpt>
      <trkpt lat="45.70668" lon="5.96255">
        <ele>641.34</ele>
        <time>2014-07-26T08:42:16Z</time>
      </trkpt>
      <trkpt lat="45.70668" lon="5.96255">
        <ele>642.3</ele>
        <time>2014-07-26T08:42:21Z</time>
      </trkpt>
      <trkpt lat="45.70668" lon="5.96256">
        <ele>641.82</ele>
        <time>2014-07-26T08:42:26Z</time>
      </trkpt>
      <trkpt lat="45.70668" lon="5.96256">
        <ele>641.82</ele>
        <time>2014-07-26T08:42:31Z</time>
      </trkpt>
      <trkpt lat="45.70668" lon="5.96256">
        <ele>641.82</ele>
        <time>2014-07-26T08:42:36Z</time>
      </trkpt>
      <trkpt lat="45.70668" lon="5.96256">
        <ele>641.82</ele>
        <time>2014-07-26T08:42:41Z</time>
      </trkpt>
      <trkpt lat="45.70668" lon="5.96256">
        <ele>641.82</ele>
        <time>2014-07-26T08:42:46Z</time>
      </trkpt>
      <trkpt lat="45.70668" lon="5.96256">
        <ele>641.34</ele>
        <time>2014-07-26T08:42:51Z</time>
      </trkpt>
      <trkpt lat="45.70668" lon="5.96256">
        <ele>641.34</ele>
        <time>2014-07-26T08:42:56Z</time>
      </trkpt>
      <trkpt lat="45.70668" lon="5.96256">
        <ele>641.82</ele>
        <time>2014-07-26T08:43:01Z</time>
      </trkpt>
      <trkpt lat="45.70668" lon="5.96256">
        <ele>641.82</ele>
        <time>2014-07-26T08:43:06Z</time>
      </trkpt>
      <trkpt lat="45.70668" lon="5.96256">
        <ele>641.34</ele>
        <time>2014-07-26T08:43:11Z</time>
      </trkpt>
      <trkpt lat="45.70668" lon="5.96256">
        <ele>641.82</ele>
        <time>2014-07-26T08:43:16Z</time>
      </trkpt>
      <trkpt lat="45.70668" lon="5.96256">
        <ele>641.82</ele>
        <time>2014-07-26T08:43:21Z</time>
      </trkpt>
      <trkpt lat="45.70668" lon="5.96256">
        <ele>641.34</ele>
        <time>2014-07-26T08:43:26Z</time>
      </trkpt>
      <trkpt lat="45.70669" lon="5.96257">
        <ele>642.3</ele>
        <time>2014-07-26T08:43:31Z</time>
      </trkpt>
      <trkpt lat="45.70662" lon="5.96245">
        <ele>641.34</ele>
        <time>2014-07-26T08:43:36Z</time>
      </trkpt>
      <trkpt lat="45.70655" lon="5.96234">
        <ele>641.82</ele>
        <time>2014-07-26T08:43:41Z</time>
      </trkpt>
      <trkpt lat="45.7065" lon="5.96228">
        <ele>642.3</ele>
        <time>2014-07-26T08:43:46Z</time>
      </trkpt>
      <trkpt lat="45.70639" lon="5.96222">
        <ele>642.78</ele>
        <time>2014-07-26T08:43:51Z</time>
      </trkpt>
      <trkpt lat="45.70629" lon="5.96224">
        <ele>643.26</ele>
        <time>2014-07-26T08:43:56Z</time>
      </trkpt>
      <trkpt lat="45.7063" lon="5.96237">
        <ele>643.74</ele>
        <time>2014-07-26T08:44:01Z</time>
      </trkpt>
      <trkpt lat="45.70635" lon="5.9625">
        <ele>644.22</ele>
        <time>2014-07-26T08:44:06Z</time>
      </trkpt>
      <trkpt lat="45.7064" lon="5.96263">
        <ele>644.7</ele>
        <time>2014-07-26T08:44:11Z</time>
      </trkpt>
      <trkpt lat="45.70647" lon="5.96277">
        <ele>644.7</ele>
        <time>2014-07-26T08:44:16Z</time>
      </trkpt>
      <trkpt lat="45.7065" lon="5.96289">
        <ele>645.18</ele>
        <time>2014-07-26T08:44:21Z</time>
      </trkpt>
      <trkpt lat="45.70652" lon="5.96304">
        <ele>646.14</ele>
        <time>2014-07-26T08:44:26Z</time>
      </trkpt>
      <trkpt lat="45.70659" lon="5.9632">
        <ele>646.14</ele>
        <time>2014-07-26T08:44:31Z</time>
      </trkpt>
      <trkpt lat="45.70669" lon="5.96338">
        <ele>646.14</ele>
        <time>2014-07-26T08:44:36Z</time>
      </trkpt>
      <trkpt lat="45.70679" lon="5.96356">
        <ele>646.62</ele>
        <time>2014-07-26T08:44:41Z</time>
      </trkpt>
      <trkpt lat="45.70689" lon="5.96377">
        <ele>646.62</ele>
        <time>2014-07-26T08:44:46Z</time>
      </trkpt>
      <trkpt lat="45.70698" lon="5.96398">
        <ele>647.1</ele>
        <time>2014-07-26T08:44:51Z</time>
      </trkpt>
      <trkpt lat="45.70709" lon="5.9642">
        <ele>646.62</ele>
        <time>2014-07-26T08:44:56Z</time>
      </trkpt>
      <trkpt lat="45.70719" lon="5.96443">
        <ele>647.1</ele>
        <time>2014-07-26T08:45:01Z</time>
      </trkpt>
      <trkpt lat="45.70729" lon="5.96465">
        <ele>647.1</ele>
        <time>2014-07-26T08:45:06Z</time>
      </trkpt>
      <trkpt lat="45.7074" lon="5.96487">
        <ele>647.59</ele>
        <time>2014-07-26T08:45:11Z</time>
      </trkpt>
      <trkpt lat="45.70747" lon="5.96513">
        <ele>647.59</ele>
        <time>2014-07-26T08:45:16Z</time>
      </trkpt>
      <trkpt lat="45.70743" lon="5.96534">
        <ele>648.07</ele>
        <time>2014-07-26T08:45:21Z</time>
      </trkpt>
      <trkpt lat="45.70738" lon="5.96549">
        <ele>649.51</ele>
        <time>2014-07-26T08:45:26Z</time>
      </trkpt>
      <trkpt lat="45.70732" lon="5.96561">
        <ele>650.47</ele>
        <time>2014-07-26T08:45:31Z</time>
      </trkpt>
      <trkpt lat="45.70725" lon="5.96573">
        <ele>651.43</ele>
        <time>2014-07-26T08:45:36Z</time>
      </trkpt>
      <trkpt lat="45.70717" lon="5.96585">
        <ele>652.39</ele>
        <time>2014-07-26T08:45:41Z</time>
      </trkpt>
      <trkpt lat="45.70709" lon="5.96596">
        <ele>653.35</ele>
        <time>2014-07-26T08:45:46Z</time>
      </trkpt>
      <trkpt lat="45.70702" lon="5.96605">
        <ele>654.31</ele>
        <time>2014-07-26T08:45:51Z</time>
      </trkpt>
      <trkpt lat="45.70695" lon="5.96615">
        <ele>655.76</ele>
        <time>2014-07-26T08:45:56Z</time>
      </trkpt>
      <trkpt lat="45.70689" lon="5.96627">
        <ele>656.72</ele>
        <time>2014-07-26T08:46:01Z</time>
      </trkpt>
      <trkpt lat="45.70682" lon="5.96639">
        <ele>657.2</ele>
        <time>2014-07-26T08:46:06Z</time>
      </trkpt>
      <trkpt lat="45.70677" lon="5.96652">
        <ele>657.68</ele>
        <time>2014-07-26T08:46:11Z</time>
      </trkpt>
      <trkpt lat="45.70671" lon="5.96666">
        <ele>658.64</ele>
        <time>2014-07-26T08:46:16Z</time>
      </trkpt>
      <trkpt lat="45.70668" lon="5.96681">
        <ele>659.6</ele>
        <time>2014-07-26T08:46:21Z</time>
      </trkpt>
      <trkpt lat="45.70664" lon="5.96693">
        <ele>659.6</ele>
        <time>2014-07-26T08:46:26Z</time>
      </trkpt>
      <trkpt lat="45.70657" lon="5.96702">
        <ele>659.6</ele>
        <time>2014-07-26T08:46:31Z</time>
      </trkpt>
      <trkpt lat="45.70651" lon="5.96707">
        <ele>661.04</ele>
        <time>2014-07-26T08:46:36Z</time>
      </trkpt>
      <trkpt lat="45.70645" lon="5.96709">
        <ele>661.52</ele>
        <time>2014-07-26T08:46:41Z</time>
      </trkpt>
      <trkpt lat="45.70637" lon="5.96716">
        <ele>662.49</ele>
        <time>2014-07-26T08:46:46Z</time>
      </trkpt>
      <trkpt lat="45.70628" lon="5.96721">
        <ele>663.45</ele>
        <time>2014-07-26T08:46:51Z</time>
      </trkpt>
      <trkpt lat="45.70621" lon="5.96727">
        <ele>664.41</ele>
        <time>2014-07-26T08:46:56Z</time>
      </trkpt>
      <trkpt lat="45.70616" lon="5.9673">
        <ele>666.33</ele>
        <time>2014-07-26T08:47:01Z</time>
      </trkpt>
      <trkpt lat="45.70607" lon="5.96738">
        <ele>666.81</ele>
        <time>2014-07-26T08:47:06Z</time>
      </trkpt>
      <trkpt lat="45.70603" lon="5.96743">
        <ele>668.25</ele>
        <time>2014-07-26T08:47:11Z</time>
      </trkpt>
      <trkpt lat="45.70603" lon="5.96745">
        <ele>668.73</ele>
        <time>2014-07-26T08:47:16Z</time>
      </trkpt>
      <trkpt lat="45.706" lon="5.96747">
        <ele>669.22</ele>
        <time>2014-07-26T08:47:21Z</time>
      </trkpt>
      <trkpt lat="45.706" lon="5.96747">
        <ele>669.7</ele>
        <time>2014-07-26T08:47:26Z</time>
      </trkpt>
      <trkpt lat="45.70597" lon="5.96747">
        <ele>670.18</ele>
        <time>2014-07-26T08:47:31Z</time>
      </trkpt>
      <trkpt lat="45.70594" lon="5.96746">
        <ele>671.62</ele>
        <time>2014-07-26T08:47:36Z</time>
      </trkpt>
      <trkpt lat="45.70588" lon="5.96745">
        <ele>673.54</ele>
        <time>2014-07-26T08:47:41Z</time>
      </trkpt>
      <trkpt lat="45.70579" lon="5.96744">
        <ele>674.02</ele>
        <time>2014-07-26T08:47:46Z</time>
      </trkpt>
      <trkpt lat="45.7057" lon="5.96745">
        <ele>674.02</ele>
        <time>2014-07-26T08:47:51Z</time>
      </trkpt>
      <trkpt lat="45.70564" lon="5.96743">
        <ele>675.94</ele>
        <time>2014-07-26T08:47:56Z</time>
      </trkpt>
      <trkpt lat="45.70557" lon="5.96743">
        <ele>676.42</ele>
        <time>2014-07-26T08:48:01Z</time>
      </trkpt>
      <trkpt lat="45.70551" lon="5.96738">
        <ele>677.39</ele>
        <time>2014-07-26T08:48:06Z</time>
      </trkpt>
      <trkpt lat="45.70545" lon="5.96737">
        <ele>677.87</ele>
        <time>2014-07-26T08:48:11Z</time>
      </trkpt>
      <trkpt lat="45.70541" lon="5.96737">
        <ele>678.35</ele>
        <time>2014-07-26T08:48:16Z</time>
      </trkpt>
      <trkpt lat="45.70534" lon="5.96731">
        <ele>679.79</ele>
        <time>2014-07-26T08:48:21Z</time>
      </trkpt>
      <trkpt lat="45.70525" lon="5.96727">
        <ele>681.23</ele>
        <time>2014-07-26T08:48:26Z</time>
      </trkpt>
      <trkpt lat="45.70516" lon="5.96724">
        <ele>681.71</ele>
        <time>2014-07-26T08:48:31Z</time>
      </trkpt>
      <trkpt lat="45.70508" lon="5.96724">
        <ele>682.67</ele>
        <time>2014-07-26T08:48:36Z</time>
      </trkpt>
      <trkpt lat="45.70501" lon="5.96725">
        <ele>683.63</ele>
        <time>2014-07-26T08:48:41Z</time>
      </trkpt>
      <trkpt lat="45.70495" lon="5.96725">
        <ele>684.6</ele>
        <time>2014-07-26T08:48:46Z</time>
      </trkpt>
      <trkpt lat="45.70489" lon="5.96725">
        <ele>685.56</ele>
        <time>2014-07-26T08:48:51Z</time>
      </trkpt>
      <trkpt lat="45.70481" lon="5.96726">
        <ele>686.52</ele>
        <time>2014-07-26T08:48:56Z</time>
      </trkpt>
      <trkpt lat="45.70474" lon="5.96727">
        <ele>687.48</ele>
        <time>2014-07-26T08:49:01Z</time>
      </trkpt>
      <trkpt lat="45.70466" lon="5.96725">
        <ele>688.92</ele>
        <time>2014-07-26T08:49:06Z</time>
      </trkpt>
      <trkpt lat="45.70459" lon="5.96725">
        <ele>688.92</ele>
        <time>2014-07-26T08:49:11Z</time>
      </trkpt>
      <trkpt lat="45.70453" lon="5.96724">
        <ele>690.36</ele>
        <time>2014-07-26T08:49:16Z</time>
      </trkpt>
      <trkpt lat="45.70446" lon="5.96725">
        <ele>691.33</ele>
        <time>2014-07-26T08:49:21Z</time>
      </trkpt>
      <trkpt lat="45.70439" lon="5.96726">
        <ele>692.29</ele>
        <time>2014-07-26T08:49:26Z</time>
      </trkpt>
      <trkpt lat="45.70432" lon="5.96729">
        <ele>693.25</ele>
        <time>2014-07-26T08:49:31Z</time>
      </trkpt>
      <trkpt lat="45.70424" lon="5.96732">
        <ele>694.69</ele>
        <time>2014-07-26T08:49:36Z</time>
      </trkpt>
      <trkpt lat="45.70418" lon="5.96737">
        <ele>695.65</ele>
        <time>2014-07-26T08:49:41Z</time>
      </trkpt>
      <trkpt lat="45.70411" lon="5.96744">
        <ele>697.09</ele>
        <time>2014-07-26T08:49:46Z</time>
      </trkpt>
      <trkpt lat="45.70404" lon="5.96748">
        <ele>697.09</ele>
        <time>2014-07-26T08:49:51Z</time>
      </trkpt>
      <trkpt lat="45.70396" lon="5.96752">
        <ele>698.05</ele>
        <time>2014-07-26T08:49:56Z</time>
      </trkpt>
      <trkpt lat="45.70389" lon="5.96754">
        <ele>699.02</ele>
        <time>2014-07-26T08:50:01Z</time>
      </trkpt>
      <trkpt lat="45.70382" lon="5.96754">
        <ele>699.98</ele>
        <time>2014-07-26T08:50:06Z</time>
      </trkpt>
      <trkpt lat="45.70375" lon="5.96752">
        <ele>701.42</ele>
        <time>2014-07-26T08:50:11Z</time>
      </trkpt>
      <trkpt lat="45.70368" lon="5.96752">
        <ele>701.9</ele>
        <time>2014-07-26T08:50:16Z</time>
      </trkpt>
      <trkpt lat="45.70361" lon="5.96752">
        <ele>702.86</ele>
        <time>2014-07-26T08:50:21Z</time>
      </trkpt>
      <trkpt lat="45.70356" lon="5.96747">
        <ele>703.82</ele>
        <time>2014-07-26T08:50:26Z</time>
      </trkpt>
      <trkpt lat="45.70351" lon="5.96739">
        <ele>704.78</ele>
        <time>2014-07-26T08:50:31Z</time>
      </trkpt>
      <trkpt lat="45.70345" lon="5.96731">
        <ele>706.23</ele>
        <time>2014-07-26T08:50:36Z</time>
      </trkpt>
      <trkpt lat="45.70339" lon="5.96725">
        <ele>707.67</ele>
        <time>2014-07-26T08:50:41Z</time>
      </trkpt>
      <trkpt lat="45.70332" lon="5.96723">
        <ele>708.63</ele>
        <time>2014-07-26T08:50:46Z</time>
      </trkpt>
      <trkpt lat="45.70325" lon="5.96721">
        <ele>709.59</ele>
        <time>2014-07-26T08:50:51Z</time>
      </trkpt>
      <trkpt lat="45.70319" lon="5.96719">
        <ele>710.55</ele>
        <time>2014-07-26T08:50:56Z</time>
      </trkpt>
      <trkpt lat="45.70314" lon="5.96719">
        <ele>711.51</ele>
        <time>2014-07-26T08:51:01Z</time>
      </trkpt>
      <trkpt lat="45.70309" lon="5.9672">
        <ele>712.47</ele>
        <time>2014-07-26T08:51:06Z</time>
      </trkpt>
      <trkpt lat="45.70302" lon="5.96723">
        <ele>713.44</ele>
        <time>2014-07-26T08:51:11Z</time>
      </trkpt>
      <trkpt lat="45.70297" lon="5.96726">
        <ele>714.4</ele>
        <time>2014-07-26T08:51:16Z</time>
      </trkpt>
      <trkpt lat="45.70291" lon="5.96729">
        <ele>715.36</ele>
        <time>2014-07-26T08:51:21Z</time>
      </trkpt>
      <trkpt lat="45.70286" lon="5.96732">
        <ele>716.32</ele>
        <time>2014-07-26T08:51:26Z</time>
      </trkpt>
      <trkpt lat="45.70281" lon="5.96736">
        <ele>716.8</ele>
        <time>2014-07-26T08:51:31Z</time>
      </trkpt>
      <trkpt lat="45.70277" lon="5.9674">
        <ele>717.28</ele>
        <time>2014-07-26T08:51:36Z</time>
      </trkpt>
      <trkpt lat="45.70275" lon="5.9674">
        <ele>716.8</ele>
        <time>2014-07-26T08:51:41Z</time>
      </trkpt>
      <trkpt lat="45.70274" lon="5.96742">
        <ele>717.28</ele>
        <time>2014-07-26T08:51:46Z</time>
      </trkpt>
      <trkpt lat="45.7027" lon="5.96748">
        <ele>717.76</ele>
        <time>2014-07-26T08:51:51Z</time>
      </trkpt>
      <trkpt lat="45.70264" lon="5.96752">
        <ele>718.72</ele>
        <time>2014-07-26T08:51:56Z</time>
      </trkpt>
      <trkpt lat="45.70259" lon="5.96756">
        <ele>719.2</ele>
        <time>2014-07-26T08:52:01Z</time>
      </trkpt>
      <trkpt lat="45.70253" lon="5.96761">
        <ele>720.16</ele>
        <time>2014-07-26T08:52:06Z</time>
      </trkpt>
      <trkpt lat="45.70247" lon="5.96766">
        <ele>720.65</ele>
        <time>2014-07-26T08:52:11Z</time>
      </trkpt>
      <trkpt lat="45.70241" lon="5.96768">
        <ele>721.13</ele>
        <time>2014-07-26T08:52:16Z</time>
      </trkpt>
      <trkpt lat="45.70234" lon="5.96771">
        <ele>722.09</ele>
        <time>2014-07-26T08:52:21Z</time>
      </trkpt>
      <trkpt lat="45.70226" lon="5.96777">
        <ele>723.53</ele>
        <time>2014-07-26T08:52:26Z</time>
      </trkpt>
      <trkpt lat="45.70219" lon="5.96782">
        <ele>724.49</ele>
        <time>2014-07-26T08:52:31Z</time>
      </trkpt>
      <trkpt lat="45.70213" lon="5.96788">
        <ele>726.41</ele>
        <time>2014-07-26T08:52:36Z</time>
      </trkpt>
      <trkpt lat="45.70203" lon="5.96796">
        <ele>727.86</ele>
        <time>2014-07-26T08:52:41Z</time>
      </trkpt>
      <trkpt lat="45.70197" lon="5.96804">
        <ele>728.82</ele>
        <time>2014-07-26T08:52:46Z</time>
      </trkpt>
      <trkpt lat="45.70192" lon="5.96811">
        <ele>729.78</ele>
        <time>2014-07-26T08:52:51Z</time>
      </trkpt>
      <trkpt lat="45.70187" lon="5.96817">
        <ele>730.74</ele>
        <time>2014-07-26T08:52:56Z</time>
      </trkpt>
      <trkpt lat="45.70182" lon="5.96824">
        <ele>731.7</ele>
        <time>2014-07-26T08:53:01Z</time>
      </trkpt>
      <trkpt lat="45.70177" lon="5.96827">
        <ele>734.1</ele>
        <time>2014-07-26T08:53:06Z</time>
      </trkpt>
      <trkpt lat="45.70172" lon="5.96828">
        <ele>735.07</ele>
        <time>2014-07-26T08:53:11Z</time>
      </trkpt>
      <trkpt lat="45.70169" lon="5.96828">
        <ele>736.03</ele>
        <time>2014-07-26T08:53:16Z</time>
      </trkpt>
      <trkpt lat="45.70162" lon="5.9683">
        <ele>738.43</ele>
        <time>2014-07-26T08:53:21Z</time>
      </trkpt>
      <trkpt lat="45.70157" lon="5.9683">
        <ele>739.39</ele>
        <time>2014-07-26T08:53:26Z</time>
      </trkpt>
      <trkpt lat="45.70155" lon="5.96827">
        <ele>739.87</ele>
        <time>2014-07-26T08:53:31Z</time>
      </trkpt>
      <trkpt lat="45.70149" lon="5.96825">
        <ele>739.87</ele>
        <time>2014-07-26T08:53:36Z</time>
      </trkpt>
      <trkpt lat="45.70149" lon="5.96831">
        <ele>740.35</ele>
        <time>2014-07-26T08:53:41Z</time>
      </trkpt>
      <trkpt lat="45.70153" lon="5.96829">
        <ele>739.39</ele>
        <time>2014-07-26T08:53:46Z</time>
      </trkpt>
      <trkpt lat="45.70155" lon="5.96821">
        <ele>738.91</ele>
        <time>2014-07-26T08:53:51Z</time>
      </trkpt>
      <trkpt lat="45.7015" lon="5.96816">
        <ele>739.39</ele>
        <time>2014-07-26T08:53:56Z</time>
      </trkpt>
      <trkpt lat="45.7015" lon="5.96821">
        <ele>739.39</ele>
        <time>2014-07-26T08:54:01Z</time>
      </trkpt>
      <trkpt lat="45.70151" lon="5.96827">
        <ele>739.87</ele>
        <time>2014-07-26T08:54:06Z</time>
      </trkpt>
      <trkpt lat="45.70151" lon="5.96833">
        <ele>739.87</ele>
        <time>2014-07-26T08:54:11Z</time>
      </trkpt>
      <trkpt lat="45.70148" lon="5.96837">
        <ele>740.35</ele>
        <time>2014-07-26T08:54:16Z</time>
      </trkpt>
      <trkpt lat="45.70146" lon="5.96835">
        <ele>740.35</ele>
        <time>2014-07-26T08:54:21Z</time>
      </trkpt>
      <trkpt lat="45.70144" lon="5.96831">
        <ele>740.35</ele>
        <time>2014-07-26T08:54:26Z</time>
      </trkpt>
      <trkpt lat="45.7014" lon="5.96829">
        <ele>740.83</ele>
        <time>2014-07-26T08:54:31Z</time>
      </trkpt>
      <trkpt lat="45.70137" lon="5.96826">
        <ele>742.28</ele>
        <time>2014-07-26T08:54:36Z</time>
      </trkpt>
      <trkpt lat="45.70133" lon="5.96821">
        <ele>742.28</ele>
        <time>2014-07-26T08:54:41Z</time>
      </trkpt>
      <trkpt lat="45.70128" lon="5.96817">
        <ele>742.76</ele>
        <time>2014-07-26T08:54:46Z</time>
      </trkpt>
      <trkpt lat="45.70124" lon="5.96812">
        <ele>743.24</ele>
        <time>2014-07-26T08:54:51Z</time>
      </trkpt>
      <trkpt lat="45.7012" lon="5.96805">
        <ele>744.68</ele>
        <time>2014-07-26T08:54:56Z</time>
      </trkpt>
      <trkpt lat="45.70116" lon="5.96799">
        <ele>745.64</ele>
        <time>2014-07-26T08:55:01Z</time>
      </trkpt>
      <trkpt lat="45.70112" lon="5.96793">
        <ele>746.12</ele>
        <time>2014-07-26T08:55:06Z</time>
      </trkpt>
      <trkpt lat="45.70107" lon="5.96786">
        <ele>746.6</ele>
        <time>2014-07-26T08:55:11Z</time>
      </trkpt>
      <trkpt lat="45.70102" lon="5.96779">
        <ele>747.56</ele>
        <time>2014-07-26T08:55:16Z</time>
      </trkpt>
      <trkpt lat="45.70098" lon="5.9677">
        <ele>748.52</ele>
        <time>2014-07-26T08:55:21Z</time>
      </trkpt>
      <trkpt lat="45.70097" lon="5.96761">
        <ele>749</ele>
        <time>2014-07-26T08:55:26Z</time>
      </trkpt>
      <trkpt lat="45.70099" lon="5.96751">
        <ele>749.97</ele>
        <time>2014-07-26T08:55:31Z</time>
      </trkpt>
      <trkpt lat="45.70099" lon="5.96741">
        <ele>749.97</ele>
        <time>2014-07-26T08:55:36Z</time>
      </trkpt>
      <trkpt lat="45.70097" lon="5.96731">
        <ele>750.93</ele>
        <time>2014-07-26T08:55:41Z</time>
      </trkpt>
      <trkpt lat="45.70095" lon="5.96721">
        <ele>751.89</ele>
        <time>2014-07-26T08:55:46Z</time>
      </trkpt>
      <trkpt lat="45.70087" lon="5.96718">
        <ele>751.41</ele>
        <time>2014-07-26T08:55:51Z</time>
      </trkpt>
      <trkpt lat="45.70081" lon="5.96719">
        <ele>752.85</ele>
        <time>2014-07-26T08:55:56Z</time>
      </trkpt>
      <trkpt lat="45.70077" lon="5.96724">
        <ele>753.33</ele>
        <time>2014-07-26T08:56:01Z</time>
      </trkpt>
      <trkpt lat="45.70075" lon="5.96728">
        <ele>752.85</ele>
        <time>2014-07-26T08:56:06Z</time>
      </trkpt>
      <trkpt lat="45.70075" lon="5.96734">
        <ele>752.37</ele>
        <time>2014-07-26T08:56:11Z</time>
      </trkpt>
      <trkpt lat="45.70072" lon="5.96743">
        <ele>752.37</ele>
        <time>2014-07-26T08:56:16Z</time>
      </trkpt>
      <trkpt lat="45.7007" lon="5.96754">
        <ele>752.37</ele>
        <time>2014-07-26T08:56:21Z</time>
      </trkpt>
      <trkpt lat="45.70067" lon="5.96764">
        <ele>752.37</ele>
        <time>2014-07-26T08:56:26Z</time>
      </trkpt>
      <trkpt lat="45.70065" lon="5.96775">
        <ele>752.37</ele>
        <time>2014-07-26T08:56:31Z</time>
      </trkpt>
      <trkpt lat="45.70062" lon="5.96791">
        <ele>752.85</ele>
        <time>2014-07-26T08:56:36Z</time>
      </trkpt>
      <trkpt lat="45.70063" lon="5.9681">
        <ele>752.85</ele>
        <time>2014-07-26T08:56:41Z</time>
      </trkpt>
      <trkpt lat="45.70063" lon="5.96828">
        <ele>753.33</ele>
        <time>2014-07-26T08:56:46Z</time>
      </trkpt>
      <trkpt lat="45.70064" lon="5.96844">
        <ele>753.33</ele>
        <time>2014-07-26T08:56:51Z</time>
      </trkpt>
      <trkpt lat="45.70064" lon="5.96859">
        <ele>754.29</ele>
        <time>2014-07-26T08:56:56Z</time>
      </trkpt>
      <trkpt lat="45.70065" lon="5.96876">
        <ele>754.77</ele>
        <time>2014-07-26T08:57:01Z</time>
      </trkpt>
      <trkpt lat="45.70065" lon="5.96891">
        <ele>755.73</ele>
        <time>2014-07-26T08:57:06Z</time>
      </trkpt>
      <trkpt lat="45.70066" lon="5.96905">
        <ele>755.73</ele>
        <time>2014-07-26T08:57:11Z</time>
      </trkpt>
      <trkpt lat="45.70067" lon="5.96918">
        <ele>756.69</ele>
        <time>2014-07-26T08:57:16Z</time>
      </trkpt>
      <trkpt lat="45.70069" lon="5.9693">
        <ele>757.18</ele>
        <time>2014-07-26T08:57:21Z</time>
      </trkpt>
      <trkpt lat="45.7007" lon="5.96943">
        <ele>758.14</ele>
        <time>2014-07-26T08:57:26Z</time>
      </trkpt>
      <trkpt lat="45.70072" lon="5.96954">
        <ele>759.1</ele>
        <time>2014-07-26T08:57:31Z</time>
      </trkpt>
      <trkpt lat="45.70075" lon="5.96963">
        <ele>759.58</ele>
        <time>2014-07-26T08:57:36Z</time>
      </trkpt>
      <trkpt lat="45.70078" lon="5.96974">
        <ele>760.54</ele>
        <time>2014-07-26T08:57:41Z</time>
      </trkpt>
      <trkpt lat="45.70081" lon="5.96983">
        <ele>761.5</ele>
        <time>2014-07-26T08:57:46Z</time>
      </trkpt>
      <trkpt lat="45.70082" lon="5.96995">
        <ele>761.98</ele>
        <time>2014-07-26T08:57:51Z</time>
      </trkpt>
      <trkpt lat="45.70086" lon="5.97006">
        <ele>762.46</ele>
        <time>2014-07-26T08:57:56Z</time>
      </trkpt>
      <trkpt lat="45.70091" lon="5.97021">
        <ele>762.94</ele>
        <time>2014-07-26T08:58:01Z</time>
      </trkpt>
      <trkpt lat="45.70095" lon="5.97033">
        <ele>763.42</ele>
        <time>2014-07-26T08:58:06Z</time>
      </trkpt>
      <trkpt lat="45.70098" lon="5.97045">
        <ele>764.87</ele>
        <time>2014-07-26T08:58:11Z</time>
      </trkpt>
      <trkpt lat="45.701" lon="5.97056">
        <ele>764.87</ele>
        <time>2014-07-26T08:58:16Z</time>
      </trkpt>
      <trkpt lat="45.70101" lon="5.97067">
        <ele>765.35</ele>
        <time>2014-07-26T08:58:21Z</time>
      </trkpt>
      <trkpt lat="45.70102" lon="5.97077">
        <ele>765.35</ele>
        <time>2014-07-26T08:58:26Z</time>
      </trkpt>
      <trkpt lat="45.70102" lon="5.97087">
        <ele>766.31</ele>
        <time>2014-07-26T08:58:31Z</time>
      </trkpt>
      <trkpt lat="45.70102" lon="5.97097">
        <ele>766.79</ele>
        <time>2014-07-26T08:58:36Z</time>
      </trkpt>
      <trkpt lat="45.70103" lon="5.97106">
        <ele>768.23</ele>
        <time>2014-07-26T08:58:41Z</time>
      </trkpt>
      <trkpt lat="45.70104" lon="5.97115">
        <ele>768.71</ele>
        <time>2014-07-26T08:58:46Z</time>
      </trkpt>
      <trkpt lat="45.70104" lon="5.97127">
        <ele>769.19</ele>
        <time>2014-07-26T08:58:51Z</time>
      </trkpt>
      <trkpt lat="45.70104" lon="5.97137">
        <ele>770.15</ele>
        <time>2014-07-26T08:58:56Z</time>
      </trkpt>
      <trkpt lat="45.70104" lon="5.97148">
        <ele>770.63</ele>
        <time>2014-07-26T08:59:01Z</time>
      </trkpt>
      <trkpt lat="45.70103" lon="5.97156">
        <ele>771.11</ele>
        <time>2014-07-26T08:59:06Z</time>
      </trkpt>
      <trkpt lat="45.70103" lon="5.97165">
        <ele>772.08</ele>
        <time>2014-07-26T08:59:11Z</time>
      </trkpt>
      <trkpt lat="45.70103" lon="5.97175">
        <ele>772.56</ele>
        <time>2014-07-26T08:59:16Z</time>
      </trkpt>
      <trkpt lat="45.70104" lon="5.97184">
        <ele>773.04</ele>
        <time>2014-07-26T08:59:21Z</time>
      </trkpt>
      <trkpt lat="45.70105" lon="5.97194">
        <ele>773.52</ele>
        <time>2014-07-26T08:59:26Z</time>
      </trkpt>
      <trkpt lat="45.70106" lon="5.97205">
        <ele>774.48</ele>
        <time>2014-07-26T08:59:31Z</time>
      </trkpt>
      <trkpt lat="45.70108" lon="5.97215">
        <ele>774.96</ele>
        <time>2014-07-26T08:59:36Z</time>
      </trkpt>
      <trkpt lat="45.70108" lon="5.97224">
        <ele>775.92</ele>
        <time>2014-07-26T08:59:41Z</time>
      </trkpt>
      <trkpt lat="45.70108" lon="5.97233">
        <ele>776.4</ele>
        <time>2014-07-26T08:59:46Z</time>
      </trkpt>
      <trkpt lat="45.70108" lon="5.97243">
        <ele>777.36</ele>
        <time>2014-07-26T08:59:51Z</time>
      </trkpt>
      <trkpt lat="45.70106" lon="5.97251">
        <ele>778.32</ele>
        <time>2014-07-26T08:59:56Z</time>
      </trkpt>
      <trkpt lat="45.70104" lon="5.9726">
        <ele>779.77</ele>
        <time>2014-07-26T09:00:01Z</time>
      </trkpt>
      <trkpt lat="45.701" lon="5.97267">
        <ele>780.25</ele>
        <time>2014-07-26T09:00:06Z</time>
      </trkpt>
      <trkpt lat="45.70096" lon="5.97275">
        <ele>781.21</ele>
        <time>2014-07-26T09:00:11Z</time>
      </trkpt>
      <trkpt lat="45.70092" lon="5.97283">
        <ele>782.17</ele>
        <time>2014-07-26T09:00:16Z</time>
      </trkpt>
      <trkpt lat="45.70088" lon="5.97288">
        <ele>783.13</ele>
        <time>2014-07-26T09:00:21Z</time>
      </trkpt>
      <trkpt lat="45.70084" lon="5.97294">
        <ele>784.09</ele>
        <time>2014-07-26T09:00:26Z</time>
      </trkpt>
      <trkpt lat="45.7008" lon="5.973">
        <ele>785.53</ele>
        <time>2014-07-26T09:00:31Z</time>
      </trkpt>
      <trkpt lat="45.70076" lon="5.97309">
        <ele>786.5</ele>
        <time>2014-07-26T09:00:36Z</time>
      </trkpt>
      <trkpt lat="45.70072" lon="5.97319">
        <ele>788.42</ele>
        <time>2014-07-26T09:00:41Z</time>
      </trkpt>
      <trkpt lat="45.70073" lon="5.97327">
        <ele>787.94</ele>
        <time>2014-07-26T09:00:46Z</time>
      </trkpt>
      <trkpt lat="45.70084" lon="5.97332">
        <ele>788.42</ele>
        <time>2014-07-26T09:00:51Z</time>
      </trkpt>
      <trkpt lat="45.70088" lon="5.97329">
        <ele>788.42</ele>
        <time>2014-07-26T09:00:56Z</time>
      </trkpt>
      <trkpt lat="45.70084" lon="5.97328">
        <ele>788.42</ele>
        <time>2014-07-26T09:01:01Z</time>
      </trkpt>
      <trkpt lat="45.7008" lon="5.97328">
        <ele>788.42</ele>
        <time>2014-07-26T09:01:06Z</time>
      </trkpt>
      <trkpt lat="45.70078" lon="5.97333">
        <ele>788.42</ele>
        <time>2014-07-26T09:01:11Z</time>
      </trkpt>
      <trkpt lat="45.70087" lon="5.97335">
        <ele>788.42</ele>
        <time>2014-07-26T09:01:16Z</time>
      </trkpt>
      <trkpt lat="45.70093" lon="5.97342">
        <ele>787.94</ele>
        <time>2014-07-26T09:01:21Z</time>
      </trkpt>
      <trkpt lat="45.70093" lon="5.97344">
        <ele>788.42</ele>
        <time>2014-07-26T09:01:26Z</time>
      </trkpt>
      <trkpt lat="45.7009" lon="5.97341">
        <ele>788.9</ele>
        <time>2014-07-26T09:01:31Z</time>
      </trkpt>
      <trkpt lat="45.7009" lon="5.97336">
        <ele>788.42</ele>
        <time>2014-07-26T09:01:36Z</time>
      </trkpt>
      <trkpt lat="45.70089" lon="5.97332">
        <ele>788.42</ele>
        <time>2014-07-26T09:01:41Z</time>
      </trkpt>
      <trkpt lat="45.70086" lon="5.97326">
        <ele>788.9</ele>
        <time>2014-07-26T09:01:46Z</time>
      </trkpt>
      <trkpt lat="45.70082" lon="5.97329">
        <ele>788.9</ele>
        <time>2014-07-26T09:01:51Z</time>
      </trkpt>
      <trkpt lat="45.70085" lon="5.97329">
        <ele>788.42</ele>
        <time>2014-07-26T09:01:56Z</time>
      </trkpt>
      <trkpt lat="45.70085" lon="5.97329">
        <ele>787.94</ele>
        <time>2014-07-26T09:02:01Z</time>
      </trkpt>
      <trkpt lat="45.70085" lon="5.97329">
        <ele>788.9</ele>
        <time>2014-07-26T09:02:06Z</time>
      </trkpt>
      <trkpt lat="45.70085" lon="5.97329">
        <ele>788.9</ele>
        <time>2014-07-26T09:02:11Z</time>
      </trkpt>
      <trkpt lat="45.70085" lon="5.97329">
        <ele>788.9</ele>
        <time>2014-07-26T09:02:16Z</time>
      </trkpt>
      <trkpt lat="45.70085" lon="5.97329">
        <ele>788.9</ele>
        <time>2014-07-26T09:02:21Z</time>
      </trkpt>
      <trkpt lat="45.70085" lon="5.97329">
        <ele>787.94</ele>
        <time>2014-07-26T09:02:26Z</time>
      </trkpt>
      <trkpt lat="45.70086" lon="5.97329">
        <ele>788.42</ele>
        <time>2014-07-26T09:02:31Z</time>
      </trkpt>
      <trkpt lat="45.70085" lon="5.97329">
        <ele>788.42</ele>
        <time>2014-07-26T09:02:36Z</time>
      </trkpt>
      <trkpt lat="45.70085" lon="5.97329">
        <ele>788.42</ele>
        <time>2014-07-26T09:02:41Z</time>
      </trkpt>
      <trkpt lat="45.70085" lon="5.97329">
        <ele>788.42</ele>
        <time>2014-07-26T09:02:46Z</time>
      </trkpt>
      <trkpt lat="45.70085" lon="5.97329">
        <ele>788.42</ele>
        <time>2014-07-26T09:02:51Z</time>
      </trkpt>
      <trkpt lat="45.70085" lon="5.97329">
        <ele>788.42</ele>
        <time>2014-07-26T09:02:56Z</time>
      </trkpt>
      <trkpt lat="45.70085" lon="5.97329">
        <ele>788.9</ele>
        <time>2014-07-26T09:03:01Z</time>
      </trkpt>
      <trkpt lat="45.70085" lon="5.97329">
        <ele>788.9</ele>
        <time>2014-07-26T09:03:06Z</time>
      </trkpt>
      <trkpt lat="45.70085" lon="5.97329">
        <ele>788.9</ele>
        <time>2014-07-26T09:03:11Z</time>
      </trkpt>
      <trkpt lat="45.70086" lon="5.97329">
        <ele>789.38</ele>
        <time>2014-07-26T09:03:16Z</time>
      </trkpt>
      <trkpt lat="45.70086" lon="5.97329">
        <ele>788.9</ele>
        <time>2014-07-26T09:03:21Z</time>
      </trkpt>
      <trkpt lat="45.70086" lon="5.97329">
        <ele>788.9</ele>
        <time>2014-07-26T09:03:26Z</time>
      </trkpt>
      <trkpt lat="45.70086" lon="5.97329">
        <ele>788.9</ele>
        <time>2014-07-26T09:03:31Z</time>
      </trkpt>
      <trkpt lat="45.70086" lon="5.97329">
        <ele>788.9</ele>
        <time>2014-07-26T09:03:36Z</time>
      </trkpt>
      <trkpt lat="45.70086" lon="5.97329">
        <ele>788.9</ele>
        <time>2014-07-26T09:03:41Z</time>
      </trkpt>
      <trkpt lat="45.70086" lon="5.97329">
        <ele>789.38</ele>
        <time>2014-07-26T09:03:46Z</time>
      </trkpt>
      <trkpt lat="45.70086" lon="5.97329">
        <ele>788.9</ele>
        <time>2014-07-26T09:03:51Z</time>
      </trkpt>
      <trkpt lat="45.70086" lon="5.97329">
        <ele>788.9</ele>
        <time>2014-07-26T09:03:56Z</time>
      </trkpt>
      <trkpt lat="45.70086" lon="5.97329">
        <ele>789.38</ele>
        <time>2014-07-26T09:04:01Z</time>
      </trkpt>
      <trkpt lat="45.70086" lon="5.97329">
        <ele>788.42</ele>
        <time>2014-07-26T09:04:06Z</time>
      </trkpt>
      <trkpt lat="45.70086" lon="5.97329">
        <ele>789.38</ele>
        <time>2014-07-26T09:04:11Z</time>
      </trkpt>
      <trkpt lat="45.70086" lon="5.97329">
        <ele>788.9</ele>
        <time>2014-07-26T09:04:16Z</time>
      </trkpt>
      <trkpt lat="45.70086" lon="5.97333">
        <ele>789.38</ele>
        <time>2014-07-26T09:04:21Z</time>
      </trkpt>
      <trkpt lat="45.70082" lon="5.97336">
        <ele>788.9</ele>
        <time>2014-07-26T09:04:26Z</time>
      </trkpt>
      <trkpt lat="45.70077" lon="5.97331">
        <ele>789.38</ele>
        <time>2014-07-26T09:04:31Z</time>
      </trkpt>
      <trkpt lat="45.70071" lon="5.97324">
        <ele>789.38</ele>
        <time>2014-07-26T09:04:36Z</time>
      </trkpt>
      <trkpt lat="45.70064" lon="5.97318">
        <ele>790.34</ele>
        <time>2014-07-26T09:04:41Z</time>
      </trkpt>
      <trkpt lat="45.70057" lon="5.97313">
        <ele>791.3</ele>
        <time>2014-07-26T09:04:46Z</time>
      </trkpt>
      <trkpt lat="45.70051" lon="5.97309">
        <ele>792.26</ele>
        <time>2014-07-26T09:04:51Z</time>
      </trkpt>
      <trkpt lat="45.70045" lon="5.97304">
        <ele>793.22</ele>
        <time>2014-07-26T09:04:56Z</time>
      </trkpt>
      <trkpt lat="45.70042" lon="5.97305">
        <ele>793.22</ele>
        <time>2014-07-26T09:05:01Z</time>
      </trkpt>
      <trkpt lat="45.70034" lon="5.97309">
        <ele>794.67</ele>
        <time>2014-07-26T09:05:06Z</time>
      </trkpt>
      <trkpt lat="45.70028" lon="5.97313">
        <ele>796.59</ele>
        <time>2014-07-26T09:05:11Z</time>
      </trkpt>
      <trkpt lat="45.70021" lon="5.97318">
        <ele>797.07</ele>
        <time>2014-07-26T09:05:16Z</time>
      </trkpt>
      <trkpt lat="45.70018" lon="5.97326">
        <ele>798.99</ele>
        <time>2014-07-26T09:05:21Z</time>
      </trkpt>
      <trkpt lat="45.70018" lon="5.97328">
        <ele>798.51</ele>
        <time>2014-07-26T09:05:26Z</time>
      </trkpt>
      <trkpt lat="45.7002" lon="5.97335">
        <ele>798.51</ele>
        <time>2014-07-26T09:05:31Z</time>
      </trkpt>
      <trkpt lat="45.70022" lon="5.97344">
        <ele>798.99</ele>
        <time>2014-07-26T09:05:36Z</time>
      </trkpt>
      <trkpt lat="45.70023" lon="5.9735">
        <ele>798.99</ele>
        <time>2014-07-26T09:05:41Z</time>
      </trkpt>
      <trkpt lat="45.70023" lon="5.9735">
        <ele>799.95</ele>
        <time>2014-07-26T09:05:46Z</time>
      </trkpt>
      <trkpt lat="45.70024" lon="5.97351">
        <ele>800.44</ele>
        <time>2014-07-26T09:05:51Z</time>
      </trkpt>
      <trkpt lat="45.70027" lon="5.9736">
        <ele>800.44</ele>
        <time>2014-07-26T09:05:56Z</time>
      </trkpt>
      <trkpt lat="45.70031" lon="5.97371">
        <ele>801.4</ele>
        <time>2014-07-26T09:06:01Z</time>
      </trkpt>
      <trkpt lat="45.70034" lon="5.97378">
        <ele>803.32</ele>
        <time>2014-07-26T09:06:06Z</time>
      </trkpt>
      <trkpt lat="45.70035" lon="5.97383">
        <ele>803.32</ele>
        <time>2014-07-26T09:06:11Z</time>
      </trkpt>
      <trkpt lat="45.70035" lon="5.97385">
        <ele>803.32</ele>
        <time>2014-07-26T09:06:16Z</time>
      </trkpt>
      <trkpt lat="45.70038" lon="5.97391">
        <ele>804.76</ele>
        <time>2014-07-26T09:06:21Z</time>
      </trkpt>
      <trkpt lat="45.7004" lon="5.97396">
        <ele>804.28</ele>
        <time>2014-07-26T09:06:26Z</time>
      </trkpt>
      <trkpt lat="45.70041" lon="5.97399">
        <ele>804.76</ele>
        <time>2014-07-26T09:06:31Z</time>
      </trkpt>
      <trkpt lat="45.70042" lon="5.97401">
        <ele>806.68</ele>
        <time>2014-07-26T09:06:36Z</time>
      </trkpt>
      <trkpt lat="45.70044" lon="5.97406">
        <ele>807.16</ele>
        <time>2014-07-26T09:06:41Z</time>
      </trkpt>
      <trkpt lat="45.70045" lon="5.97411">
        <ele>807.16</ele>
        <time>2014-07-26T09:06:46Z</time>
      </trkpt>
      <trkpt lat="45.70046" lon="5.97411">
        <ele>807.16</ele>
        <time>2014-07-26T09:06:51Z</time>
      </trkpt>
      <trkpt lat="45.70046" lon="5.97411">
        <ele>807.16</ele>
        <time>2014-07-26T09:06:56Z</time>
      </trkpt>
      <trkpt lat="45.70046" lon="5.97411">
        <ele>807.16</ele>
        <time>2014-07-26T09:07:01Z</time>
      </trkpt>
      <trkpt lat="45.70046" lon="5.97411">
        <ele>807.16</ele>
        <time>2014-07-26T09:07:06Z</time>
      </trkpt>
      <trkpt lat="45.70045" lon="5.97414">
        <ele>808.13</ele>
        <time>2014-07-26T09:07:11Z</time>
      </trkpt>
      <trkpt lat="45.70045" lon="5.97415">
        <ele>809.09</ele>
        <time>2014-07-26T09:07:16Z</time>
      </trkpt>
      <trkpt lat="45.70045" lon="5.97418">
        <ele>808.61</ele>
        <time>2014-07-26T09:07:21Z</time>
      </trkpt>
      <trkpt lat="45.70048" lon="5.97425">
        <ele>808.61</ele>
        <time>2014-07-26T09:07:26Z</time>
      </trkpt>
      <trkpt lat="45.70048" lon="5.97432">
        <ele>810.53</ele>
        <time>2014-07-26T09:07:31Z</time>
      </trkpt>
      <trkpt lat="45.70049" lon="5.9744">
        <ele>811.49</ele>
        <time>2014-07-26T09:07:36Z</time>
      </trkpt>
      <trkpt lat="45.70051" lon="5.97447">
        <ele>811.97</ele>
        <time>2014-07-26T09:07:41Z</time>
      </trkpt>
      <trkpt lat="45.70053" lon="5.97449">
        <ele>812.93</ele>
        <time>2014-07-26T09:07:46Z</time>
      </trkpt>
      <trkpt lat="45.70053" lon="5.97449">
        <ele>812.45</ele>
        <time>2014-07-26T09:07:51Z</time>
      </trkpt>
      <trkpt lat="45.70053" lon="5.97449">
        <ele>811.97</ele>
        <time>2014-07-26T09:07:56Z</time>
      </trkpt>
      <trkpt lat="45.70053" lon="5.97449">
        <ele>812.45</ele>
        <time>2014-07-26T09:08:01Z</time>
      </trkpt>
      <trkpt lat="45.70053" lon="5.97449">
        <ele>813.41</ele>
        <time>2014-07-26T09:08:06Z</time>
      </trkpt>
      <trkpt lat="45.70055" lon="5.97451">
        <ele>813.41</ele>
        <time>2014-07-26T09:08:11Z</time>
      </trkpt>
      <trkpt lat="45.70058" lon="5.97457">
        <ele>814.37</ele>
        <time>2014-07-26T09:08:16Z</time>
      </trkpt>
      <trkpt lat="45.70059" lon="5.97462">
        <ele>813.89</ele>
        <time>2014-07-26T09:08:21Z</time>
      </trkpt>
      <trkpt lat="45.70059" lon="5.97462">
        <ele>814.37</ele>
        <time>2014-07-26T09:08:26Z</time>
      </trkpt>
      <trkpt lat="45.7006" lon="5.97466">
        <ele>815.34</ele>
        <time>2014-07-26T09:08:31Z</time>
      </trkpt>
      <trkpt lat="45.70063" lon="5.97477">
        <ele>817.26</ele>
        <time>2014-07-26T09:08:36Z</time>
      </trkpt>
      <trkpt lat="45.70067" lon="5.9749">
        <ele>817.74</ele>
        <time>2014-07-26T09:08:41Z</time>
      </trkpt>
      <trkpt lat="45.70072" lon="5.97497">
        <ele>819.18</ele>
        <time>2014-07-26T09:08:46Z</time>
      </trkpt>
      <trkpt lat="45.70075" lon="5.97505">
        <ele>820.62</ele>
        <time>2014-07-26T09:08:51Z</time>
      </trkpt>
      <trkpt lat="45.70078" lon="5.97512">
        <ele>821.1</ele>
        <time>2014-07-26T09:08:56Z</time>
      </trkpt>
      <trkpt lat="45.70082" lon="5.97521">
        <ele>823.03</ele>
        <time>2014-07-26T09:09:01Z</time>
      </trkpt>
      <trkpt lat="45.70084" lon="5.97529">
        <ele>823.51</ele>
        <time>2014-07-26T09:09:06Z</time>
      </trkpt>
      <trkpt lat="45.70085" lon="5.97536">
        <ele>825.91</ele>
        <time>2014-07-26T09:09:11Z</time>
      </trkpt>
      <trkpt lat="45.70087" lon="5.97545">
        <ele>825.91</ele>
        <time>2014-07-26T09:09:16Z</time>
      </trkpt>
      <trkpt lat="45.70087" lon="5.97556">
        <ele>827.35</ele>
        <time>2014-07-26T09:09:21Z</time>
      </trkpt>
      <trkpt lat="45.70087" lon="5.97565">
        <ele>827.83</ele>
        <time>2014-07-26T09:09:26Z</time>
      </trkpt>
      <trkpt lat="45.70085" lon="5.97572">
        <ele>828.31</ele>
        <time>2014-07-26T09:09:31Z</time>
      </trkpt>
      <trkpt lat="45.70085" lon="5.97572">
        <ele>828.79</ele>
        <time>2014-07-26T09:09:36Z</time>
      </trkpt>
      <trkpt lat="45.70086" lon="5.97573">
        <ele>828.79</ele>
        <time>2014-07-26T09:09:41Z</time>
      </trkpt>
      <trkpt lat="45.70086" lon="5.97573">
        <ele>829.76</ele>
        <time>2014-07-26T09:09:46Z</time>
      </trkpt>
      <trkpt lat="45.70087" lon="5.97579">
        <ele>829.27</ele>
        <time>2014-07-26T09:09:51Z</time>
      </trkpt>
      <trkpt lat="45.70087" lon="5.97579">
        <ele>829.76</ele>
        <time>2014-07-26T09:09:56Z</time>
      </trkpt>
      <trkpt lat="45.70087" lon="5.97579">
        <ele>829.27</ele>
        <time>2014-07-26T09:10:01Z</time>
      </trkpt>
      <trkpt lat="45.70087" lon="5.97579">
        <ele>829.76</ele>
        <time>2014-07-26T09:10:06Z</time>
      </trkpt>
      <trkpt lat="45.70087" lon="5.97579">
        <ele>829.76</ele>
        <time>2014-07-26T09:10:11Z</time>
      </trkpt>
      <trkpt lat="45.70087" lon="5.97579">
        <ele>830.24</ele>
        <time>2014-07-26T09:10:16Z</time>
      </trkpt>
      <trkpt lat="45.70089" lon="5.97583">
        <ele>830.72</ele>
        <time>2014-07-26T09:10:21Z</time>
      </trkpt>
      <trkpt lat="45.70086" lon="5.97592">
        <ele>830.72</ele>
        <time>2014-07-26T09:10:26Z</time>
      </trkpt>
      <trkpt lat="45.70079" lon="5.97595">
        <ele>832.16</ele>
        <time>2014-07-26T09:10:31Z</time>
      </trkpt>
      <trkpt lat="45.70075" lon="5.97596">
        <ele>833.12</ele>
        <time>2014-07-26T09:10:36Z</time>
      </trkpt>
      <trkpt lat="45.70069" lon="5.97598">
        <ele>833.6</ele>
        <time>2014-07-26T09:10:41Z</time>
      </trkpt>
      <trkpt lat="45.70064" lon="5.97599">
        <ele>835.04</ele>
        <time>2014-07-26T09:10:46Z</time>
      </trkpt>
      <trkpt lat="45.70059" lon="5.976">
        <ele>836</ele>
        <time>2014-07-26T09:10:51Z</time>
      </trkpt>
      <trkpt lat="45.70057" lon="5.97601">
        <ele>836.96</ele>
        <time>2014-07-26T09:10:56Z</time>
      </trkpt>
      <trkpt lat="45.70055" lon="5.97599">
        <ele>837.45</ele>
        <time>2014-07-26T09:11:01Z</time>
      </trkpt>
      <trkpt lat="45.70053" lon="5.97596">
        <ele>837.45</ele>
        <time>2014-07-26T09:11:06Z</time>
      </trkpt>
      <trkpt lat="45.70053" lon="5.97594">
        <ele>838.89</ele>
        <time>2014-07-26T09:11:11Z</time>
      </trkpt>
      <trkpt lat="45.70053" lon="5.9759">
        <ele>838.89</ele>
        <time>2014-07-26T09:11:16Z</time>
      </trkpt>
      <trkpt lat="45.70054" lon="5.97585">
        <ele>837.93</ele>
        <time>2014-07-26T09:11:21Z</time>
      </trkpt>
      <trkpt lat="45.70054" lon="5.9758">
        <ele>838.89</ele>
        <time>2014-07-26T09:11:26Z</time>
      </trkpt>
      <trkpt lat="45.70048" lon="5.97577">
        <ele>839.37</ele>
        <time>2014-07-26T09:11:31Z</time>
      </trkpt>
      <trkpt lat="45.70047" lon="5.97581">
        <ele>839.37</ele>
        <time>2014-07-26T09:11:36Z</time>
      </trkpt>
      <trkpt lat="45.70048" lon="5.97584">
        <ele>838.89</ele>
        <time>2014-07-26T09:11:41Z</time>
      </trkpt>
      <trkpt lat="45.70051" lon="5.97588">
        <ele>838.41</ele>
        <time>2014-07-26T09:11:46Z</time>
      </trkpt>
      <trkpt lat="45.70057" lon="5.97584">
        <ele>838.41</ele>
        <time>2014-07-26T09:11:51Z</time>
      </trkpt>
      <trkpt lat="45.70053" lon="5.97579">
        <ele>838.89</ele>
        <time>2014-07-26T09:11:56Z</time>
      </trkpt>
      <trkpt lat="45.70048" lon="5.97584">
        <ele>838.89</ele>
        <time>2014-07-26T09:12:01Z</time>
      </trkpt>
      <trkpt lat="45.70048" lon="5.97586">
        <ele>838.41</ele>
        <time>2014-07-26T09:12:06Z</time>
      </trkpt>
      <trkpt lat="45.70048" lon="5.97586">
        <ele>838.89</ele>
        <time>2014-07-26T09:12:11Z</time>
      </trkpt>
      <trkpt lat="45.70048" lon="5.97586">
        <ele>838.89</ele>
        <time>2014-07-26T09:12:16Z</time>
      </trkpt>
      <trkpt lat="45.70048" lon="5.97586">
        <ele>838.41</ele>
        <time>2014-07-26T09:12:21Z</time>
      </trkpt>
      <trkpt lat="45.70048" lon="5.97586">
        <ele>838.89</ele>
        <time>2014-07-26T09:12:26Z</time>
      </trkpt>
      <trkpt lat="45.70048" lon="5.97586">
        <ele>838.89</ele>
        <time>2014-07-26T09:12:31Z</time>
      </trkpt>
      <trkpt lat="45.70048" lon="5.97586">
        <ele>839.37</ele>
        <time>2014-07-26T09:12:36Z</time>
      </trkpt>
      <trkpt lat="45.70048" lon="5.97586">
        <ele>839.37</ele>
        <time>2014-07-26T09:12:41Z</time>
      </trkpt>
      <trkpt lat="45.70048" lon="5.97585">
        <ele>839.85</ele>
        <time>2014-07-26T09:12:46Z</time>
      </trkpt>
      <trkpt lat="45.70048" lon="5.97584">
        <ele>839.37</ele>
        <time>2014-07-26T09:12:51Z</time>
      </trkpt>
      <trkpt lat="45.7005" lon="5.9758">
        <ele>838.89</ele>
        <time>2014-07-26T09:12:56Z</time>
      </trkpt>
      <trkpt lat="45.70053" lon="5.97579">
        <ele>839.37</ele>
        <time>2014-07-26T09:13:01Z</time>
      </trkpt>
      <trkpt lat="45.7005" lon="5.97578">
        <ele>839.85</ele>
        <time>2014-07-26T09:13:06Z</time>
      </trkpt>
      <trkpt lat="45.70049" lon="5.97578">
        <ele>839.85</ele>
        <time>2014-07-26T09:13:11Z</time>
      </trkpt>
      <trkpt lat="45.70049" lon="5.97578">
        <ele>839.85</ele>
        <time>2014-07-26T09:13:16Z</time>
      </trkpt>
      <trkpt lat="45.70049" lon="5.97578">
        <ele>840.33</ele>
        <time>2014-07-26T09:13:21Z</time>
      </trkpt>
      <trkpt lat="45.70049" lon="5.97578">
        <ele>840.33</ele>
        <time>2014-07-26T09:13:26Z</time>
      </trkpt>
      <trkpt lat="45.70049" lon="5.97578">
        <ele>839.85</ele>
        <time>2014-07-26T09:13:31Z</time>
      </trkpt>
      <trkpt lat="45.70049" lon="5.97578">
        <ele>839.85</ele>
        <time>2014-07-26T09:13:36Z</time>
      </trkpt>
      <trkpt lat="45.70049" lon="5.97578">
        <ele>839.85</ele>
        <time>2014-07-26T09:13:41Z</time>
      </trkpt>
      <trkpt lat="45.70049" lon="5.97578">
        <ele>839.85</ele>
        <time>2014-07-26T09:13:46Z</time>
      </trkpt>
      <trkpt lat="45.70049" lon="5.97578">
        <ele>839.37</ele>
        <time>2014-07-26T09:13:51Z</time>
      </trkpt>
      <trkpt lat="45.70049" lon="5.97578">
        <ele>839.37</ele>
        <time>2014-07-26T09:13:56Z</time>
      </trkpt>
      <trkpt lat="45.70049" lon="5.97578">
        <ele>839.37</ele>
        <time>2014-07-26T09:14:01Z</time>
      </trkpt>
      <trkpt lat="45.70049" lon="5.97578">
        <ele>839.85</ele>
        <time>2014-07-26T09:14:06Z</time>
      </trkpt>
      <trkpt lat="45.70049" lon="5.97578">
        <ele>839.37</ele>
        <time>2014-07-26T09:14:11Z</time>
      </trkpt>
      <trkpt lat="45.70049" lon="5.97578">
        <ele>839.85</ele>
        <time>2014-07-26T09:14:16Z</time>
      </trkpt>
      <trkpt lat="45.70048" lon="5.97578">
        <ele>839.85</ele>
        <time>2014-07-26T09:14:21Z</time>
      </trkpt>
      <trkpt lat="45.70048" lon="5.97578">
        <ele>839.37</ele>
        <time>2014-07-26T09:14:26Z</time>
      </trkpt>
      <trkpt lat="45.70048" lon="5.97582">
        <ele>839.85</ele>
        <time>2014-07-26T09:14:31Z</time>
      </trkpt>
      <trkpt lat="45.70045" lon="5.97591">
        <ele>839.85</ele>
        <time>2014-07-26T09:14:36Z</time>
      </trkpt>
      <trkpt lat="45.7004" lon="5.97599">
        <ele>840.81</ele>
        <time>2014-07-26T09:14:41Z</time>
      </trkpt>
      <trkpt lat="45.70033" lon="5.97606">
        <ele>842.73</ele>
        <time>2014-07-26T09:14:46Z</time>
      </trkpt>
      <trkpt lat="45.70028" lon="5.97613">
        <ele>842.73</ele>
        <time>2014-07-26T09:14:51Z</time>
      </trkpt>
      <trkpt lat="45.70022" lon="5.97619">
        <ele>843.69</ele>
        <time>2014-07-26T09:14:56Z</time>
      </trkpt>
      <trkpt lat="45.70015" lon="5.97623">
        <ele>844.66</ele>
        <time>2014-07-26T09:15:01Z</time>
      </trkpt>
      <trkpt lat="45.70009" lon="5.9763">
        <ele>845.14</ele>
        <time>2014-07-26T09:15:06Z</time>
      </trkpt>
      <trkpt lat="45.70003" lon="5.97635">
        <ele>846.1</ele>
        <time>2014-07-26T09:15:11Z</time>
      </trkpt>
      <trkpt lat="45.69997" lon="5.97641">
        <ele>847.06</ele>
        <time>2014-07-26T09:15:16Z</time>
      </trkpt>
      <trkpt lat="45.6999" lon="5.97645">
        <ele>848.02</ele>
        <time>2014-07-26T09:15:21Z</time>
      </trkpt>
      <trkpt lat="45.69983" lon="5.97649">
        <ele>848.98</ele>
        <time>2014-07-26T09:15:26Z</time>
      </trkpt>
      <trkpt lat="45.69977" lon="5.97654">
        <ele>850.9</ele>
        <time>2014-07-26T09:15:31Z</time>
      </trkpt>
      <trkpt lat="45.69976" lon="5.97654">
        <ele>851.38</ele>
        <time>2014-07-26T09:15:36Z</time>
      </trkpt>
      <trkpt lat="45.69976" lon="5.97654">
        <ele>851.38</ele>
        <time>2014-07-26T09:15:41Z</time>
      </trkpt>
      <trkpt lat="45.69976" lon="5.97654">
        <ele>851.87</ele>
        <time>2014-07-26T09:15:46Z</time>
      </trkpt>
      <trkpt lat="45.69976" lon="5.97654">
        <ele>852.35</ele>
        <time>2014-07-26T09:15:51Z</time>
      </trkpt>
      <trkpt lat="45.69976" lon="5.97654">
        <ele>851.87</ele>
        <time>2014-07-26T09:15:56Z</time>
      </trkpt>
      <trkpt lat="45.69976" lon="5.97654">
        <ele>851.87</ele>
        <time>2014-07-26T09:16:01Z</time>
      </trkpt>
      <trkpt lat="45.69976" lon="5.97654">
        <ele>849.46</ele>
        <time>2014-07-26T09:16:06Z</time>
      </trkpt>
      <trkpt lat="45.69975" lon="5.97656">
        <ele>850.9</ele>
        <time>2014-07-26T09:16:11Z</time>
      </trkpt>
      <trkpt lat="45.69975" lon="5.97656">
        <ele>850.9</ele>
        <time>2014-07-26T09:16:16Z</time>
      </trkpt>
      <trkpt lat="45.69975" lon="5.97656">
        <ele>851.38</ele>
        <time>2014-07-26T09:16:21Z</time>
      </trkpt>
      <trkpt lat="45.69974" lon="5.97655">
        <ele>852.35</ele>
        <time>2014-07-26T09:16:26Z</time>
      </trkpt>
      <trkpt lat="45.69972" lon="5.97656">
        <ele>852.35</ele>
        <time>2014-07-26T09:16:31Z</time>
      </trkpt>
      <trkpt lat="45.69969" lon="5.9767">
        <ele>851.38</ele>
        <time>2014-07-26T09:16:36Z</time>
      </trkpt>
      <trkpt lat="45.69976" lon="5.97689">
        <ele>851.38</ele>
        <time>2014-07-26T09:16:41Z</time>
      </trkpt>
      <trkpt lat="45.69983" lon="5.97707">
        <ele>850.9</ele>
        <time>2014-07-26T09:16:46Z</time>
      </trkpt>
      <trkpt lat="45.69988" lon="5.97722">
        <ele>850.9</ele>
        <time>2014-07-26T09:16:51Z</time>
      </trkpt>
      <trkpt lat="45.69995" lon="5.97737">
        <ele>851.38</ele>
        <time>2014-07-26T09:16:56Z</time>
      </trkpt>
      <trkpt lat="45.70001" lon="5.97753">
        <ele>851.87</ele>
        <time>2014-07-26T09:17:01Z</time>
      </trkpt>
      <trkpt lat="45.70005" lon="5.97773">
        <ele>850.42</ele>
        <time>2014-07-26T09:17:06Z</time>
      </trkpt>
      <trkpt lat="45.70012" lon="5.97801">
        <ele>850.42</ele>
        <time>2014-07-26T09:17:11Z</time>
      </trkpt>
      <trkpt lat="45.70024" lon="5.97831">
        <ele>849.46</ele>
        <time>2014-07-26T09:17:16Z</time>
      </trkpt>
      <trkpt lat="45.70035" lon="5.97855">
        <ele>848.98</ele>
        <time>2014-07-26T09:17:21Z</time>
      </trkpt>
      <trkpt lat="45.70046" lon="5.9788">
        <ele>847.06</ele>
        <time>2014-07-26T09:17:26Z</time>
      </trkpt>
      <trkpt lat="45.70059" lon="5.979">
        <ele>844.66</ele>
        <time>2014-07-26T09:17:31Z</time>
      </trkpt>
      <trkpt lat="45.7007" lon="5.97925">
        <ele>842.25</ele>
        <time>2014-07-26T09:17:36Z</time>
      </trkpt>
      <trkpt lat="45.70083" lon="5.9796">
        <ele>837.93</ele>
        <time>2014-07-26T09:17:41Z</time>
      </trkpt>
      <trkpt lat="45.70091" lon="5.97995">
        <ele>834.08</ele>
        <time>2014-07-26T09:17:46Z</time>
      </trkpt>
      <trkpt lat="45.70095" lon="5.98035">
        <ele>831.2</ele>
        <time>2014-07-26T09:17:51Z</time>
      </trkpt>
      <trkpt lat="45.70102" lon="5.98072">
        <ele>832.16</ele>
        <time>2014-07-26T09:17:56Z</time>
      </trkpt>
      <trkpt lat="45.70106" lon="5.98088">
        <ele>833.12</ele>
        <time>2014-07-26T09:18:01Z</time>
      </trkpt>
      <trkpt lat="45.7011" lon="5.98106">
        <ele>834.08</ele>
        <time>2014-07-26T09:18:06Z</time>
      </trkpt>
      <trkpt lat="45.7011" lon="5.98132">
        <ele>834.56</ele>
        <time>2014-07-26T09:18:11Z</time>
      </trkpt>
      <trkpt lat="45.70113" lon="5.98146">
        <ele>836</ele>
        <time>2014-07-26T09:18:16Z</time>
      </trkpt>
      <trkpt lat="45.70115" lon="5.98159">
        <ele>836.48</ele>
        <time>2014-07-26T09:18:21Z</time>
      </trkpt>
      <trkpt lat="45.7012" lon="5.98169">
        <ele>836.96</ele>
        <time>2014-07-26T09:18:26Z</time>
      </trkpt>
      <trkpt lat="45.7012" lon="5.9818">
        <ele>837.93</ele>
        <time>2014-07-26T09:18:31Z</time>
      </trkpt>
      <trkpt lat="45.70118" lon="5.98189">
        <ele>837.93</ele>
        <time>2014-07-26T09:18:36Z</time>
      </trkpt>
      <trkpt lat="45.70118" lon="5.98198">
        <ele>838.41</ele>
        <time>2014-07-26T09:18:41Z</time>
      </trkpt>
      <trkpt lat="45.70118" lon="5.98205">
        <ele>838.89</ele>
        <time>2014-07-26T09:18:46Z</time>
      </trkpt>
      <trkpt lat="45.70118" lon="5.98212">
        <ele>838.89</ele>
        <time>2014-07-26T09:18:51Z</time>
      </trkpt>
      <trkpt lat="45.70123" lon="5.98225">
        <ele>839.37</ele>
        <time>2014-07-26T09:18:56Z</time>
      </trkpt>
      <trkpt lat="45.7012" lon="5.98234">
        <ele>839.37</ele>
        <time>2014-07-26T09:19:01Z</time>
      </trkpt>
      <trkpt lat="45.70118" lon="5.9825">
        <ele>840.33</ele>
        <time>2014-07-26T09:19:06Z</time>
      </trkpt>
      <trkpt lat="45.70112" lon="5.98264">
        <ele>841.29</ele>
        <time>2014-07-26T09:19:11Z</time>
      </trkpt>
      <trkpt lat="45.7011" lon="5.98274">
        <ele>841.77</ele>
        <time>2014-07-26T09:19:16Z</time>
      </trkpt>
      <trkpt lat="45.70103" lon="5.98283">
        <ele>842.25</ele>
        <time>2014-07-26T09:19:21Z</time>
      </trkpt>
      <trkpt lat="45.701" lon="5.98293">
        <ele>842.25</ele>
        <time>2014-07-26T09:19:26Z</time>
      </trkpt>
      <trkpt lat="45.70097" lon="5.98301">
        <ele>842.25</ele>
        <time>2014-07-26T09:19:31Z</time>
      </trkpt>
      <trkpt lat="45.70094" lon="5.9831">
        <ele>842.73</ele>
        <time>2014-07-26T09:19:36Z</time>
      </trkpt>
      <trkpt lat="45.70097" lon="5.98322">
        <ele>843.21</ele>
        <time>2014-07-26T09:19:41Z</time>
      </trkpt>
      <trkpt lat="45.70099" lon="5.98333">
        <ele>842.73</ele>
        <time>2014-07-26T09:19:46Z</time>
      </trkpt>
      <trkpt lat="45.70103" lon="5.98342">
        <ele>843.69</ele>
        <time>2014-07-26T09:19:51Z</time>
      </trkpt>
      <trkpt lat="45.70108" lon="5.98349">
        <ele>844.66</ele>
        <time>2014-07-26T09:19:56Z</time>
      </trkpt>
      <trkpt lat="45.70114" lon="5.98361">
        <ele>846.58</ele>
        <time>2014-07-26T09:20:01Z</time>
      </trkpt>
      <trkpt lat="45.70116" lon="5.98372">
        <ele>847.06</ele>
        <time>2014-07-26T09:20:06Z</time>
      </trkpt>
      <trkpt lat="45.70117" lon="5.98382">
        <ele>848.02</ele>
        <time>2014-07-26T09:20:11Z</time>
      </trkpt>
      <trkpt lat="45.70121" lon="5.9839">
        <ele>847.54</ele>
        <time>2014-07-26T09:20:16Z</time>
      </trkpt>
      <trkpt lat="45.70122" lon="5.98393">
        <ele>848.5</ele>
        <time>2014-07-26T09:20:21Z</time>
      </trkpt>
      <trkpt lat="45.70125" lon="5.98398">
        <ele>848.02</ele>
        <time>2014-07-26T09:20:26Z</time>
      </trkpt>
      <trkpt lat="45.70126" lon="5.9841">
        <ele>846.1</ele>
        <time>2014-07-26T09:20:31Z</time>
      </trkpt>
      <trkpt lat="45.70124" lon="5.98415">
        <ele>857.63</ele>
        <time>2014-07-26T09:20:36Z</time>
      </trkpt>
      <trkpt lat="45.70123" lon="5.98418">
        <ele>850.42</ele>
        <time>2014-07-26T09:20:41Z</time>
      </trkpt>
      <trkpt lat="45.70123" lon="5.98418">
        <ele>849.94</ele>
        <time>2014-07-26T09:20:46Z</time>
      </trkpt>
      <trkpt lat="45.70123" lon="5.98418">
        <ele>846.1</ele>
        <time>2014-07-26T09:20:51Z</time>
      </trkpt>
      <trkpt lat="45.70123" lon="5.98418">
        <ele>851.87</ele>
        <time>2014-07-26T09:20:56Z</time>
      </trkpt>
      <trkpt lat="45.70123" lon="5.9842">
        <ele>849.46</ele>
        <time>2014-07-26T09:21:01Z</time>
      </trkpt>
      <trkpt lat="45.70123" lon="5.9842">
        <ele>849.94</ele>
        <time>2014-07-26T09:21:06Z</time>
      </trkpt>
      <trkpt lat="45.70123" lon="5.9842">
        <ele>849.46</ele>
        <time>2014-07-26T09:21:11Z</time>
      </trkpt>
      <trkpt lat="45.70123" lon="5.9842">
        <ele>849.94</ele>
        <time>2014-07-26T09:21:16Z</time>
      </trkpt>
      <trkpt lat="45.70123" lon="5.9842">
        <ele>849.46</ele>
        <time>2014-07-26T09:21:21Z</time>
      </trkpt>
      <trkpt lat="45.70123" lon="5.9842">
        <ele>849.94</ele>
        <time>2014-07-26T09:21:25Z</time>
      </trkpt>
      <trkpt lat="45.70123" lon="5.9842">
        <ele>849.46</ele>
        <time>2014-07-26T09:21:30Z</time>
      </trkpt>
      <trkpt lat="45.70123" lon="5.9842">
        <ele>848.98</ele>
        <time>2014-07-26T09:21:35Z</time>
      </trkpt>
      <trkpt lat="45.70122" lon="5.98431">
        <ele>849.94</ele>
        <time>2014-07-26T09:21:40Z</time>
      </trkpt>
      <trkpt lat="45.70125" lon="5.9844">
        <ele>847.06</ele>
        <time>2014-07-26T09:21:45Z</time>
      </trkpt>
      <trkpt lat="45.70137" lon="5.98443">
        <ele>844.18</ele>
        <time>2014-07-26T09:21:50Z</time>
      </trkpt>
      <trkpt lat="45.70154" lon="5.98448">
        <ele>839.37</ele>
        <time>2014-07-26T09:21:55Z</time>
      </trkpt>
      <trkpt lat="45.70175" lon="5.98445">
        <ele>838.89</ele>
        <time>2014-07-26T09:22:00Z</time>
      </trkpt>
      <trkpt lat="45.70198" lon="5.9844">
        <ele>836.48</ele>
        <time>2014-07-26T09:22:05Z</time>
      </trkpt>
      <trkpt lat="45.70213" lon="5.98426">
        <ele>831.68</ele>
        <time>2014-07-26T09:22:10Z</time>
      </trkpt>
      <trkpt lat="45.7024" lon="5.9842">
        <ele>827.35</ele>
        <time>2014-07-26T09:22:15Z</time>
      </trkpt>
      <trkpt lat="45.70275" lon="5.98424">
        <ele>823.99</ele>
        <time>2014-07-26T09:22:20Z</time>
      </trkpt>
      <trkpt lat="45.70304" lon="5.98427">
        <ele>821.1</ele>
        <time>2014-07-26T09:22:25Z</time>
      </trkpt>
      <trkpt lat="45.70327" lon="5.98428">
        <ele>820.14</ele>
        <time>2014-07-26T09:22:30Z</time>
      </trkpt>
      <trkpt lat="45.7034" lon="5.98431">
        <ele>819.66</ele>
        <time>2014-07-26T09:22:35Z</time>
      </trkpt>
      <trkpt lat="45.7035" lon="5.98437">
        <ele>820.14</ele>
        <time>2014-07-26T09:22:40Z</time>
      </trkpt>
      <trkpt lat="45.70357" lon="5.98442">
        <ele>819.66</ele>
        <time>2014-07-26T09:22:45Z</time>
      </trkpt>
      <trkpt lat="45.70383" lon="5.98445">
        <ele>820.14</ele>
        <time>2014-07-26T09:22:50Z</time>
      </trkpt>
      <trkpt lat="45.70393" lon="5.98451">
        <ele>819.18</ele>
        <time>2014-07-26T09:22:55Z</time>
      </trkpt>
      <trkpt lat="45.70398" lon="5.98457">
        <ele>820.14</ele>
        <time>2014-07-26T09:23:00Z</time>
      </trkpt>
      <trkpt lat="45.70406" lon="5.9847">
        <ele>820.62</ele>
        <time>2014-07-26T09:23:05Z</time>
      </trkpt>
      <trkpt lat="45.70411" lon="5.9848">
        <ele>821.1</ele>
        <time>2014-07-26T09:23:10Z</time>
      </trkpt>
      <trkpt lat="45.70419" lon="5.98505">
        <ele>817.26</ele>
        <time>2014-07-26T09:23:15Z</time>
      </trkpt>
      <trkpt lat="45.7044" lon="5.98515">
        <ele>817.26</ele>
        <time>2014-07-26T09:23:20Z</time>
      </trkpt>
      <trkpt lat="45.70464" lon="5.98517">
        <ele>817.26</ele>
        <time>2014-07-26T09:23:25Z</time>
      </trkpt>
      <trkpt lat="45.70477" lon="5.9853">
        <ele>818.22</ele>
        <time>2014-07-26T09:23:30Z</time>
      </trkpt>
      <trkpt lat="45.70485" lon="5.98534">
        <ele>817.74</ele>
        <time>2014-07-26T09:23:35Z</time>
      </trkpt>
      <trkpt lat="45.705" lon="5.98551">
        <ele>816.3</ele>
        <time>2014-07-26T09:23:40Z</time>
      </trkpt>
      <trkpt lat="45.70514" lon="5.98571">
        <ele>815.34</ele>
        <time>2014-07-26T09:23:45Z</time>
      </trkpt>
      <trkpt lat="45.70531" lon="5.98586">
        <ele>811.49</ele>
        <time>2014-07-26T09:23:50Z</time>
      </trkpt>
      <trkpt lat="45.70543" lon="5.98589">
        <ele>811.97</ele>
        <time>2014-07-26T09:23:55Z</time>
      </trkpt>
      <trkpt lat="45.7055" lon="5.98593">
        <ele>811.49</ele>
        <time>2014-07-26T09:24:00Z</time>
      </trkpt>
      <trkpt lat="45.70549" lon="5.98605">
        <ele>810.05</ele>
        <time>2014-07-26T09:24:05Z</time>
      </trkpt>
      <trkpt lat="45.70551" lon="5.98616">
        <ele>812.45</ele>
        <time>2014-07-26T09:24:10Z</time>
      </trkpt>
      <trkpt lat="45.70563" lon="5.98625">
        <ele>813.89</ele>
        <time>2014-07-26T09:24:15Z</time>
      </trkpt>
      <trkpt lat="45.70564" lon="5.98624">
        <ele>813.89</ele>
        <time>2014-07-26T09:24:20Z</time>
      </trkpt>
      <trkpt lat="45.70564" lon="5.98624">
        <ele>813.41</ele>
        <time>2014-07-26T09:24:25Z</time>
      </trkpt>
      <trkpt lat="45.70568" lon="5.98623">
        <ele>813.41</ele>
        <time>2014-07-26T09:24:30Z</time>
      </trkpt>
      <trkpt lat="45.70571" lon="5.98626">
        <ele>815.34</ele>
        <time>2014-07-26T09:24:35Z</time>
      </trkpt>
      <trkpt lat="45.7057" lon="5.98633">
        <ele>815.82</ele>
        <time>2014-07-26T09:24:40Z</time>
      </trkpt>
      <trkpt lat="45.7057" lon="5.98643">
        <ele>817.26</ele>
        <time>2014-07-26T09:24:45Z</time>
      </trkpt>
      <trkpt lat="45.70567" lon="5.9865">
        <ele>820.14</ele>
        <time>2014-07-26T09:24:50Z</time>
      </trkpt>
      <trkpt lat="45.7056" lon="5.98659">
        <ele>821.1</ele>
        <time>2014-07-26T09:24:55Z</time>
      </trkpt>
      <trkpt lat="45.70554" lon="5.98671">
        <ele>825.91</ele>
        <time>2014-07-26T09:25:00Z</time>
      </trkpt>
      <trkpt lat="45.7055" lon="5.98685">
        <ele>823.99</ele>
        <time>2014-07-26T09:25:05Z</time>
      </trkpt>
      <trkpt lat="45.70545" lon="5.98693">
        <ele>827.83</ele>
        <time>2014-07-26T09:25:10Z</time>
      </trkpt>
      <trkpt lat="45.70541" lon="5.98696">
        <ele>825.43</ele>
        <time>2014-07-26T09:25:15Z</time>
      </trkpt>
      <trkpt lat="45.70536" lon="5.98697">
        <ele>826.87</ele>
        <time>2014-07-26T09:25:20Z</time>
      </trkpt>
      <trkpt lat="45.70529" lon="5.98704">
        <ele>826.39</ele>
        <time>2014-07-26T09:25:25Z</time>
      </trkpt>
      <trkpt lat="45.70529" lon="5.9871">
        <ele>826.87</ele>
        <time>2014-07-26T09:25:30Z</time>
      </trkpt>
      <trkpt lat="45.70537" lon="5.98718">
        <ele>826.39</ele>
        <time>2014-07-26T09:25:35Z</time>
      </trkpt>
      <trkpt lat="45.7054" lon="5.98722">
        <ele>828.31</ele>
        <time>2014-07-26T09:25:40Z</time>
      </trkpt>
      <trkpt lat="45.70541" lon="5.98731">
        <ele>826.87</ele>
        <time>2014-07-26T09:25:45Z</time>
      </trkpt>
      <trkpt lat="45.70542" lon="5.98739">
        <ele>829.76</ele>
        <time>2014-07-26T09:25:50Z</time>
      </trkpt>
      <trkpt lat="45.70542" lon="5.98749">
        <ele>827.83</ele>
        <time>2014-07-26T09:25:55Z</time>
      </trkpt>
      <trkpt lat="45.70542" lon="5.98757">
        <ele>833.12</ele>
        <time>2014-07-26T09:26:00Z</time>
      </trkpt>
      <trkpt lat="45.70539" lon="5.98766">
        <ele>831.2</ele>
        <time>2014-07-26T09:26:05Z</time>
      </trkpt>
      <trkpt lat="45.70537" lon="5.98775">
        <ele>834.56</ele>
        <time>2014-07-26T09:26:10Z</time>
      </trkpt>
      <trkpt lat="45.70535" lon="5.98781">
        <ele>836.48</ele>
        <time>2014-07-26T09:26:15Z</time>
      </trkpt>
      <trkpt lat="45.70536" lon="5.98789">
        <ele>835.52</ele>
        <time>2014-07-26T09:26:20Z</time>
      </trkpt>
      <trkpt lat="45.70539" lon="5.98796">
        <ele>836.96</ele>
        <time>2014-07-26T09:26:25Z</time>
      </trkpt>
      <trkpt lat="45.70537" lon="5.98804">
        <ele>833.6</ele>
        <time>2014-07-26T09:26:30Z</time>
      </trkpt>
      <trkpt lat="45.70534" lon="5.98816">
        <ele>835.52</ele>
        <time>2014-07-26T09:26:35Z</time>
      </trkpt>
      <trkpt lat="45.70531" lon="5.98827">
        <ele>838.41</ele>
        <time>2014-07-26T09:26:40Z</time>
      </trkpt>
      <trkpt lat="45.70526" lon="5.98839">
        <ele>842.25</ele>
        <time>2014-07-26T09:26:45Z</time>
      </trkpt>
      <trkpt lat="45.70522" lon="5.98851">
        <ele>841.29</ele>
        <time>2014-07-26T09:26:50Z</time>
      </trkpt>
      <trkpt lat="45.70518" lon="5.98859">
        <ele>840.33</ele>
        <time>2014-07-26T09:26:55Z</time>
      </trkpt>
      <trkpt lat="45.7052" lon="5.98864">
        <ele>843.69</ele>
        <time>2014-07-26T09:27:00Z</time>
      </trkpt>
      <trkpt lat="45.7052" lon="5.98869">
        <ele>847.06</ele>
        <time>2014-07-26T09:27:05Z</time>
      </trkpt>
      <trkpt lat="45.70518" lon="5.98875">
        <ele>848.02</ele>
        <time>2014-07-26T09:27:10Z</time>
      </trkpt>
      <trkpt lat="45.70518" lon="5.98875">
        <ele>848.02</ele>
        <time>2014-07-26T09:27:15Z</time>
      </trkpt>
      <trkpt lat="45.70517" lon="5.98882">
        <ele>845.14</ele>
        <time>2014-07-26T09:27:20Z</time>
      </trkpt>
      <trkpt lat="45.70515" lon="5.98894">
        <ele>845.14</ele>
        <time>2014-07-26T09:27:25Z</time>
      </trkpt>
      <trkpt lat="45.70511" lon="5.98905">
        <ele>848.02</ele>
        <time>2014-07-26T09:27:30Z</time>
      </trkpt>
      <trkpt lat="45.70512" lon="5.98907">
        <ele>849.94</ele>
        <time>2014-07-26T09:27:35Z</time>
      </trkpt>
      <trkpt lat="45.70512" lon="5.98907">
        <ele>848.98</ele>
        <time>2014-07-26T09:27:40Z</time>
      </trkpt>
      <trkpt lat="45.70512" lon="5.98907">
        <ele>848.5</ele>
        <time>2014-07-26T09:27:45Z</time>
      </trkpt>
      <trkpt lat="45.70512" lon="5.98907">
        <ele>848.98</ele>
        <time>2014-07-26T09:27:50Z</time>
      </trkpt>
      <trkpt lat="45.70512" lon="5.98907">
        <ele>848.98</ele>
        <time>2014-07-26T09:27:55Z</time>
      </trkpt>
      <trkpt lat="45.70512" lon="5.98907">
        <ele>848.02</ele>
        <time>2014-07-26T09:28:00Z</time>
      </trkpt>
      <trkpt lat="45.70512" lon="5.98907">
        <ele>848.5</ele>
        <time>2014-07-26T09:28:05Z</time>
      </trkpt>
      <trkpt lat="45.70512" lon="5.98907">
        <ele>848.5</ele>
        <time>2014-07-26T09:28:10Z</time>
      </trkpt>
      <trkpt lat="45.70513" lon="5.98908">
        <ele>848.5</ele>
        <time>2014-07-26T09:28:15Z</time>
      </trkpt>
      <trkpt lat="45.70512" lon="5.98911">
        <ele>848.5</ele>
        <time>2014-07-26T09:28:20Z</time>
      </trkpt>
      <trkpt lat="45.70511" lon="5.9892">
        <ele>850.42</ele>
        <time>2014-07-26T09:28:25Z</time>
      </trkpt>
      <trkpt lat="45.7051" lon="5.98926">
        <ele>850.9</ele>
        <time>2014-07-26T09:28:30Z</time>
      </trkpt>
      <trkpt lat="45.70506" lon="5.98938">
        <ele>851.38</ele>
        <time>2014-07-26T09:28:35Z</time>
      </trkpt>
      <trkpt lat="45.70502" lon="5.98951">
        <ele>852.35</ele>
        <time>2014-07-26T09:28:40Z</time>
      </trkpt>
      <trkpt lat="45.705" lon="5.98959">
        <ele>852.83</ele>
        <time>2014-07-26T09:28:45Z</time>
      </trkpt>
      <trkpt lat="45.705" lon="5.98966">
        <ele>853.31</ele>
        <time>2014-07-26T09:28:50Z</time>
      </trkpt>
      <trkpt lat="45.70499" lon="5.98973">
        <ele>854.27</ele>
        <time>2014-07-26T09:28:55Z</time>
      </trkpt>
      <trkpt lat="45.70499" lon="5.98984">
        <ele>854.27</ele>
        <time>2014-07-26T09:29:00Z</time>
      </trkpt>
      <trkpt lat="45.70495" lon="5.98993">
        <ele>855.23</ele>
        <time>2014-07-26T09:29:05Z</time>
      </trkpt>
      <trkpt lat="45.70491" lon="5.99004">
        <ele>855.23</ele>
        <time>2014-07-26T09:29:10Z</time>
      </trkpt>
      <trkpt lat="45.7049" lon="5.99015">
        <ele>856.67</ele>
        <time>2014-07-26T09:29:15Z</time>
      </trkpt>
      <trkpt lat="45.70489" lon="5.99026">
        <ele>856.67</ele>
        <time>2014-07-26T09:29:20Z</time>
      </trkpt>
      <trkpt lat="45.70492" lon="5.99036">
        <ele>858.59</ele>
        <time>2014-07-26T09:29:25Z</time>
      </trkpt>
      <trkpt lat="45.70496" lon="5.99041">
        <ele>859.08</ele>
        <time>2014-07-26T09:29:30Z</time>
      </trkpt>
      <trkpt lat="45.70498" lon="5.99042">
        <ele>860.52</ele>
        <time>2014-07-26T09:29:35Z</time>
      </trkpt>
      <trkpt lat="45.70498" lon="5.99042">
        <ele>859.56</ele>
        <time>2014-07-26T09:29:40Z</time>
      </trkpt>
      <trkpt lat="45.70503" lon="5.99045">
        <ele>860.04</ele>
        <time>2014-07-26T09:29:45Z</time>
      </trkpt>
      <trkpt lat="45.70509" lon="5.9905">
        <ele>861.48</ele>
        <time>2014-07-26T09:29:50Z</time>
      </trkpt>
      <trkpt lat="45.70513" lon="5.99053">
        <ele>864.84</ele>
        <time>2014-07-26T09:29:55Z</time>
      </trkpt>
      <trkpt lat="45.70513" lon="5.99053">
        <ele>861.96</ele>
        <time>2014-07-26T09:30:00Z</time>
      </trkpt>
      <trkpt lat="45.70513" lon="5.99053">
        <ele>861.48</ele>
        <time>2014-07-26T09:30:05Z</time>
      </trkpt>
      <trkpt lat="45.70513" lon="5.99053">
        <ele>862.44</ele>
        <time>2014-07-26T09:30:09Z</time>
      </trkpt>
      <trkpt lat="45.70513" lon="5.99053">
        <ele>859.56</ele>
        <time>2014-07-26T09:30:14Z</time>
      </trkpt>
      <trkpt lat="45.70513" lon="5.99053">
        <ele>861</ele>
        <time>2014-07-26T09:30:19Z</time>
      </trkpt>
      <trkpt lat="45.70514" lon="5.99054">
        <ele>861</ele>
        <time>2014-07-26T09:30:24Z</time>
      </trkpt>
      <trkpt lat="45.70514" lon="5.99055">
        <ele>860.04</ele>
        <time>2014-07-26T09:30:29Z</time>
      </trkpt>
      <trkpt lat="45.70514" lon="5.99055">
        <ele>861</ele>
        <time>2014-07-26T09:30:34Z</time>
      </trkpt>
      <trkpt lat="45.70515" lon="5.99055">
        <ele>860.52</ele>
        <time>2014-07-26T09:30:39Z</time>
      </trkpt>
      <trkpt lat="45.70516" lon="5.99058">
        <ele>860.52</ele>
        <time>2014-07-26T09:30:44Z</time>
      </trkpt>
      <trkpt lat="45.70516" lon="5.99061">
        <ele>862.44</ele>
        <time>2014-07-26T09:30:49Z</time>
      </trkpt>
      <trkpt lat="45.70515" lon="5.99071">
        <ele>864.36</ele>
        <time>2014-07-26T09:30:54Z</time>
      </trkpt>
      <trkpt lat="45.70515" lon="5.99081">
        <ele>865.8</ele>
        <time>2014-07-26T09:30:59Z</time>
      </trkpt>
      <trkpt lat="45.70513" lon="5.99094">
        <ele>868.69</ele>
        <time>2014-07-26T09:31:04Z</time>
      </trkpt>
      <trkpt lat="45.70511" lon="5.99103">
        <ele>868.21</ele>
        <time>2014-07-26T09:31:09Z</time>
      </trkpt>
      <trkpt lat="45.70508" lon="5.99111">
        <ele>868.69</ele>
        <time>2014-07-26T09:31:14Z</time>
      </trkpt>
      <trkpt lat="45.70506" lon="5.9912">
        <ele>869.65</ele>
        <time>2014-07-26T09:31:19Z</time>
      </trkpt>
      <trkpt lat="45.70506" lon="5.9913">
        <ele>877.82</ele>
        <time>2014-07-26T09:31:24Z</time>
      </trkpt>
      <trkpt lat="45.70506" lon="5.99136">
        <ele>875.9</ele>
        <time>2014-07-26T09:31:29Z</time>
      </trkpt>
      <trkpt lat="45.70508" lon="5.99142">
        <ele>877.82</ele>
        <time>2014-07-26T09:31:34Z</time>
      </trkpt>
      <trkpt lat="45.70507" lon="5.99149">
        <ele>876.38</ele>
        <time>2014-07-26T09:31:39Z</time>
      </trkpt>
      <trkpt lat="45.70503" lon="5.99161">
        <ele>878.78</ele>
        <time>2014-07-26T09:31:44Z</time>
      </trkpt>
      <trkpt lat="45.70501" lon="5.99169">
        <ele>876.86</ele>
        <time>2014-07-26T09:31:49Z</time>
      </trkpt>
      <trkpt lat="45.70501" lon="5.99173">
        <ele>882.15</ele>
        <time>2014-07-26T09:31:54Z</time>
      </trkpt>
      <trkpt lat="45.70501" lon="5.99176">
        <ele>882.15</ele>
        <time>2014-07-26T09:31:59Z</time>
      </trkpt>
      <trkpt lat="45.70501" lon="5.99183">
        <ele>883.11</ele>
        <time>2014-07-26T09:32:04Z</time>
      </trkpt>
      <trkpt lat="45.70501" lon="5.99185">
        <ele>882.63</ele>
        <time>2014-07-26T09:32:09Z</time>
      </trkpt>
      <trkpt lat="45.705" lon="5.99187">
        <ele>880.71</ele>
        <time>2014-07-26T09:32:14Z</time>
      </trkpt>
      <trkpt lat="45.70499" lon="5.9919">
        <ele>883.11</ele>
        <time>2014-07-26T09:32:19Z</time>
      </trkpt>
      <trkpt lat="45.70494" lon="5.99195">
        <ele>884.55</ele>
        <time>2014-07-26T09:32:24Z</time>
      </trkpt>
      <trkpt lat="45.70492" lon="5.99199">
        <ele>882.63</ele>
        <time>2014-07-26T09:32:29Z</time>
      </trkpt>
      <trkpt lat="45.70488" lon="5.99201">
        <ele>884.07</ele>
        <time>2014-07-26T09:32:34Z</time>
      </trkpt>
      <trkpt lat="45.70486" lon="5.99204">
        <ele>885.99</ele>
        <time>2014-07-26T09:32:39Z</time>
      </trkpt>
      <trkpt lat="45.70487" lon="5.9921">
        <ele>886.95</ele>
        <time>2014-07-26T09:32:44Z</time>
      </trkpt>
      <trkpt lat="45.70487" lon="5.99211">
        <ele>885.51</ele>
        <time>2014-07-26T09:32:49Z</time>
      </trkpt>
      <trkpt lat="45.70482" lon="5.99211">
        <ele>886.47</ele>
        <time>2014-07-26T09:32:54Z</time>
      </trkpt>
      <trkpt lat="45.70482" lon="5.99211">
        <ele>888.4</ele>
        <time>2014-07-26T09:32:59Z</time>
      </trkpt>
      <trkpt lat="45.70481" lon="5.99215">
        <ele>888.88</ele>
        <time>2014-07-26T09:33:04Z</time>
      </trkpt>
      <trkpt lat="45.70478" lon="5.99218">
        <ele>889.36</ele>
        <time>2014-07-26T09:33:09Z</time>
      </trkpt>
      <trkpt lat="45.70477" lon="5.9922">
        <ele>887.43</ele>
        <time>2014-07-26T09:33:14Z</time>
      </trkpt>
      <trkpt lat="45.70476" lon="5.99224">
        <ele>892.72</ele>
        <time>2014-07-26T09:33:19Z</time>
      </trkpt>
      <trkpt lat="45.70475" lon="5.99228">
        <ele>894.64</ele>
        <time>2014-07-26T09:33:24Z</time>
      </trkpt>
      <trkpt lat="45.70475" lon="5.99232">
        <ele>892.72</ele>
        <time>2014-07-26T09:33:29Z</time>
      </trkpt>
      <trkpt lat="45.70475" lon="5.99232">
        <ele>892.24</ele>
        <time>2014-07-26T09:33:34Z</time>
      </trkpt>
      <trkpt lat="45.70475" lon="5.99238">
        <ele>892.24</ele>
        <time>2014-07-26T09:33:39Z</time>
      </trkpt>
      <trkpt lat="45.70474" lon="5.99245">
        <ele>892.72</ele>
        <time>2014-07-26T09:33:44Z</time>
      </trkpt>
      <trkpt lat="45.70474" lon="5.99247">
        <ele>893.2</ele>
        <time>2014-07-26T09:33:49Z</time>
      </trkpt>
      <trkpt lat="45.70473" lon="5.99249">
        <ele>894.64</ele>
        <time>2014-07-26T09:33:54Z</time>
      </trkpt>
      <trkpt lat="45.70473" lon="5.99249">
        <ele>894.64</ele>
        <time>2014-07-26T09:33:59Z</time>
      </trkpt>
      <trkpt lat="45.70474" lon="5.9925">
        <ele>891.76</ele>
        <time>2014-07-26T09:34:04Z</time>
      </trkpt>
      <trkpt lat="45.70474" lon="5.9925">
        <ele>893.68</ele>
        <time>2014-07-26T09:34:09Z</time>
      </trkpt>
      <trkpt lat="45.70474" lon="5.9925">
        <ele>894.16</ele>
        <time>2014-07-26T09:34:14Z</time>
      </trkpt>
      <trkpt lat="45.70474" lon="5.99251">
        <ele>896.57</ele>
        <time>2014-07-26T09:34:19Z</time>
      </trkpt>
      <trkpt lat="45.70475" lon="5.99252">
        <ele>895.12</ele>
        <time>2014-07-26T09:34:24Z</time>
      </trkpt>
      <trkpt lat="45.70475" lon="5.99252">
        <ele>892.72</ele>
        <time>2014-07-26T09:34:29Z</time>
      </trkpt>
      <trkpt lat="45.70475" lon="5.99254">
        <ele>892.72</ele>
        <time>2014-07-26T09:34:34Z</time>
      </trkpt>
      <trkpt lat="45.70477" lon="5.99268">
        <ele>894.64</ele>
        <time>2014-07-26T09:34:39Z</time>
      </trkpt>
      <trkpt lat="45.70481" lon="5.99279">
        <ele>897.05</ele>
        <time>2014-07-26T09:34:44Z</time>
      </trkpt>
      <trkpt lat="45.70489" lon="5.99282">
        <ele>893.68</ele>
        <time>2014-07-26T09:34:49Z</time>
      </trkpt>
      <trkpt lat="45.70494" lon="5.99285">
        <ele>901.85</ele>
        <time>2014-07-26T09:34:54Z</time>
      </trkpt>
      <trkpt lat="45.70498" lon="5.99288">
        <ele>896.57</ele>
        <time>2014-07-26T09:34:59Z</time>
      </trkpt>
      <trkpt lat="45.70501" lon="5.99289">
        <ele>897.53</ele>
        <time>2014-07-26T09:35:04Z</time>
      </trkpt>
      <trkpt lat="45.70502" lon="5.99289">
        <ele>899.45</ele>
        <time>2014-07-26T09:35:09Z</time>
      </trkpt>
      <trkpt lat="45.70501" lon="5.99293">
        <ele>899.93</ele>
        <time>2014-07-26T09:35:14Z</time>
      </trkpt>
      <trkpt lat="45.705" lon="5.99297">
        <ele>901.37</ele>
        <time>2014-07-26T09:35:19Z</time>
      </trkpt>
      <trkpt lat="45.70506" lon="5.99303">
        <ele>900.89</ele>
        <time>2014-07-26T09:35:24Z</time>
      </trkpt>
      <trkpt lat="45.70509" lon="5.99305">
        <ele>906.66</ele>
        <time>2014-07-26T09:35:29Z</time>
      </trkpt>
      <trkpt lat="45.70509" lon="5.99313">
        <ele>903.78</ele>
        <time>2014-07-26T09:35:34Z</time>
      </trkpt>
      <trkpt lat="45.70512" lon="5.9932">
        <ele>906.66</ele>
        <time>2014-07-26T09:35:39Z</time>
      </trkpt>
      <trkpt lat="45.70519" lon="5.99326">
        <ele>905.7</ele>
        <time>2014-07-26T09:35:44Z</time>
      </trkpt>
      <trkpt lat="45.70521" lon="5.99331">
        <ele>906.66</ele>
        <time>2014-07-26T09:35:49Z</time>
      </trkpt>
      <trkpt lat="45.70525" lon="5.99336">
        <ele>905.22</ele>
        <time>2014-07-26T09:35:54Z</time>
      </trkpt>
      <trkpt lat="45.70528" lon="5.9934">
        <ele>909.06</ele>
        <time>2014-07-26T09:35:59Z</time>
      </trkpt>
      <trkpt lat="45.70533" lon="5.99346">
        <ele>910.03</ele>
        <time>2014-07-26T09:36:04Z</time>
      </trkpt>
      <trkpt lat="45.70541" lon="5.99352">
        <ele>909.54</ele>
        <time>2014-07-26T09:36:09Z</time>
      </trkpt>
      <trkpt lat="45.70546" lon="5.99356">
        <ele>911.47</ele>
        <time>2014-07-26T09:36:14Z</time>
      </trkpt>
      <trkpt lat="45.70551" lon="5.99361">
        <ele>911.95</ele>
        <time>2014-07-26T09:36:19Z</time>
      </trkpt>
      <trkpt lat="45.70553" lon="5.99368">
        <ele>912.43</ele>
        <time>2014-07-26T09:36:24Z</time>
      </trkpt>
      <trkpt lat="45.70556" lon="5.99374">
        <ele>910.99</ele>
        <time>2014-07-26T09:36:29Z</time>
      </trkpt>
      <trkpt lat="45.70559" lon="5.9938">
        <ele>912.91</ele>
        <time>2014-07-26T09:36:34Z</time>
      </trkpt>
      <trkpt lat="45.70561" lon="5.99388">
        <ele>912.91</ele>
        <time>2014-07-26T09:36:39Z</time>
      </trkpt>
      <trkpt lat="45.70562" lon="5.99396">
        <ele>913.39</ele>
        <time>2014-07-26T09:36:44Z</time>
      </trkpt>
      <trkpt lat="45.70561" lon="5.99403">
        <ele>916.75</ele>
        <time>2014-07-26T09:36:49Z</time>
      </trkpt>
      <trkpt lat="45.70563" lon="5.99411">
        <ele>914.35</ele>
        <time>2014-07-26T09:36:54Z</time>
      </trkpt>
      <trkpt lat="45.70568" lon="5.99418">
        <ele>912.43</ele>
        <time>2014-07-26T09:36:59Z</time>
      </trkpt>
      <trkpt lat="45.70569" lon="5.99427">
        <ele>914.83</ele>
        <time>2014-07-26T09:37:04Z</time>
      </trkpt>
      <trkpt lat="45.70572" lon="5.99436">
        <ele>913.39</ele>
        <time>2014-07-26T09:37:09Z</time>
      </trkpt>
      <trkpt lat="45.70574" lon="5.99447">
        <ele>914.35</ele>
        <time>2014-07-26T09:37:14Z</time>
      </trkpt>
      <trkpt lat="45.70571" lon="5.99456">
        <ele>918.2</ele>
        <time>2014-07-26T09:37:19Z</time>
      </trkpt>
      <trkpt lat="45.70569" lon="5.99464">
        <ele>918.68</ele>
        <time>2014-07-26T09:37:24Z</time>
      </trkpt>
      <trkpt lat="45.70572" lon="5.99481">
        <ele>916.27</ele>
        <time>2014-07-26T09:37:29Z</time>
      </trkpt>
      <trkpt lat="45.70567" lon="5.99491">
        <ele>917.72</ele>
        <time>2014-07-26T09:37:34Z</time>
      </trkpt>
      <trkpt lat="45.70565" lon="5.99501">
        <ele>914.83</ele>
        <time>2014-07-26T09:37:39Z</time>
      </trkpt>
      <trkpt lat="45.70564" lon="5.99512">
        <ele>920.12</ele>
        <time>2014-07-26T09:37:44Z</time>
      </trkpt>
      <trkpt lat="45.70565" lon="5.99521">
        <ele>918.68</ele>
        <time>2014-07-26T09:37:49Z</time>
      </trkpt>
      <trkpt lat="45.70565" lon="5.99526">
        <ele>921.08</ele>
        <time>2014-07-26T09:37:54Z</time>
      </trkpt>
      <trkpt lat="45.7057" lon="5.99532">
        <ele>921.56</ele>
        <time>2014-07-26T09:37:59Z</time>
      </trkpt>
      <trkpt lat="45.70579" lon="5.99538">
        <ele>919.64</ele>
        <time>2014-07-26T09:38:04Z</time>
      </trkpt>
      <trkpt lat="45.70584" lon="5.99541">
        <ele>918.68</ele>
        <time>2014-07-26T09:38:09Z</time>
      </trkpt>
      <trkpt lat="45.70587" lon="5.99543">
        <ele>918.2</ele>
        <time>2014-07-26T09:38:14Z</time>
      </trkpt>
      <trkpt lat="45.70593" lon="5.99547">
        <ele>921.56</ele>
        <time>2014-07-26T09:38:19Z</time>
      </trkpt>
      <trkpt lat="45.70593" lon="5.99547">
        <ele>920.12</ele>
        <time>2014-07-26T09:38:24Z</time>
      </trkpt>
      <trkpt lat="45.70593" lon="5.99547">
        <ele>921.08</ele>
        <time>2014-07-26T09:38:29Z</time>
      </trkpt>
      <trkpt lat="45.70595" lon="5.99548">
        <ele>921.08</ele>
        <time>2014-07-26T09:38:34Z</time>
      </trkpt>
      <trkpt lat="45.70602" lon="5.99557">
        <ele>922.04</ele>
        <time>2014-07-26T09:38:39Z</time>
      </trkpt>
      <trkpt lat="45.7061" lon="5.99568">
        <ele>922.04</ele>
        <time>2014-07-26T09:38:44Z</time>
      </trkpt>
      <trkpt lat="45.70613" lon="5.99578">
        <ele>922.04</ele>
        <time>2014-07-26T09:38:49Z</time>
      </trkpt>
      <trkpt lat="45.7061" lon="5.99587">
        <ele>921.56</ele>
        <time>2014-07-26T09:38:54Z</time>
      </trkpt>
      <trkpt lat="45.70607" lon="5.99594">
        <ele>921.56</ele>
        <time>2014-07-26T09:38:59Z</time>
      </trkpt>
      <trkpt lat="45.70607" lon="5.996">
        <ele>923.48</ele>
        <time>2014-07-26T09:39:04Z</time>
      </trkpt>
      <trkpt lat="45.70611" lon="5.99609">
        <ele>923.96</ele>
        <time>2014-07-26T09:39:09Z</time>
      </trkpt>
      <trkpt lat="45.70615" lon="5.99619">
        <ele>923.48</ele>
        <time>2014-07-26T09:39:14Z</time>
      </trkpt>
      <trkpt lat="45.70619" lon="5.9963">
        <ele>925.41</ele>
        <time>2014-07-26T09:39:19Z</time>
      </trkpt>
      <trkpt lat="45.70617" lon="5.9964">
        <ele>925.89</ele>
        <time>2014-07-26T09:39:24Z</time>
      </trkpt>
      <trkpt lat="45.70615" lon="5.99647">
        <ele>924.93</ele>
        <time>2014-07-26T09:39:29Z</time>
      </trkpt>
      <trkpt lat="45.70615" lon="5.99656">
        <ele>924.45</ele>
        <time>2014-07-26T09:39:34Z</time>
      </trkpt>
      <trkpt lat="45.7061" lon="5.99665">
        <ele>925.89</ele>
        <time>2014-07-26T09:39:39Z</time>
      </trkpt>
      <trkpt lat="45.70608" lon="5.99674">
        <ele>926.85</ele>
        <time>2014-07-26T09:39:44Z</time>
      </trkpt>
      <trkpt lat="45.70608" lon="5.99681">
        <ele>927.81</ele>
        <time>2014-07-26T09:39:49Z</time>
      </trkpt>
      <trkpt lat="45.70612" lon="5.99686">
        <ele>927.33</ele>
        <time>2014-07-26T09:39:54Z</time>
      </trkpt>
      <trkpt lat="45.70615" lon="5.99687">
        <ele>926.85</ele>
        <time>2014-07-26T09:39:59Z</time>
      </trkpt>
      <trkpt lat="45.70618" lon="5.99688">
        <ele>926.37</ele>
        <time>2014-07-26T09:40:04Z</time>
      </trkpt>
      <trkpt lat="45.70624" lon="5.99687">
        <ele>927.81</ele>
        <time>2014-07-26T09:40:09Z</time>
      </trkpt>
      <trkpt lat="45.7063" lon="5.99688">
        <ele>927.33</ele>
        <time>2014-07-26T09:40:14Z</time>
      </trkpt>
      <trkpt lat="45.70637" lon="5.99692">
        <ele>928.29</ele>
        <time>2014-07-26T09:40:19Z</time>
      </trkpt>
      <trkpt lat="45.7064" lon="5.997">
        <ele>930.21</ele>
        <time>2014-07-26T09:40:24Z</time>
      </trkpt>
      <trkpt lat="45.70645" lon="5.99709">
        <ele>931.17</ele>
        <time>2014-07-26T09:40:29Z</time>
      </trkpt>
      <trkpt lat="45.70652" lon="5.99721">
        <ele>931.17</ele>
        <time>2014-07-26T09:40:34Z</time>
      </trkpt>
      <trkpt lat="45.70657" lon="5.99727">
        <ele>931.65</ele>
        <time>2014-07-26T09:40:39Z</time>
      </trkpt>
      <trkpt lat="45.70663" lon="5.99735">
        <ele>933.58</ele>
        <time>2014-07-26T09:40:44Z</time>
      </trkpt>
      <trkpt lat="45.70671" lon="5.99746">
        <ele>932.14</ele>
        <time>2014-07-26T09:40:49Z</time>
      </trkpt>
      <trkpt lat="45.70673" lon="5.99759">
        <ele>933.1</ele>
        <time>2014-07-26T09:40:54Z</time>
      </trkpt>
      <trkpt lat="45.70672" lon="5.9977">
        <ele>933.1</ele>
        <time>2014-07-26T09:40:58Z</time>
      </trkpt>
      <trkpt lat="45.70672" lon="5.99779">
        <ele>934.06</ele>
        <time>2014-07-26T09:41:04Z</time>
      </trkpt>
      <trkpt lat="45.70676" lon="5.99789">
        <ele>934.06</ele>
        <time>2014-07-26T09:41:09Z</time>
      </trkpt>
      <trkpt lat="45.7068" lon="5.998">
        <ele>934.06</ele>
        <time>2014-07-26T09:41:14Z</time>
      </trkpt>
      <trkpt lat="45.70682" lon="5.99812">
        <ele>935.5</ele>
        <time>2014-07-26T09:41:19Z</time>
      </trkpt>
      <trkpt lat="45.7068" lon="5.99821">
        <ele>936.46</ele>
        <time>2014-07-26T09:41:24Z</time>
      </trkpt>
      <trkpt lat="45.70678" lon="5.99829">
        <ele>935.98</ele>
        <time>2014-07-26T09:41:29Z</time>
      </trkpt>
      <trkpt lat="45.70671" lon="5.99836">
        <ele>936.46</ele>
        <time>2014-07-26T09:41:34Z</time>
      </trkpt>
      <trkpt lat="45.70672" lon="5.99843">
        <ele>936.46</ele>
        <time>2014-07-26T09:41:39Z</time>
      </trkpt>
      <trkpt lat="45.70676" lon="5.99851">
        <ele>938.86</ele>
        <time>2014-07-26T09:41:44Z</time>
      </trkpt>
      <trkpt lat="45.70674" lon="5.99861">
        <ele>938.38</ele>
        <time>2014-07-26T09:41:49Z</time>
      </trkpt>
      <trkpt lat="45.70673" lon="5.99867">
        <ele>938.38</ele>
        <time>2014-07-26T09:41:54Z</time>
      </trkpt>
      <trkpt lat="45.70672" lon="5.99868">
        <ele>938.38</ele>
        <time>2014-07-26T09:41:59Z</time>
      </trkpt>
      <trkpt lat="45.70672" lon="5.99868">
        <ele>938.86</ele>
        <time>2014-07-26T09:42:04Z</time>
      </trkpt>
      <trkpt lat="45.70671" lon="5.99869">
        <ele>938.38</ele>
        <time>2014-07-26T09:42:09Z</time>
      </trkpt>
      <trkpt lat="45.70671" lon="5.99869">
        <ele>939.35</ele>
        <time>2014-07-26T09:42:14Z</time>
      </trkpt>
      <trkpt lat="45.70671" lon="5.99869">
        <ele>938.38</ele>
        <time>2014-07-26T09:42:19Z</time>
      </trkpt>
      <trkpt lat="45.70671" lon="5.99869">
        <ele>938.38</ele>
        <time>2014-07-26T09:42:24Z</time>
      </trkpt>
      <trkpt lat="45.70671" lon="5.99869">
        <ele>936.94</ele>
        <time>2014-07-26T09:42:29Z</time>
      </trkpt>
      <trkpt lat="45.70671" lon="5.99869">
        <ele>938.86</ele>
        <time>2014-07-26T09:42:34Z</time>
      </trkpt>
      <trkpt lat="45.70671" lon="5.99869">
        <ele>939.83</ele>
        <time>2014-07-26T09:42:39Z</time>
      </trkpt>
      <trkpt lat="45.70671" lon="5.99869">
        <ele>939.35</ele>
        <time>2014-07-26T09:42:44Z</time>
      </trkpt>
      <trkpt lat="45.7067" lon="5.99875">
        <ele>939.35</ele>
        <time>2014-07-26T09:42:49Z</time>
      </trkpt>
      <trkpt lat="45.70663" lon="5.99891">
        <ele>938.86</ele>
        <time>2014-07-26T09:42:54Z</time>
      </trkpt>
      <trkpt lat="45.70665" lon="5.99895">
        <ele>936.94</ele>
        <time>2014-07-26T09:42:59Z</time>
      </trkpt>
      <trkpt lat="45.70669" lon="5.99897">
        <ele>935.02</ele>
        <time>2014-07-26T09:43:04Z</time>
      </trkpt>
      <trkpt lat="45.7067" lon="5.99897">
        <ele>934.54</ele>
        <time>2014-07-26T09:43:09Z</time>
      </trkpt>
      <trkpt lat="45.70676" lon="5.999">
        <ele>929.25</ele>
        <time>2014-07-26T09:43:14Z</time>
      </trkpt>
      <trkpt lat="45.70686" lon="5.99899">
        <ele>928.29</ele>
        <time>2014-07-26T09:43:19Z</time>
      </trkpt>
      <trkpt lat="45.70688" lon="5.99899">
        <ele>926.37</ele>
        <time>2014-07-26T09:43:24Z</time>
      </trkpt>
      <trkpt lat="45.70688" lon="5.99898">
        <ele>926.37</ele>
        <time>2014-07-26T09:43:29Z</time>
      </trkpt>
      <trkpt lat="45.70687" lon="5.99898">
        <ele>925.89</ele>
        <time>2014-07-26T09:43:34Z</time>
      </trkpt>
      <trkpt lat="45.70687" lon="5.99898">
        <ele>924.93</ele>
        <time>2014-07-26T09:43:39Z</time>
      </trkpt>
      <trkpt lat="45.70687" lon="5.99898">
        <ele>923.96</ele>
        <time>2014-07-26T09:43:44Z</time>
      </trkpt>
      <trkpt lat="45.70687" lon="5.99898">
        <ele>924.45</ele>
        <time>2014-07-26T09:43:49Z</time>
      </trkpt>
      <trkpt lat="45.70687" lon="5.99898">
        <ele>923.48</ele>
        <time>2014-07-26T09:43:54Z</time>
      </trkpt>
      <trkpt lat="45.70688" lon="5.99899">
        <ele>923.48</ele>
        <time>2014-07-26T09:43:59Z</time>
      </trkpt>
      <trkpt lat="45.7069" lon="5.99899">
        <ele>921.08</ele>
        <time>2014-07-26T09:44:04Z</time>
      </trkpt>
      <trkpt lat="45.7069" lon="5.99899">
        <ele>921.08</ele>
        <time>2014-07-26T09:44:09Z</time>
      </trkpt>
      <trkpt lat="45.70691" lon="5.999">
        <ele>918.68</ele>
        <time>2014-07-26T09:44:14Z</time>
      </trkpt>
      <trkpt lat="45.70691" lon="5.999">
        <ele>918.68</ele>
        <time>2014-07-26T09:44:19Z</time>
      </trkpt>
      <trkpt lat="45.70696" lon="5.99898">
        <ele>917.24</ele>
        <time>2014-07-26T09:44:24Z</time>
      </trkpt>
      <trkpt lat="45.70697" lon="5.99899">
        <ele>918.2</ele>
        <time>2014-07-26T09:44:29Z</time>
      </trkpt>
      <trkpt lat="45.70699" lon="5.99899">
        <ele>916.27</ele>
        <time>2014-07-26T09:44:34Z</time>
      </trkpt>
      <trkpt lat="45.70705" lon="5.999">
        <ele>914.35</ele>
        <time>2014-07-26T09:44:39Z</time>
      </trkpt>
      <trkpt lat="45.70705" lon="5.999">
        <ele>915.79</ele>
        <time>2014-07-26T09:44:44Z</time>
      </trkpt>
      <trkpt lat="45.70705" lon="5.999">
        <ele>916.27</ele>
        <time>2014-07-26T09:44:49Z</time>
      </trkpt>
      <trkpt lat="45.70705" lon="5.999">
        <ele>910.99</ele>
        <time>2014-07-26T09:44:54Z</time>
      </trkpt>
      <trkpt lat="45.70706" lon="5.99899">
        <ele>911.47</ele>
        <time>2014-07-26T09:44:59Z</time>
      </trkpt>
      <trkpt lat="45.70708" lon="5.99898">
        <ele>909.54</ele>
        <time>2014-07-26T09:45:04Z</time>
      </trkpt>
      <trkpt lat="45.70713" lon="5.99896">
        <ele>909.06</ele>
        <time>2014-07-26T09:45:09Z</time>
      </trkpt>
      <trkpt lat="45.70715" lon="5.99897">
        <ele>907.14</ele>
        <time>2014-07-26T09:45:14Z</time>
      </trkpt>
      <trkpt lat="45.70716" lon="5.99899">
        <ele>906.66</ele>
        <time>2014-07-26T09:45:19Z</time>
      </trkpt>
      <trkpt lat="45.70715" lon="5.99898">
        <ele>906.66</ele>
        <time>2014-07-26T09:45:24Z</time>
      </trkpt>
      <trkpt lat="45.70716" lon="5.99898">
        <ele>907.14</ele>
        <time>2014-07-26T09:45:29Z</time>
      </trkpt>
      <trkpt lat="45.70718" lon="5.99898">
        <ele>905.7</ele>
        <time>2014-07-26T09:45:34Z</time>
      </trkpt>
      <trkpt lat="45.70718" lon="5.99898">
        <ele>905.22</ele>
        <time>2014-07-26T09:45:39Z</time>
      </trkpt>
      <trkpt lat="45.70718" lon="5.99898">
        <ele>906.18</ele>
        <time>2014-07-26T09:45:44Z</time>
      </trkpt>
      <trkpt lat="45.70718" lon="5.99898">
        <ele>905.7</ele>
        <time>2014-07-26T09:45:49Z</time>
      </trkpt>
      <trkpt lat="45.70718" lon="5.99898">
        <ele>906.66</ele>
        <time>2014-07-26T09:45:54Z</time>
      </trkpt>
      <trkpt lat="45.70718" lon="5.99898">
        <ele>906.18</ele>
        <time>2014-07-26T09:45:59Z</time>
      </trkpt>
      <trkpt lat="45.70718" lon="5.99898">
        <ele>906.18</ele>
        <time>2014-07-26T09:46:04Z</time>
      </trkpt>
      <trkpt lat="45.7072" lon="5.99898">
        <ele>906.18</ele>
        <time>2014-07-26T09:46:09Z</time>
      </trkpt>
      <trkpt lat="45.70728" lon="5.99903">
        <ele>904.74</ele>
        <time>2014-07-26T09:46:14Z</time>
      </trkpt>
      <trkpt lat="45.70732" lon="5.99903">
        <ele>900.41</ele>
        <time>2014-07-26T09:46:19Z</time>
      </trkpt>
      <trkpt lat="45.70735" lon="5.99907">
        <ele>899.45</ele>
        <time>2014-07-26T09:46:24Z</time>
      </trkpt>
      <trkpt lat="45.70742" lon="5.99912">
        <ele>895.12</ele>
        <time>2014-07-26T09:46:29Z</time>
      </trkpt>
      <trkpt lat="45.70748" lon="5.99919">
        <ele>891.28</ele>
        <time>2014-07-26T09:46:34Z</time>
      </trkpt>
      <trkpt lat="45.70756" lon="5.99927">
        <ele>886.95</ele>
        <time>2014-07-26T09:46:39Z</time>
      </trkpt>
      <trkpt lat="45.70762" lon="5.99927">
        <ele>884.55</ele>
        <time>2014-07-26T09:46:44Z</time>
      </trkpt>
      <trkpt lat="45.70767" lon="5.99928">
        <ele>880.71</ele>
        <time>2014-07-26T09:46:49Z</time>
      </trkpt>
      <trkpt lat="45.70774" lon="5.99927">
        <ele>878.78</ele>
        <time>2014-07-26T09:46:54Z</time>
      </trkpt>
      <trkpt lat="45.70786" lon="5.99926">
        <ele>873.5</ele>
        <time>2014-07-26T09:46:59Z</time>
      </trkpt>
      <trkpt lat="45.70798" lon="5.9993">
        <ele>871.09</ele>
        <time>2014-07-26T09:47:04Z</time>
      </trkpt>
      <trkpt lat="45.70803" lon="5.99936">
        <ele>866.29</ele>
        <time>2014-07-26T09:47:09Z</time>
      </trkpt>
      <trkpt lat="45.70806" lon="5.99949">
        <ele>863.4</ele>
        <time>2014-07-26T09:47:14Z</time>
      </trkpt>
      <trkpt lat="45.70811" lon="5.9996">
        <ele>858.59</ele>
        <time>2014-07-26T09:47:19Z</time>
      </trkpt>
      <trkpt lat="45.70822" lon="5.9997">
        <ele>857.15</ele>
        <time>2014-07-26T09:47:24Z</time>
      </trkpt>
      <trkpt lat="45.70835" lon="5.99973">
        <ele>852.35</ele>
        <time>2014-07-26T09:47:29Z</time>
      </trkpt>
      <trkpt lat="45.70852" lon="5.99974">
        <ele>848.5</ele>
        <time>2014-07-26T09:47:34Z</time>
      </trkpt>
      <trkpt lat="45.70866" lon="5.99972">
        <ele>844.18</ele>
        <time>2014-07-26T09:47:39Z</time>
      </trkpt>
      <trkpt lat="45.70879" lon="5.99968">
        <ele>841.29</ele>
        <time>2014-07-26T09:47:44Z</time>
      </trkpt>
      <trkpt lat="45.7089" lon="5.99978">
        <ele>839.37</ele>
        <time>2014-07-26T09:47:49Z</time>
      </trkpt>
      <trkpt lat="45.70892" lon="5.99982">
        <ele>840.33</ele>
        <time>2014-07-26T09:47:54Z</time>
      </trkpt>
      <trkpt lat="45.70892" lon="5.99982">
        <ele>834.08</ele>
        <time>2014-07-26T09:47:59Z</time>
      </trkpt>
      <trkpt lat="45.70893" lon="5.99981">
        <ele>839.85</ele>
        <time>2014-07-26T09:48:04Z</time>
      </trkpt>
      <trkpt lat="45.70894" lon="5.9998">
        <ele>839.37</ele>
        <time>2014-07-26T09:48:09Z</time>
      </trkpt>
      <trkpt lat="45.70893" lon="5.99981">
        <ele>839.37</ele>
        <time>2014-07-26T09:48:14Z</time>
      </trkpt>
      <trkpt lat="45.70893" lon="5.99981">
        <ele>838.89</ele>
        <time>2014-07-26T09:48:19Z</time>
      </trkpt>
      <trkpt lat="45.70893" lon="5.99981">
        <ele>839.37</ele>
        <time>2014-07-26T09:48:24Z</time>
      </trkpt>
      <trkpt lat="45.70893" lon="5.99981">
        <ele>838.89</ele>
        <time>2014-07-26T09:48:29Z</time>
      </trkpt>
      <trkpt lat="45.70893" lon="5.99981">
        <ele>839.85</ele>
        <time>2014-07-26T09:48:34Z</time>
      </trkpt>
      <trkpt lat="45.70893" lon="5.99982">
        <ele>838.89</ele>
        <time>2014-07-26T09:48:39Z</time>
      </trkpt>
      <trkpt lat="45.70893" lon="5.99983">
        <ele>839.37</ele>
        <time>2014-07-26T09:48:44Z</time>
      </trkpt>
      <trkpt lat="45.70893" lon="5.99983">
        <ele>839.37</ele>
        <time>2014-07-26T09:48:49Z</time>
      </trkpt>
      <trkpt lat="45.70893" lon="5.99983">
        <ele>838.89</ele>
        <time>2014-07-26T09:48:54Z</time>
      </trkpt>
      <trkpt lat="45.70887" lon="5.99995">
        <ele>840.33</ele>
        <time>2014-07-26T09:48:59Z</time>
      </trkpt>
      <trkpt lat="45.7088" lon="6.00005">
        <ele>839.85</ele>
        <time>2014-07-26T09:49:04Z</time>
      </trkpt>
      <trkpt lat="45.70874" lon="6.00023">
        <ele>838.89</ele>
        <time>2014-07-26T09:49:09Z</time>
      </trkpt>
      <trkpt lat="45.70871" lon="6.0004">
        <ele>838.41</ele>
        <time>2014-07-26T09:49:14Z</time>
      </trkpt>
      <trkpt lat="45.70869" lon="6.00051">
        <ele>836</ele>
        <time>2014-07-26T09:49:19Z</time>
      </trkpt>
      <trkpt lat="45.70867" lon="6.00053">
        <ele>831.2</ele>
        <time>2014-07-26T09:49:24Z</time>
      </trkpt>
      <trkpt lat="45.70871" lon="6.00063">
        <ele>827.35</ele>
        <time>2014-07-26T09:49:29Z</time>
      </trkpt>
      <trkpt lat="45.70872" lon="6.00078">
        <ele>824.47</ele>
        <time>2014-07-26T09:49:33Z</time>
      </trkpt>
      <trkpt lat="45.70883" lon="6.00086">
        <ele>821.1</ele>
        <time>2014-07-26T09:49:38Z</time>
      </trkpt>
      <trkpt lat="45.70894" lon="6.00103">
        <ele>815.82</ele>
        <time>2014-07-26T09:49:43Z</time>
      </trkpt>
      <trkpt lat="45.70912" lon="6.00112">
        <ele>808.61</ele>
        <time>2014-07-26T09:49:48Z</time>
      </trkpt>
      <trkpt lat="45.70921" lon="6.00109">
        <ele>805.72</ele>
        <time>2014-07-26T09:49:53Z</time>
      </trkpt>
      <trkpt lat="45.70927" lon="6.00107">
        <ele>805.72</ele>
        <time>2014-07-26T09:49:58Z</time>
      </trkpt>
      <trkpt lat="45.70946" lon="6.00112">
        <ele>799.95</ele>
        <time>2014-07-26T09:50:03Z</time>
      </trkpt>
      <trkpt lat="45.70965" lon="6.00119">
        <ele>794.67</ele>
        <time>2014-07-26T09:50:08Z</time>
      </trkpt>
      <trkpt lat="45.70987" lon="6.0012">
        <ele>790.82</ele>
        <time>2014-07-26T09:50:13Z</time>
      </trkpt>
      <trkpt lat="45.7101" lon="6.0011">
        <ele>786.02</ele>
        <time>2014-07-26T09:50:18Z</time>
      </trkpt>
      <trkpt lat="45.71027" lon="6.00108">
        <ele>782.17</ele>
        <time>2014-07-26T09:50:23Z</time>
      </trkpt>
      <trkpt lat="45.71042" lon="6.00112">
        <ele>780.73</ele>
        <time>2014-07-26T09:50:28Z</time>
      </trkpt>
      <trkpt lat="45.71042" lon="6.00108">
        <ele>781.21</ele>
        <time>2014-07-26T09:50:33Z</time>
      </trkpt>
      <trkpt lat="45.71036" lon="6.00108">
        <ele>779.77</ele>
        <time>2014-07-26T09:50:38Z</time>
      </trkpt>
      <trkpt lat="45.71035" lon="6.00108">
        <ele>785.53</ele>
        <time>2014-07-26T09:50:43Z</time>
      </trkpt>
      <trkpt lat="45.71035" lon="6.0011">
        <ele>782.65</ele>
        <time>2014-07-26T09:50:48Z</time>
      </trkpt>
      <trkpt lat="45.71037" lon="6.00113">
        <ele>783.61</ele>
        <time>2014-07-26T09:50:53Z</time>
      </trkpt>
      <trkpt lat="45.71041" lon="6.00117">
        <ele>784.57</ele>
        <time>2014-07-26T09:50:58Z</time>
      </trkpt>
      <trkpt lat="45.71046" lon="6.00123">
        <ele>784.57</ele>
        <time>2014-07-26T09:51:03Z</time>
      </trkpt>
      <trkpt lat="45.71053" lon="6.0013">
        <ele>785.05</ele>
        <time>2014-07-26T09:51:08Z</time>
      </trkpt>
      <trkpt lat="45.71067" lon="6.00144">
        <ele>786.02</ele>
        <time>2014-07-26T09:51:13Z</time>
      </trkpt>
      <trkpt lat="45.71072" lon="6.0016">
        <ele>786.5</ele>
        <time>2014-07-26T09:51:18Z</time>
      </trkpt>
      <trkpt lat="45.71073" lon="6.00173">
        <ele>787.46</ele>
        <time>2014-07-26T09:51:23Z</time>
      </trkpt>
      <trkpt lat="45.71073" lon="6.00183">
        <ele>787.94</ele>
        <time>2014-07-26T09:51:28Z</time>
      </trkpt>
      <trkpt lat="45.71074" lon="6.00188">
        <ele>788.9</ele>
        <time>2014-07-26T09:51:33Z</time>
      </trkpt>
      <trkpt lat="45.71075" lon="6.002">
        <ele>789.38</ele>
        <time>2014-07-26T09:51:38Z</time>
      </trkpt>
      <trkpt lat="45.71074" lon="6.00208">
        <ele>789.86</ele>
        <time>2014-07-26T09:51:43Z</time>
      </trkpt>
      <trkpt lat="45.7107" lon="6.00214">
        <ele>791.3</ele>
        <time>2014-07-26T09:51:48Z</time>
      </trkpt>
      <trkpt lat="45.71065" lon="6.00221">
        <ele>791.3</ele>
        <time>2014-07-26T09:51:53Z</time>
      </trkpt>
      <trkpt lat="45.7106" lon="6.00228">
        <ele>793.22</ele>
        <time>2014-07-26T09:51:58Z</time>
      </trkpt>
      <trkpt lat="45.71056" lon="6.00233">
        <ele>789.38</ele>
        <time>2014-07-26T09:52:03Z</time>
      </trkpt>
      <trkpt lat="45.71051" lon="6.00235">
        <ele>794.19</ele>
        <time>2014-07-26T09:52:08Z</time>
      </trkpt>
      <trkpt lat="45.71046" lon="6.00237">
        <ele>793.71</ele>
        <time>2014-07-26T09:52:13Z</time>
      </trkpt>
      <trkpt lat="45.71043" lon="6.00242">
        <ele>796.11</ele>
        <time>2014-07-26T09:52:18Z</time>
      </trkpt>
      <trkpt lat="45.71037" lon="6.00246">
        <ele>797.55</ele>
        <time>2014-07-26T09:52:23Z</time>
      </trkpt>
      <trkpt lat="45.71029" lon="6.0025">
        <ele>799.47</ele>
        <time>2014-07-26T09:52:28Z</time>
      </trkpt>
      <trkpt lat="45.71021" lon="6.00255">
        <ele>799.95</ele>
        <time>2014-07-26T09:52:33Z</time>
      </trkpt>
      <trkpt lat="45.71015" lon="6.0026">
        <ele>800.92</ele>
        <time>2014-07-26T09:52:38Z</time>
      </trkpt>
      <trkpt lat="45.71012" lon="6.00264">
        <ele>799.47</ele>
        <time>2014-07-26T09:52:43Z</time>
      </trkpt>
      <trkpt lat="45.71007" lon="6.00269">
        <ele>801.4</ele>
        <time>2014-07-26T09:52:48Z</time>
      </trkpt>
      <trkpt lat="45.71005" lon="6.00272">
        <ele>801.88</ele>
        <time>2014-07-26T09:52:53Z</time>
      </trkpt>
      <trkpt lat="45.71001" lon="6.00276">
        <ele>802.84</ele>
        <time>2014-07-26T09:52:58Z</time>
      </trkpt>
      <trkpt lat="45.70999" lon="6.00279">
        <ele>802.84</ele>
        <time>2014-07-26T09:53:03Z</time>
      </trkpt>
      <trkpt lat="45.70995" lon="6.00284">
        <ele>804.28</ele>
        <time>2014-07-26T09:53:08Z</time>
      </trkpt>
      <trkpt lat="45.70994" lon="6.00287">
        <ele>804.76</ele>
        <time>2014-07-26T09:53:13Z</time>
      </trkpt>
      <trkpt lat="45.7099" lon="6.00293">
        <ele>806.2</ele>
        <time>2014-07-26T09:53:18Z</time>
      </trkpt>
      <trkpt lat="45.70978" lon="6.00308">
        <ele>807.16</ele>
        <time>2014-07-26T09:53:23Z</time>
      </trkpt>
      <trkpt lat="45.70962" lon="6.0032">
        <ele>807.64</ele>
        <time>2014-07-26T09:53:28Z</time>
      </trkpt>
      <trkpt lat="45.70958" lon="6.00333">
        <ele>808.61</ele>
        <time>2014-07-26T09:53:33Z</time>
      </trkpt>
      <trkpt lat="45.7095" lon="6.00347">
        <ele>809.57</ele>
        <time>2014-07-26T09:53:38Z</time>
      </trkpt>
      <trkpt lat="45.70947" lon="6.00362">
        <ele>811.01</ele>
        <time>2014-07-26T09:53:43Z</time>
      </trkpt>
      <trkpt lat="45.70943" lon="6.00373">
        <ele>811.49</ele>
        <time>2014-07-26T09:53:48Z</time>
      </trkpt>
      <trkpt lat="45.70941" lon="6.00383">
        <ele>812.45</ele>
        <time>2014-07-26T09:53:53Z</time>
      </trkpt>
      <trkpt lat="45.7094" lon="6.004">
        <ele>812.93</ele>
        <time>2014-07-26T09:53:58Z</time>
      </trkpt>
      <trkpt lat="45.70938" lon="6.00411">
        <ele>814.37</ele>
        <time>2014-07-26T09:54:03Z</time>
      </trkpt>
      <trkpt lat="45.70942" lon="6.00422">
        <ele>815.34</ele>
        <time>2014-07-26T09:54:08Z</time>
      </trkpt>
      <trkpt lat="45.70946" lon="6.00435">
        <ele>816.78</ele>
        <time>2014-07-26T09:54:13Z</time>
      </trkpt>
      <trkpt lat="45.70945" lon="6.00447">
        <ele>817.74</ele>
        <time>2014-07-26T09:54:18Z</time>
      </trkpt>
      <trkpt lat="45.70941" lon="6.00458">
        <ele>818.7</ele>
        <time>2014-07-26T09:54:23Z</time>
      </trkpt>
      <trkpt lat="45.70933" lon="6.00466">
        <ele>819.18</ele>
        <time>2014-07-26T09:54:28Z</time>
      </trkpt>
      <trkpt lat="45.70928" lon="6.00474">
        <ele>816.3</ele>
        <time>2014-07-26T09:54:33Z</time>
      </trkpt>
      <trkpt lat="45.70924" lon="6.00483">
        <ele>821.1</ele>
        <time>2014-07-26T09:54:38Z</time>
      </trkpt>
      <trkpt lat="45.70919" lon="6.00492">
        <ele>822.55</ele>
        <time>2014-07-26T09:54:43Z</time>
      </trkpt>
      <trkpt lat="45.70914" lon="6.00502">
        <ele>823.03</ele>
        <time>2014-07-26T09:54:48Z</time>
      </trkpt>
      <trkpt lat="45.70908" lon="6.0051">
        <ele>823.99</ele>
        <time>2014-07-26T09:54:53Z</time>
      </trkpt>
      <trkpt lat="45.709" lon="6.00516">
        <ele>824.95</ele>
        <time>2014-07-26T09:54:58Z</time>
      </trkpt>
      <trkpt lat="45.70893" lon="6.00523">
        <ele>825.91</ele>
        <time>2014-07-26T09:55:03Z</time>
      </trkpt>
      <trkpt lat="45.7089" lon="6.00533">
        <ele>826.39</ele>
        <time>2014-07-26T09:55:08Z</time>
      </trkpt>
      <trkpt lat="45.70887" lon="6.00543">
        <ele>826.87</ele>
        <time>2014-07-26T09:55:13Z</time>
      </trkpt>
      <trkpt lat="45.70887" lon="6.00552">
        <ele>827.83</ele>
        <time>2014-07-26T09:55:18Z</time>
      </trkpt>
      <trkpt lat="45.70889" lon="6.00565">
        <ele>828.79</ele>
        <time>2014-07-26T09:55:23Z</time>
      </trkpt>
      <trkpt lat="45.7089" lon="6.00577">
        <ele>829.27</ele>
        <time>2014-07-26T09:55:28Z</time>
      </trkpt>
      <trkpt lat="45.70891" lon="6.00589">
        <ele>830.24</ele>
        <time>2014-07-26T09:55:33Z</time>
      </trkpt>
      <trkpt lat="45.70891" lon="6.00599">
        <ele>831.2</ele>
        <time>2014-07-26T09:55:38Z</time>
      </trkpt>
      <trkpt lat="45.70889" lon="6.0061">
        <ele>832.16</ele>
        <time>2014-07-26T09:55:43Z</time>
      </trkpt>
      <trkpt lat="45.70887" lon="6.0062">
        <ele>832.16</ele>
        <time>2014-07-26T09:55:48Z</time>
      </trkpt>
      <trkpt lat="45.70889" lon="6.00635">
        <ele>831.2</ele>
        <time>2014-07-26T09:55:53Z</time>
      </trkpt>
      <trkpt lat="45.70889" lon="6.00656">
        <ele>832.16</ele>
        <time>2014-07-26T09:55:58Z</time>
      </trkpt>
      <trkpt lat="45.70886" lon="6.00684">
        <ele>830.72</ele>
        <time>2014-07-26T09:56:03Z</time>
      </trkpt>
      <trkpt lat="45.70883" lon="6.00713">
        <ele>830.72</ele>
        <time>2014-07-26T09:56:08Z</time>
      </trkpt>
      <trkpt lat="45.70888" lon="6.00729">
        <ele>831.2</ele>
        <time>2014-07-26T09:56:13Z</time>
      </trkpt>
      <trkpt lat="45.70892" lon="6.00743">
        <ele>830.72</ele>
        <time>2014-07-26T09:56:18Z</time>
      </trkpt>
      <trkpt lat="45.70899" lon="6.0076">
        <ele>830.72</ele>
        <time>2014-07-26T09:56:23Z</time>
      </trkpt>
      <trkpt lat="45.70904" lon="6.00778">
        <ele>830.72</ele>
        <time>2014-07-26T09:56:28Z</time>
      </trkpt>
      <trkpt lat="45.70905" lon="6.0079">
        <ele>830.72</ele>
        <time>2014-07-26T09:56:33Z</time>
      </trkpt>
      <trkpt lat="45.70909" lon="6.00803">
        <ele>830.24</ele>
        <time>2014-07-26T09:56:38Z</time>
      </trkpt>
      <trkpt lat="45.70911" lon="6.00824">
        <ele>829.76</ele>
        <time>2014-07-26T09:56:43Z</time>
      </trkpt>
      <trkpt lat="45.70913" lon="6.00835">
        <ele>829.27</ele>
        <time>2014-07-26T09:56:48Z</time>
      </trkpt>
      <trkpt lat="45.70907" lon="6.00848">
        <ele>829.76</ele>
        <time>2014-07-26T09:56:53Z</time>
      </trkpt>
      <trkpt lat="45.70899" lon="6.0086">
        <ele>829.27</ele>
        <time>2014-07-26T09:56:58Z</time>
      </trkpt>
      <trkpt lat="45.70898" lon="6.00871">
        <ele>828.31</ele>
        <time>2014-07-26T09:57:03Z</time>
      </trkpt>
      <trkpt lat="45.70897" lon="6.00903">
        <ele>826.39</ele>
        <time>2014-07-26T09:57:08Z</time>
      </trkpt>
      <trkpt lat="45.70894" lon="6.00913">
        <ele>826.39</ele>
        <time>2014-07-26T09:57:13Z</time>
      </trkpt>
      <trkpt lat="45.70894" lon="6.00914">
        <ele>826.39</ele>
        <time>2014-07-26T09:57:18Z</time>
      </trkpt>
      <trkpt lat="45.70894" lon="6.00914">
        <ele>826.87</ele>
        <time>2014-07-26T09:57:23Z</time>
      </trkpt>
      <trkpt lat="45.70894" lon="6.00914">
        <ele>823.99</ele>
        <time>2014-07-26T09:57:28Z</time>
      </trkpt>
      <trkpt lat="45.70894" lon="6.00914">
        <ele>823.99</ele>
        <time>2014-07-26T09:57:33Z</time>
      </trkpt>
      <trkpt lat="45.70894" lon="6.00914">
        <ele>825.91</ele>
        <time>2014-07-26T09:57:38Z</time>
      </trkpt>
      <trkpt lat="45.70892" lon="6.00914">
        <ele>826.39</ele>
        <time>2014-07-26T09:57:43Z</time>
      </trkpt>
      <trkpt lat="45.7089" lon="6.00915">
        <ele>826.87</ele>
        <time>2014-07-26T09:57:48Z</time>
      </trkpt>
      <trkpt lat="45.70889" lon="6.00919">
        <ele>823.51</ele>
        <time>2014-07-26T09:57:53Z</time>
      </trkpt>
      <trkpt lat="45.70881" lon="6.00924">
        <ele>820.62</ele>
        <time>2014-07-26T09:57:58Z</time>
      </trkpt>
      <trkpt lat="45.70879" lon="6.00926">
        <ele>821.1</ele>
        <time>2014-07-26T09:58:03Z</time>
      </trkpt>
      <trkpt lat="45.70873" lon="6.00929">
        <ele>819.66</ele>
        <time>2014-07-26T09:58:08Z</time>
      </trkpt>
      <trkpt lat="45.70863" lon="6.00935">
        <ele>813.89</ele>
        <time>2014-07-26T09:58:13Z</time>
      </trkpt>
      <trkpt lat="45.7085" lon="6.00944">
        <ele>810.05</ele>
        <time>2014-07-26T09:58:18Z</time>
      </trkpt>
      <trkpt lat="45.70845" lon="6.0096">
        <ele>805.72</ele>
        <time>2014-07-26T09:58:23Z</time>
      </trkpt>
      <trkpt lat="45.70862" lon="6.00974">
        <ele>799.47</ele>
        <time>2014-07-26T09:58:28Z</time>
      </trkpt>
      <trkpt lat="45.70889" lon="6.00989">
        <ele>790.34</ele>
        <time>2014-07-26T09:58:33Z</time>
      </trkpt>
      <trkpt lat="45.70914" lon="6.01003">
        <ele>786.5</ele>
        <time>2014-07-26T09:58:38Z</time>
      </trkpt>
      <trkpt lat="45.70932" lon="6.01013">
        <ele>782.65</ele>
        <time>2014-07-26T09:58:43Z</time>
      </trkpt>
      <trkpt lat="45.70939" lon="6.01017">
        <ele>782.17</ele>
        <time>2014-07-26T09:58:48Z</time>
      </trkpt>
      <trkpt lat="45.70943" lon="6.01023">
        <ele>780.25</ele>
        <time>2014-07-26T09:58:53Z</time>
      </trkpt>
      <trkpt lat="45.70956" lon="6.01032">
        <ele>776.88</ele>
        <time>2014-07-26T09:58:58Z</time>
      </trkpt>
      <trkpt lat="45.70978" lon="6.01039">
        <ele>774</ele>
        <time>2014-07-26T09:59:03Z</time>
      </trkpt>
      <trkpt lat="45.70999" lon="6.01036">
        <ele>770.15</ele>
        <time>2014-07-26T09:59:08Z</time>
      </trkpt>
      <trkpt lat="45.7102" lon="6.01033">
        <ele>764.87</ele>
        <time>2014-07-26T09:59:13Z</time>
      </trkpt>
      <trkpt lat="45.71044" lon="6.01035">
        <ele>760.54</ele>
        <time>2014-07-26T09:59:18Z</time>
      </trkpt>
      <trkpt lat="45.71063" lon="6.0104">
        <ele>758.14</ele>
        <time>2014-07-26T09:59:23Z</time>
      </trkpt>
      <trkpt lat="45.71075" lon="6.01046">
        <ele>754.29</ele>
        <time>2014-07-26T09:59:28Z</time>
      </trkpt>
      <trkpt lat="45.71084" lon="6.01057">
        <ele>751.89</ele>
        <time>2014-07-26T09:59:33Z</time>
      </trkpt>
      <trkpt lat="45.71095" lon="6.01065">
        <ele>748.52</ele>
        <time>2014-07-26T09:59:38Z</time>
      </trkpt>
      <trkpt lat="45.71098" lon="6.01066">
        <ele>747.56</ele>
        <time>2014-07-26T09:59:43Z</time>
      </trkpt>
      <trkpt lat="45.71099" lon="6.01067">
        <ele>745.16</ele>
        <time>2014-07-26T09:59:48Z</time>
      </trkpt>
      <trkpt lat="45.71101" lon="6.01069">
        <ele>743.24</ele>
        <time>2014-07-26T09:59:53Z</time>
      </trkpt>
      <trkpt lat="45.71099" lon="6.01075">
        <ele>738.91</ele>
        <time>2014-07-26T09:59:58Z</time>
      </trkpt>
      <trkpt lat="45.71089" lon="6.01077">
        <ele>735.55</ele>
        <time>2014-07-26T10:00:03Z</time>
      </trkpt>
      <trkpt lat="45.71076" lon="6.01079">
        <ele>730.74</ele>
        <time>2014-07-26T10:00:08Z</time>
      </trkpt>
      <trkpt lat="45.71064" lon="6.01085">
        <ele>728.34</ele>
        <time>2014-07-26T10:00:13Z</time>
      </trkpt>
      <trkpt lat="45.71054" lon="6.01096">
        <ele>727.86</ele>
        <time>2014-07-26T10:00:18Z</time>
      </trkpt>
      <trkpt lat="45.71042" lon="6.011">
        <ele>728.82</ele>
        <time>2014-07-26T10:00:23Z</time>
      </trkpt>
      <trkpt lat="45.71035" lon="6.01106">
        <ele>727.86</ele>
        <time>2014-07-26T10:00:28Z</time>
      </trkpt>
      <trkpt lat="45.71035" lon="6.01106">
        <ele>728.34</ele>
        <time>2014-07-26T10:00:33Z</time>
      </trkpt>
      <trkpt lat="45.71035" lon="6.01106">
        <ele>727.37</ele>
        <time>2014-07-26T10:00:38Z</time>
      </trkpt>
      <trkpt lat="45.71035" lon="6.01106">
        <ele>724.97</ele>
        <time>2014-07-26T10:00:43Z</time>
      </trkpt>
      <trkpt lat="45.71035" lon="6.01106">
        <ele>727.86</ele>
        <time>2014-07-26T10:00:48Z</time>
      </trkpt>
      <trkpt lat="45.71038" lon="6.01108">
        <ele>727.37</ele>
        <time>2014-07-26T10:00:53Z</time>
      </trkpt>
      <trkpt lat="45.71038" lon="6.01109">
        <ele>728.34</ele>
        <time>2014-07-26T10:00:58Z</time>
      </trkpt>
      <trkpt lat="45.71038" lon="6.01109">
        <ele>727.37</ele>
        <time>2014-07-26T10:01:03Z</time>
      </trkpt>
      <trkpt lat="45.71035" lon="6.01108">
        <ele>727.37</ele>
        <time>2014-07-26T10:01:08Z</time>
      </trkpt>
      <trkpt lat="45.71034" lon="6.01108">
        <ele>726.89</ele>
        <time>2014-07-26T10:01:13Z</time>
      </trkpt>
      <trkpt lat="45.71034" lon="6.01108">
        <ele>726.89</ele>
        <time>2014-07-26T10:01:18Z</time>
      </trkpt>
      <trkpt lat="45.71026" lon="6.01114">
        <ele>726.41</ele>
        <time>2014-07-26T10:01:23Z</time>
      </trkpt>
      <trkpt lat="45.71023" lon="6.01123">
        <ele>727.37</ele>
        <time>2014-07-26T10:01:28Z</time>
      </trkpt>
      <trkpt lat="45.71023" lon="6.01128">
        <ele>725.93</ele>
        <time>2014-07-26T10:01:33Z</time>
      </trkpt>
      <trkpt lat="45.71034" lon="6.01126">
        <ele>726.89</ele>
        <time>2014-07-26T10:01:38Z</time>
      </trkpt>
      <trkpt lat="45.71045" lon="6.01129">
        <ele>725.93</ele>
        <time>2014-07-26T10:01:43Z</time>
      </trkpt>
      <trkpt lat="45.71053" lon="6.01133">
        <ele>726.89</ele>
        <time>2014-07-26T10:01:48Z</time>
      </trkpt>
      <trkpt lat="45.71062" lon="6.01137">
        <ele>724.97</ele>
        <time>2014-07-26T10:01:53Z</time>
      </trkpt>
      <trkpt lat="45.71068" lon="6.01141">
        <ele>729.78</ele>
        <time>2014-07-26T10:01:58Z</time>
      </trkpt>
      <trkpt lat="45.71072" lon="6.01146">
        <ele>730.26</ele>
        <time>2014-07-26T10:02:03Z</time>
      </trkpt>
      <trkpt lat="45.71076" lon="6.01151">
        <ele>730.74</ele>
        <time>2014-07-26T10:02:08Z</time>
      </trkpt>
      <trkpt lat="45.7108" lon="6.01157">
        <ele>731.7</ele>
        <time>2014-07-26T10:02:13Z</time>
      </trkpt>
      <trkpt lat="45.71083" lon="6.01161">
        <ele>735.07</ele>
        <time>2014-07-26T10:02:18Z</time>
      </trkpt>
      <trkpt lat="45.71084" lon="6.0116">
        <ele>734.58</ele>
        <time>2014-07-26T10:02:23Z</time>
      </trkpt>
      <trkpt lat="45.71086" lon="6.01163">
        <ele>733.62</ele>
        <time>2014-07-26T10:02:28Z</time>
      </trkpt>
      <trkpt lat="45.71086" lon="6.01163">
        <ele>733.62</ele>
        <time>2014-07-26T10:02:33Z</time>
      </trkpt>
      <trkpt lat="45.71086" lon="6.01163">
        <ele>735.07</ele>
        <time>2014-07-26T10:02:38Z</time>
      </trkpt>
      <trkpt lat="45.71089" lon="6.01165">
        <ele>735.07</ele>
        <time>2014-07-26T10:02:43Z</time>
      </trkpt>
      <trkpt lat="45.71095" lon="6.01169">
        <ele>735.07</ele>
        <time>2014-07-26T10:02:48Z</time>
      </trkpt>
      <trkpt lat="45.71097" lon="6.0117">
        <ele>738.91</ele>
        <time>2014-07-26T10:02:53Z</time>
      </trkpt>
      <trkpt lat="45.71097" lon="6.0117">
        <ele>737.95</ele>
        <time>2014-07-26T10:02:58Z</time>
      </trkpt>
      <trkpt lat="45.71097" lon="6.01171">
        <ele>741.31</ele>
        <time>2014-07-26T10:03:03Z</time>
      </trkpt>
      <trkpt lat="45.71098" lon="6.0117">
        <ele>739.87</ele>
        <time>2014-07-26T10:03:08Z</time>
      </trkpt>
      <trkpt lat="45.71103" lon="6.01174">
        <ele>739.39</ele>
        <time>2014-07-26T10:03:13Z</time>
      </trkpt>
      <trkpt lat="45.71108" lon="6.01176">
        <ele>740.83</ele>
        <time>2014-07-26T10:03:18Z</time>
      </trkpt>
      <trkpt lat="45.71111" lon="6.01178">
        <ele>741.31</ele>
        <time>2014-07-26T10:03:23Z</time>
      </trkpt>
      <trkpt lat="45.71116" lon="6.01181">
        <ele>745.64</ele>
        <time>2014-07-26T10:03:28Z</time>
      </trkpt>
      <trkpt lat="45.71117" lon="6.01183">
        <ele>745.16</ele>
        <time>2014-07-26T10:03:33Z</time>
      </trkpt>
      <trkpt lat="45.71118" lon="6.01187">
        <ele>742.76</ele>
        <time>2014-07-26T10:03:38Z</time>
      </trkpt>
      <trkpt lat="45.71119" lon="6.01189">
        <ele>743.24</ele>
        <time>2014-07-26T10:03:43Z</time>
      </trkpt>
      <trkpt lat="45.71119" lon="6.01189">
        <ele>745.16</ele>
        <time>2014-07-26T10:03:48Z</time>
      </trkpt>
      <trkpt lat="45.7112" lon="6.0119">
        <ele>742.76</ele>
        <time>2014-07-26T10:03:53Z</time>
      </trkpt>
      <trkpt lat="45.71126" lon="6.01191">
        <ele>744.68</ele>
        <time>2014-07-26T10:03:58Z</time>
      </trkpt>
      <trkpt lat="45.71132" lon="6.01185">
        <ele>743.72</ele>
        <time>2014-07-26T10:04:03Z</time>
      </trkpt>
      <trkpt lat="45.71145" lon="6.01183">
        <ele>744.2</ele>
        <time>2014-07-26T10:04:08Z</time>
      </trkpt>
      <trkpt lat="45.71153" lon="6.01174">
        <ele>747.08</ele>
        <time>2014-07-26T10:04:13Z</time>
      </trkpt>
      <trkpt lat="45.71161" lon="6.01171">
        <ele>745.16</ele>
        <time>2014-07-26T10:04:18Z</time>
      </trkpt>
      <trkpt lat="45.71173" lon="6.01173">
        <ele>747.08</ele>
        <time>2014-07-26T10:04:23Z</time>
      </trkpt>
      <trkpt lat="45.71183" lon="6.01171">
        <ele>746.6</ele>
        <time>2014-07-26T10:04:28Z</time>
      </trkpt>
      <trkpt lat="45.7119" lon="6.01167">
        <ele>748.52</ele>
        <time>2014-07-26T10:04:33Z</time>
      </trkpt>
      <trkpt lat="45.71196" lon="6.01161">
        <ele>748.52</ele>
        <time>2014-07-26T10:04:38Z</time>
      </trkpt>
      <trkpt lat="45.71198" lon="6.01158">
        <ele>750.93</ele>
        <time>2014-07-26T10:04:43Z</time>
      </trkpt>
      <trkpt lat="45.71198" lon="6.01158">
        <ele>747.56</ele>
        <time>2014-07-26T10:04:48Z</time>
      </trkpt>
      <trkpt lat="45.71199" lon="6.01158">
        <ele>750.93</ele>
        <time>2014-07-26T10:04:53Z</time>
      </trkpt>
      <trkpt lat="45.71205" lon="6.01158">
        <ele>754.29</ele>
        <time>2014-07-26T10:04:58Z</time>
      </trkpt>
      <trkpt lat="45.71208" lon="6.01158">
        <ele>754.77</ele>
        <time>2014-07-26T10:05:03Z</time>
      </trkpt>
      <trkpt lat="45.71208" lon="6.01158">
        <ele>753.81</ele>
        <time>2014-07-26T10:05:08Z</time>
      </trkpt>
      <trkpt lat="45.71208" lon="6.01158">
        <ele>749.97</ele>
        <time>2014-07-26T10:05:13Z</time>
      </trkpt>
      <trkpt lat="45.71212" lon="6.01162">
        <ele>754.29</ele>
        <time>2014-07-26T10:05:18Z</time>
      </trkpt>
      <trkpt lat="45.71218" lon="6.01164">
        <ele>754.77</ele>
        <time>2014-07-26T10:05:23Z</time>
      </trkpt>
      <trkpt lat="45.7122" lon="6.01166">
        <ele>755.73</ele>
        <time>2014-07-26T10:05:28Z</time>
      </trkpt>
      <trkpt lat="45.71221" lon="6.01164">
        <ele>757.18</ele>
        <time>2014-07-26T10:05:33Z</time>
      </trkpt>
      <trkpt lat="45.71229" lon="6.01168">
        <ele>758.62</ele>
        <time>2014-07-26T10:05:38Z</time>
      </trkpt>
      <trkpt lat="45.71243" lon="6.01178">
        <ele>757.18</ele>
        <time>2014-07-26T10:05:43Z</time>
      </trkpt>
      <trkpt lat="45.71255" lon="6.01185">
        <ele>757.18</ele>
        <time>2014-07-26T10:05:48Z</time>
      </trkpt>
      <trkpt lat="45.71262" lon="6.01186">
        <ele>757.66</ele>
        <time>2014-07-26T10:05:53Z</time>
      </trkpt>
      <trkpt lat="45.7127" lon="6.01188">
        <ele>757.18</ele>
        <time>2014-07-26T10:05:58Z</time>
      </trkpt>
      <trkpt lat="45.71278" lon="6.01186">
        <ele>756.69</ele>
        <time>2014-07-26T10:06:03Z</time>
      </trkpt>
      <trkpt lat="45.71286" lon="6.01169">
        <ele>755.25</ele>
        <time>2014-07-26T10:06:08Z</time>
      </trkpt>
      <trkpt lat="45.71303" lon="6.01154">
        <ele>753.33</ele>
        <time>2014-07-26T10:06:13Z</time>
      </trkpt>
      <trkpt lat="45.7132" lon="6.01113">
        <ele>750.45</ele>
        <time>2014-07-26T10:06:18Z</time>
      </trkpt>
      <trkpt lat="45.71329" lon="6.01077">
        <ele>750.93</ele>
        <time>2014-07-26T10:06:23Z</time>
      </trkpt>
      <trkpt lat="45.71339" lon="6.01058">
        <ele>752.85</ele>
        <time>2014-07-26T10:06:28Z</time>
      </trkpt>
      <trkpt lat="45.71348" lon="6.01038">
        <ele>751.89</ele>
        <time>2014-07-26T10:06:33Z</time>
      </trkpt>
      <trkpt lat="45.71361" lon="6.01008">
        <ele>750.45</ele>
        <time>2014-07-26T10:06:38Z</time>
      </trkpt>
      <trkpt lat="45.71373" lon="6.00964">
        <ele>749</ele>
        <time>2014-07-26T10:06:43Z</time>
      </trkpt>
      <trkpt lat="45.71387" lon="6.00913">
        <ele>743.24</ele>
        <time>2014-07-26T10:06:48Z</time>
      </trkpt>
      <trkpt lat="45.71412" lon="6.00891">
        <ele>739.39</ele>
        <time>2014-07-26T10:06:53Z</time>
      </trkpt>
      <trkpt lat="45.7144" lon="6.00884">
        <ele>737.47</ele>
        <time>2014-07-26T10:06:58Z</time>
      </trkpt>
      <trkpt lat="45.71447" lon="6.00886">
        <ele>734.58</ele>
        <time>2014-07-26T10:07:03Z</time>
      </trkpt>
      <trkpt lat="45.71447" lon="6.00886">
        <ele>736.03</ele>
        <time>2014-07-26T10:07:08Z</time>
      </trkpt>
      <trkpt lat="45.71448" lon="6.00887">
        <ele>735.07</ele>
        <time>2014-07-26T10:07:13Z</time>
      </trkpt>
      <trkpt lat="45.71449" lon="6.00887">
        <ele>735.55</ele>
        <time>2014-07-26T10:07:18Z</time>
      </trkpt>
      <trkpt lat="45.71449" lon="6.00887">
        <ele>735.55</ele>
        <time>2014-07-26T10:07:23Z</time>
      </trkpt>
      <trkpt lat="45.71455" lon="6.00886">
        <ele>735.55</ele>
        <time>2014-07-26T10:07:28Z</time>
      </trkpt>
      <trkpt lat="45.71475" lon="6.00889">
        <ele>735.07</ele>
        <time>2014-07-26T10:07:33Z</time>
      </trkpt>
      <trkpt lat="45.71492" lon="6.0089">
        <ele>733.62</ele>
        <time>2014-07-26T10:07:38Z</time>
      </trkpt>
      <trkpt lat="45.71505" lon="6.00893">
        <ele>734.58</ele>
        <time>2014-07-26T10:07:43Z</time>
      </trkpt>
      <trkpt lat="45.71515" lon="6.00895">
        <ele>733.14</ele>
        <time>2014-07-26T10:07:48Z</time>
      </trkpt>
      <trkpt lat="45.71523" lon="6.00898">
        <ele>734.58</ele>
        <time>2014-07-26T10:07:53Z</time>
      </trkpt>
      <trkpt lat="45.71533" lon="6.00902">
        <ele>734.1</ele>
        <time>2014-07-26T10:07:58Z</time>
      </trkpt>
      <trkpt lat="45.7154" lon="6.00905">
        <ele>733.14</ele>
        <time>2014-07-26T10:08:03Z</time>
      </trkpt>
      <trkpt lat="45.7155" lon="6.00917">
        <ele>733.14</ele>
        <time>2014-07-26T10:08:08Z</time>
      </trkpt>
      <trkpt lat="45.71566" lon="6.00943">
        <ele>733.14</ele>
        <time>2014-07-26T10:08:13Z</time>
      </trkpt>
      <trkpt lat="45.71582" lon="6.00958">
        <ele>733.14</ele>
        <time>2014-07-26T10:08:18Z</time>
      </trkpt>
      <trkpt lat="45.71591" lon="6.00964">
        <ele>734.1</ele>
        <time>2014-07-26T10:08:23Z</time>
      </trkpt>
      <trkpt lat="45.71599" lon="6.0097">
        <ele>734.1</ele>
        <time>2014-07-26T10:08:28Z</time>
      </trkpt>
      <trkpt lat="45.716" lon="6.0097">
        <ele>734.58</ele>
        <time>2014-07-26T10:08:33Z</time>
      </trkpt>
      <trkpt lat="45.716" lon="6.0097">
        <ele>734.58</ele>
        <time>2014-07-26T10:08:38Z</time>
      </trkpt>
      <trkpt lat="45.716" lon="6.0097">
        <ele>736.51</ele>
        <time>2014-07-26T10:08:43Z</time>
      </trkpt>
      <trkpt lat="45.716" lon="6.0097">
        <ele>733.62</ele>
        <time>2014-07-26T10:08:48Z</time>
      </trkpt>
      <trkpt lat="45.716" lon="6.0097">
        <ele>734.1</ele>
        <time>2014-07-26T10:08:53Z</time>
      </trkpt>
      <trkpt lat="45.716" lon="6.00971">
        <ele>733.62</ele>
        <time>2014-07-26T10:08:58Z</time>
      </trkpt>
      <trkpt lat="45.71605" lon="6.00974">
        <ele>734.58</ele>
        <time>2014-07-26T10:09:03Z</time>
      </trkpt>
      <trkpt lat="45.7161" lon="6.00975">
        <ele>735.07</ele>
        <time>2014-07-26T10:09:08Z</time>
      </trkpt>
      <trkpt lat="45.7162" lon="6.00976">
        <ele>736.51</ele>
        <time>2014-07-26T10:09:13Z</time>
      </trkpt>
      <trkpt lat="45.71631" lon="6.00977">
        <ele>737.47</ele>
        <time>2014-07-26T10:09:18Z</time>
      </trkpt>
      <trkpt lat="45.71643" lon="6.00983">
        <ele>738.91</ele>
        <time>2014-07-26T10:09:23Z</time>
      </trkpt>
      <trkpt lat="45.71654" lon="6.00988">
        <ele>738.91</ele>
        <time>2014-07-26T10:09:28Z</time>
      </trkpt>
      <trkpt lat="45.71666" lon="6.00989">
        <ele>739.87</ele>
        <time>2014-07-26T10:09:33Z</time>
      </trkpt>
      <trkpt lat="45.7168" lon="6.00986">
        <ele>737.95</ele>
        <time>2014-07-26T10:09:38Z</time>
      </trkpt>
      <trkpt lat="45.71695" lon="6.00969">
        <ele>736.51</ele>
        <time>2014-07-26T10:09:43Z</time>
      </trkpt>
      <trkpt lat="45.71709" lon="6.00951">
        <ele>733.62</ele>
        <time>2014-07-26T10:09:48Z</time>
      </trkpt>
      <trkpt lat="45.71741" lon="6.00915">
        <ele>731.22</ele>
        <time>2014-07-26T10:09:53Z</time>
      </trkpt>
      <trkpt lat="45.71776" lon="6.00863">
        <ele>727.37</ele>
        <time>2014-07-26T10:09:58Z</time>
      </trkpt>
      <trkpt lat="45.71814" lon="6.00815">
        <ele>724.01</ele>
        <time>2014-07-26T10:10:03Z</time>
      </trkpt>
      <trkpt lat="45.71858" lon="6.00795">
        <ele>722.57</ele>
        <time>2014-07-26T10:10:08Z</time>
      </trkpt>
      <trkpt lat="45.71894" lon="6.0077">
        <ele>723.05</ele>
        <time>2014-07-26T10:10:13Z</time>
      </trkpt>
      <trkpt lat="45.71921" lon="6.00737">
        <ele>723.53</ele>
        <time>2014-07-26T10:10:18Z</time>
      </trkpt>
      <trkpt lat="45.71944" lon="6.00708">
        <ele>722.09</ele>
        <time>2014-07-26T10:10:23Z</time>
      </trkpt>
      <trkpt lat="45.7197" lon="6.00676">
        <ele>718.24</ele>
        <time>2014-07-26T10:10:28Z</time>
      </trkpt>
      <trkpt lat="45.72006" lon="6.00662">
        <ele>713.92</ele>
        <time>2014-07-26T10:10:33Z</time>
      </trkpt>
      <trkpt lat="45.72053" lon="6.00664">
        <ele>710.55</ele>
        <time>2014-07-26T10:10:38Z</time>
      </trkpt>
      <trkpt lat="45.72099" lon="6.00652">
        <ele>706.71</ele>
        <time>2014-07-26T10:10:43Z</time>
      </trkpt>
      <trkpt lat="45.72134" lon="6.00645">
        <ele>703.34</ele>
        <time>2014-07-26T10:10:48Z</time>
      </trkpt>
      <trkpt lat="45.7216" lon="6.00644">
        <ele>701.9</ele>
        <time>2014-07-26T10:10:53Z</time>
      </trkpt>
      <trkpt lat="45.72156" lon="6.0066">
        <ele>703.82</ele>
        <time>2014-07-26T10:10:58Z</time>
      </trkpt>
      <trkpt lat="45.72151" lon="6.00677">
        <ele>704.78</ele>
        <time>2014-07-26T10:11:03Z</time>
      </trkpt>
      <trkpt lat="45.72146" lon="6.00693">
        <ele>707.19</ele>
        <time>2014-07-26T10:11:08Z</time>
      </trkpt>
      <trkpt lat="45.72142" lon="6.00711">
        <ele>708.63</ele>
        <time>2014-07-26T10:11:13Z</time>
      </trkpt>
      <trkpt lat="45.72139" lon="6.00728">
        <ele>711.03</ele>
        <time>2014-07-26T10:11:18Z</time>
      </trkpt>
      <trkpt lat="45.72143" lon="6.0074">
        <ele>711.99</ele>
        <time>2014-07-26T10:11:23Z</time>
      </trkpt>
      <trkpt lat="45.72153" lon="6.00743">
        <ele>711.99</ele>
        <time>2014-07-26T10:11:28Z</time>
      </trkpt>
      <trkpt lat="45.72167" lon="6.00747">
        <ele>711.51</ele>
        <time>2014-07-26T10:11:33Z</time>
      </trkpt>
      <trkpt lat="45.72182" lon="6.00751">
        <ele>712.95</ele>
        <time>2014-07-26T10:11:38Z</time>
      </trkpt>
      <trkpt lat="45.72198" lon="6.00755">
        <ele>712.47</ele>
        <time>2014-07-26T10:11:43Z</time>
      </trkpt>
      <trkpt lat="45.72216" lon="6.00759">
        <ele>712.95</ele>
        <time>2014-07-26T10:11:48Z</time>
      </trkpt>
      <trkpt lat="45.72233" lon="6.00763">
        <ele>712.95</ele>
        <time>2014-07-26T10:11:53Z</time>
      </trkpt>
      <trkpt lat="45.72248" lon="6.00766">
        <ele>712.95</ele>
        <time>2014-07-26T10:11:58Z</time>
      </trkpt>
      <trkpt lat="45.72261" lon="6.00768">
        <ele>713.44</ele>
        <time>2014-07-26T10:12:03Z</time>
      </trkpt>
      <trkpt lat="45.7227" lon="6.00767">
        <ele>713.44</ele>
        <time>2014-07-26T10:12:08Z</time>
      </trkpt>
      <trkpt lat="45.72278" lon="6.00764">
        <ele>713.44</ele>
        <time>2014-07-26T10:12:13Z</time>
      </trkpt>
      <trkpt lat="45.72288" lon="6.00762">
        <ele>711.99</ele>
        <time>2014-07-26T10:12:18Z</time>
      </trkpt>
      <trkpt lat="45.723" lon="6.00759">
        <ele>711.51</ele>
        <time>2014-07-26T10:12:23Z</time>
      </trkpt>
      <trkpt lat="45.72304" lon="6.00755">
        <ele>711.03</ele>
        <time>2014-07-26T10:12:28Z</time>
      </trkpt>
      <trkpt lat="45.72304" lon="6.00755">
        <ele>711.51</ele>
        <time>2014-07-26T10:12:33Z</time>
      </trkpt>
    </trkseg>
  </trk>
</gpx>